GFSMW_prec_cthk_000.txt.gz
RH
20 17 16 15 15 15 14 16 16 16 19 20 22 22 22 23 24 23 23 24 25 24 20 21 21 23 24 24 24 28 31 33 36 40 39 39 38 36 36 36 35 33 34
20 19 18 17 16 15 13 14 15 18 21 21 20 22 23 23 26 26 25 28 29 26 23 23 24 24 25 26 26 29 32 37 41 42 46 44 39 36 37 37 37 36 40
21 19 18 17 18 18 18 18 18 20 22 26 26 26 26 25 25 25 29 32 32 30 30 29 29 29 28 27 31 36 39 41 43 45 48 48 42 39 39 40 42 43 46
20 20 21 21 21 20 20 20 22 22 24 27 30 31 32 32 31 32 33 33 31 29 27 26 28 33 35 37 38 40 38 41 41 45 46 47 47 51 50 48 50 55 59
24 24 24 24 23 22 23 23 23 24 26 29 30 32 33 33 33 34 36 37 38 36 35 32 34 35 38 40 41 41 42 44 48 46 47 49 53 53 60 58 58 61 60
26 26 25 26 27 28 28 28 28 28 27 27 29 31 32 32 32 32 34 34 36 38 40 41 40 41 43 44 45 44 47 49 51 49 48 52 56 55 62 63 63 64 62
27 28 30 30 30 31 31 32 31 29 30 30 30 31 32 33 35 37 39 40 40 42 45 47 47 45 45 44 46 48 49 51 52 52 53 55 56 60 64 67 63 65 64
35 36 35 33 31 30 29 29 30 33 34 33 32 33 33 33 33 33 33 35 38 41 43 46 48 49 49 48 51 55 57 58 60 59 60 63 64 69 71 72 74 73 69
36 35 34 32 30 29 28 28 27 26 26 29 32 35 36 36 37 38 39 39 39 38 37 39 43 47 54 56 60 61 60 59 60 63 67 69 71 75 75 74 74 79 72
37 37 35 32 31 29 26 27 27 28 29 29 29 30 31 33 36 39 40 42 44 45 46 46 47 48 49 51 56 59 63 69 70 70 71 71 72 74 75 77 74 79 78
35 36 34 32 32 30 30 34 37 39 40 40 40 41 41 42 43 44 45 45 46 48 52 54 55 54 55 57 56 57 60 62 67 72 74 77 80 83 82 82 82 83 82
32 34 36 37 38 40 42 44 45 45 45 45 44 43 42 42 42 43 43 43 43 43 42 42 44 49 55 60 63 63 64 66 67 69 72 79 85 86 93 93 93 92 92
40 43 45 46 47 48 50 51 51 48 48 46 47 47 47 47 46 46 45 43 42 42 41 40 40 41 44 48 50 54 58 63 67 70 73 72 76 78 82 88 87 85 88
46 48 50 51 52 51 50 50 47 46 47 47 47 46 46 46 45 45 46 46 45 44 42 40 38 37 38 41 43 50 57 60 61 62 64 66 69 72 76 82 81 82 90
47 47 48 48 49 49 50 48 48 49 50 50 49 48 49 49 48 47 47 47 46 46 45 43 42 43 42 40 43 44 46 51 53 56 60 64 66 67 68 80 78 83 88
44 45 46 48 50 50 50 49 50 52 52 55 54 54 52 51 50 49 48 48 49 48 47 46 46 45 45 45 44 47 50 47 46 48 50 57 61 64 66 71 79 83 86
44 45 48 50 49 50 51 53 55 58 58 58 57 56 54 52 51 52 51 50 48 47 48 49 49 48 46 47 51 55 54 53 50 50 50 51 57 64 70 71 74 76 80
50 53 54 52 53 56 60 63 63 61 59 57 55 54 54 53 51 49 46 45 44 43 42 42 45 47 49 53 58 55 52 45 44 48 50 53 54 61 72 79 76 76 77
59 59 59 61 64 64 64 62 61 59 57 54 52 49 46 43 37 32 31 31 33 37 38 40 42 47 49 51 46 44 41 39 39 46 48 52 55 56 63 71 78 84 90
63 64 67 70 70 67 63 60 58 55 53 49 46 41 38 32 28 28 28 27 28 26 26 25 30 37 42 41 40 39 42 42 43 39 39 47 54 56 63 69 74 89 93
65 69 73 73 71 65 62 58 54 51 47 44 40 34 31 29 26 24 23 24 22 23 21 22 22 26 30 36 39 40 42 49 46 42 42 45 53 56 63 70 81 93 97
76 76 74 73 71 68 62 56 50 47 41 35 32 31 28 25 23 23 22 20 19 19 21 22 21 20 18 18 28 41 48 54 50 47 49 54 61 63 64 72 82 95 98
76 77 77 75 70 64 55 50 46 39 34 33 30 25 22 20 20 20 18 17 16 16 20 20 20 17 13 14 16 29 46 56 56 53 57 64 71 72 70 75 83 92 94
81 80 73 66 59 53 48 40 35 33 30 27 24 22 21 21 20 18 18 18 17 20 21 20 17 17 17 17 20 28 37 49 56 54 62 72 79 80 78 78 82 92 98
80 71 60 55 50 43 38 34 31 28 26 25 24 23 22 20 19 19 20 21 22 24 26 26 26 27 25 22 28 32 33 43 55 57 66 71 76 77 83 85 90 97 97
68 62 53 45 39 38 33 28 26 27 28 27 25 23 23 23 23 23 21 21 25 26 28 30 34 33 30 26 31 29 26 34 54 61 67 72 79 84 87 93 94 95 97

GFSMW_prec_cthk_006.txt.gz
RH
30 29 25 22 21 20 19 20 20 21 23 25 27 29 31 31 31 33 34 36 38 39 40 40 40 41 43 43 40 40 39 36 37 42 37 36 35 35 36 39 42 41 42
28 26 24 22 21 21 20 19 19 19 21 23 26 30 33 35 36 38 39 42 42 41 42 42 43 44 44 44 44 44 44 43 43 46 50 48 42 38 38 39 41 39 41
27 25 24 24 24 22 20 19 20 21 23 25 28 31 34 38 42 44 44 45 45 45 45 45 45 45 46 47 49 51 52 53 52 52 58 60 57 53 47 46 49 50 49
28 27 27 25 25 23 22 23 25 26 28 29 31 34 37 39 39 40 41 42 43 42 43 44 45 45 47 48 50 54 55 57 57 59 56 57 61 62 57 49 52 57 56
28 27 25 24 24 24 26 27 29 29 27 27 26 27 29 31 32 31 31 33 35 39 41 42 43 44 46 45 51 53 56 56 54 56 58 58 58 61 64 63 59 64 62
27 25 25 26 26 27 31 33 32 30 29 28 28 28 29 30 30 30 30 31 32 33 33 34 37 41 43 43 44 50 53 56 61 70 70 73 74 71 75 77 75 74 73
28 29 31 33 34 36 37 37 34 32 30 28 28 29 30 31 33 35 36 38 39 40 42 43 44 45 46 47 50 51 53 56 63 68 75 80 83 87 88 89 84 89 84
33 35 37 39 38 37 35 34 34 33 33 34 34 35 36 39 40 40 40 39 38 37 36 36 36 37 38 41 44 47 51 54 56 58 59 63 69 74 81 86 89 90 86
37 39 38 37 35 33 33 35 37 37 38 39 40 40 39 38 36 36 36 36 36 35 34 34 34 34 35 36 37 37 38 41 46 49 53 58 61 63 64 67 75 81 78
41 41 38 36 35 37 39 42 43 45 44 39 36 35 35 35 36 37 37 37 37 36 36 36 36 37 38 38 39 38 38 39 39 42 48 53 58 60 62 64 69 77 84
40 39 38 38 41 46 49 49 47 43 40 36 35 36 37 38 39 39 39 39 39 39 38 38 38 39 40 42 43 44 44 45 47 49 52 52 54 55 58 60 61 62 67
39 39 40 47 52 51 46 43 41 40 36 36 37 38 39 40 41 41 41 41 40 39 38 37 37 40 40 42 46 46 50 53 53 54 56 56 57 55 55 56 57 58 59
40 44 49 52 46 43 42 41 40 40 40 41 41 43 44 44 42 41 39 37 35 34 33 33 33 33 36 39 41 48 53 50 52 53 54 55 56 55 55 54 56 56 55
47 49 46 43 42 42 43 44 44 44 45 46 46 46 46 43 39 36 32 29 27 24 23 22 22 23 25 25 29 33 38 43 46 48 52 53 52 51 47 51 53 55 59
47 46 45 44 45 46 45 43 44 47 49 50 48 45 41 37 32 29 26 24 23 23 23 21 22 22 23 26 31 33 37 43 45 44 43 42 44 45 52 51 48 54 61
44 44 45 46 47 46 46 50 52 53 53 50 45 40 37 35 30 28 25 24 23 23 23 23 23 24 26 28 26 27 37 41 42 43 43 41 42 43 41 42 46 50 58
45 45 48 49 49 51 52 51 51 52 49 44 41 39 33 30 28 26 26 26 25 25 27 28 27 26 24 23 25 32 41 40 39 39 38 36 36 43 42 39 40 43 50
48 50 51 50 51 54 55 57 54 49 44 43 41 35 31 30 29 29 28 28 28 28 27 24 23 21 19 19 26 30 30 31 28 31 30 27 32 35 40 40 42 42 49
48 47 49 54 60 63 62 57 52 47 46 44 40 34 31 31 32 31 31 30 29 27 24 22 20 19 21 23 23 21 17 16 18 19 16 22 29 31 42 52 52 51 51
49 56 60 63 66 65 60 53 48 47 45 40 36 35 36 35 33 33 33 30 26 24 24 23 24 24 24 24 24 26 26 26 26 27 27 31 31 33 34 44 53 61 64
58 61 66 67 64 57 55 53 49 42 39 37 39 41 40 39 39 38 32 28 28 27 27 27 25 25 26 26 28 30 36 36 42 42 39 35 29 29 29 36 61 71 71
56 60 62 59 60 56 54 49 44 42 42 41 43 43 41 41 35 30 30 30 29 28 28 28 28 27 27 28 32 38 42 46 45 43 39 32 31 30 36 42 60 71 76
61 63 63 63 61 53 47 43 42 42 42 43 42 37 30 30 32 33 31 29 29 29 30 32 32 31 29 30 36 41 47 46 47 44 39 32 33 35 35 38 62 73 84
60 61 63 60 55 50 46 42 38 39 38 30 28 30 33 35 33 30 28 27 28 33 37 42 43 43 40 42 43 50 47 45 44 41 34 31 33 32 34 42 71 81 87
59 59 57 51 45 41 37 35 32 28 29 31 34 35 34 30 27 26 28 30 33 41 47 46 46 47 46 46 53 53 51 51 49 42 35 28 26 27 35 54 76 81 87
57 55 44 39 35 30 26 26 29 32 36 38 36 31 28 28 29 29 27 28 32 36 42 46 50 48 52 55 54 53 53 52 49 42 38 31 28 32 46 69 75 79 92

GFSMW_prec_cthk_009.txt.gz
RH
24 26 29 29 27 25 23 23 22 22 22 22 24 26 28 31 34 37 38 39 41 44 46 47 47 48 48 48 49 50 51 52 53 54 50 48 44 40 38 42 41 41 41
26 28 30 28 26 25 25 24 23 22 21 21 24 28 31 34 38 41 43 46 48 49 50 51 51 51 51 51 51 53 54 55 57 58 60 57 51 49 48 48 49 50 52
30 30 29 28 28 28 26 24 23 22 22 24 26 28 31 35 38 40 41 43 43 43 44 44 43 42 44 43 44 47 50 51 52 54 57 56 53 51 48 44 44 46 50
32 31 30 29 28 27 26 25 24 25 26 26 26 27 29 31 32 32 33 34 34 36 37 38 40 42 43 44 46 47 48 54 55 57 60 62 64 64 60 58 58 54 51
32 31 30 28 28 27 26 26 27 28 31 31 30 29 29 31 31 32 33 34 36 37 37 38 39 40 42 44 47 48 49 54 57 61 65 68 72 77 78 75 76 75 71
30 30 29 28 27 27 30 32 34 35 35 34 32 31 32 33 33 34 35 36 37 36 34 33 34 34 35 35 35 36 39 42 47 51 56 60 65 69 74 77 75 79 73
32 32 31 29 30 34 36 36 35 34 34 34 34 34 34 36 37 36 34 32 31 31 32 32 32 32 32 32 32 32 33 35 37 40 44 47 53 59 63 66 64 67 62
33 33 32 33 36 38 38 37 38 38 38 37 36 37 38 35 33 32 32 33 33 33 33 33 33 33 34 34 34 34 35 34 34 35 36 40 46 52 56 60 66 64 62
35 35 35 40 41 40 39 40 42 42 43 43 41 37 35 34 34 34 35 35 36 35 35 35 34 34 35 35 35 36 36 38 40 42 44 47 47 49 54 60 67 78 75
40 43 44 43 40 40 41 44 48 49 46 40 36 34 35 36 37 38 38 38 38 36 35 34 33 31 31 32 33 34 35 37 41 45 46 48 51 53 57 62 67 71 78
45 44 43 39 39 42 48 53 49 43 39 37 36 37 37 39 40 40 40 38 36 33 31 29 26 24 23 23 24 26 29 35 38 39 43 45 52 56 59 64 64 63 66
41 40 40 41 46 51 53 49 44 42 41 39 39 40 42 42 42 40 36 33 30 27 24 22 21 19 19 18 18 18 22 25 24 26 32 38 43 43 46 48 51 52 56
41 42 44 50 52 50 48 46 46 45 44 43 43 44 44 43 40 35 31 28 25 23 22 21 20 20 19 20 20 21 23 23 25 30 38 44 43 42 42 42 47 47 42
44 44 45 50 51 50 49 49 46 46 47 47 45 42 39 35 31 29 27 25 24 24 24 22 21 21 22 23 22 23 25 27 30 33 40 41 42 43 41 46 50 45 40
43 47 49 50 49 48 47 45 47 48 48 45 44 39 34 33 31 30 29 27 26 24 23 22 22 24 25 26 24 23 24 28 27 27 29 30 31 31 34 41 37 38 37
45 46 47 48 49 48 47 47 47 50 49 48 45 37 35 35 34 30 28 27 26 25 25 26 27 28 28 26 24 24 25 25 22 23 24 26 27 28 31 32 35 40 46
43 44 47 49 49 48 47 48 51 56 58 51 42 39 38 38 33 30 28 28 28 28 30 33 33 31 28 25 23 25 27 25 23 23 22 19 20 22 25 24 25 26 30
43 47 48 48 46 49 53 59 62 58 52 42 42 42 38 33 32 31 31 31 32 35 37 35 32 29 27 25 25 26 25 25 25 25 24 25 27 29 31 30 32 32 24
43 44 43 44 50 55 59 62 59 48 44 45 44 38 35 33 32 33 33 35 35 31 30 30 29 27 25 25 26 28 29 29 29 31 32 34 33 33 35 37 34 31 25
43 46 48 53 57 59 58 54 49 48 46 43 41 37 34 33 33 32 30 29 30 31 30 28 26 24 23 24 29 34 37 38 42 45 44 39 37 38 37 39 39 45 46
46 49 52 55 57 57 54 52 50 49 44 39 36 35 31 28 26 28 30 31 30 27 23 21 20 21 25 26 30 37 41 48 52 47 45 40 42 45 37 39 43 45 47
48 50 55 56 57 55 55 53 49 42 38 34 29 26 23 26 29 31 30 25 22 22 22 22 22 24 26 29 34 41 47 52 54 51 48 48 46 42 38 34 35 39 42
52 55 58 56 54 54 51 47 40 34 28 23 21 23 28 31 31 26 22 22 23 25 25 28 28 30 32 33 35 39 47 48 52 52 51 47 44 43 33 29 37 41 46
56 55 55 57 55 51 42 32 26 22 21 22 24 30 32 29 24 24 24 25 26 27 30 33 39 40 38 38 39 49 49 48 49 52 48 44 42 42 34 29 35 44 62
59 58 56 53 47 36 29 23 21 22 23 26 33 33 30 25 25 24 24 26 26 34 41 43 42 41 40 44 52 53 52 54 62 55 47 42 44 41 31 31 37 55 76
59 57 53 41 32 27 23 23 25 24 30 34 34 31 27 26 26 24 22 24 29 33 35 40 43 42 45 48 53 52 53 59 60 56 50 46 48 43 34 34 44 67 78

GFSMW_prec_cthk_012.txt.gz
RH
29 24 19 20 25 29 29 28 25 24 24 25 26 28 30 34 38 40 42 44 47 49 50 51 52 52 50 48 48 49 48 47 49 50 45 45 44 45 45 46 44 44 45
22 21 24 26 30 32 30 27 26 26 25 25 25 26 29 32 34 37 39 41 43 44 43 42 42 41 40 40 41 44 46 47 49 51 52 50 48 46 48 49 49 51 50
25 26 28 31 33 31 29 28 28 27 25 24 25 27 30 34 35 36 36 36 36 36 37 37 37 38 39 39 41 43 45 49 49 52 56 55 53 54 52 51 50 53 54
31 30 33 33 32 32 31 30 28 27 26 26 27 29 33 33 34 35 36 36 36 36 37 38 38 36 33 32 32 33 34 36 38 42 48 53 57 59 53 54 58 60 58
32 33 34 34 34 33 31 30 27 26 27 28 30 33 34 36 37 37 36 35 35 34 31 29 28 29 29 29 29 29 30 31 31 33 35 38 41 46 54 48 46 49 52
33 34 34 34 33 33 31 29 28 29 32 34 35 36 37 36 35 35 35 33 30 30 30 31 32 33 33 32 32 32 32 32 33 33 34 35 38 39 43 50 48 48 45
33 33 34 33 33 33 32 32 35 38 39 39 38 38 38 38 37 34 30 29 30 31 32 33 33 33 33 32 32 31 31 32 32 33 35 38 41 44 46 49 49 50 46
35 36 35 35 35 35 37 40 42 42 42 43 42 41 38 35 32 31 31 33 34 34 34 33 33 32 30 28 26 25 25 25 27 29 34 37 39 42 46 52 58 55 52
36 36 35 37 40 42 43 44 43 43 45 46 43 38 34 34 35 35 36 37 38 36 32 29 26 24 22 21 19 19 19 20 23 28 32 33 34 39 46 55 62 70 69
38 39 41 44 46 46 45 43 43 47 50 46 41 37 37 38 39 40 40 37 33 29 26 23 21 20 19 19 19 19 19 19 22 22 21 21 24 31 38 40 44 47 58
44 46 48 48 45 43 46 47 51 52 47 41 40 40 41 42 39 36 32 28 26 24 22 22 21 21 21 21 19 18 18 18 18 20 21 25 30 38 42 42 45 45 49
50 47 44 44 45 49 54 51 48 45 43 43 42 44 42 39 37 32 28 26 25 24 24 23 22 22 22 21 19 18 18 20 21 24 28 32 35 37 39 39 41 42 51
44 43 45 48 52 51 51 49 47 45 45 46 46 45 40 37 34 32 30 28 26 26 24 23 22 21 21 21 21 22 23 26 28 34 33 30 30 30 31 31 32 41 49
44 50 51 50 50 52 52 49 47 48 47 47 46 44 41 38 37 33 29 29 29 26 25 24 22 22 24 26 27 29 30 31 33 35 32 29 28 27 28 29 30 39 45
48 46 46 48 50 50 50 49 49 50 49 48 45 41 40 38 32 31 32 30 27 25 24 23 24 25 27 26 25 25 26 28 30 28 26 25 23 25 28 34 31 35 39
39 42 45 47 48 50 50 50 50 50 49 50 47 43 38 34 33 32 29 27 25 24 24 24 23 21 23 24 24 27 27 26 25 24 23 24 25 28 32 34 35 42 44
39 41 43 47 48 48 48 49 51 52 53 52 49 43 35 33 33 29 27 26 25 22 20 20 21 22 21 18 17 24 25 25 24 24 25 27 31 36 37 35 39 42 44
39 40 43 46 45 45 48 53 55 56 52 46 41 39 35 33 29 28 26 21 18 19 21 21 19 17 17 17 20 26 25 25 26 30 32 38 36 36 44 48 49 49 42
38 42 45 45 45 49 53 55 56 49 44 43 42 38 34 31 26 20 18 20 22 22 19 18 18 18 16 19 25 29 31 32 33 32 34 44 41 42 51 54 51 45 38
40 43 45 47 50 52 55 55 52 46 44 44 40 34 28 22 18 20 23 25 23 20 19 18 19 19 19 20 26 35 37 36 34 38 41 40 47 49 52 52 54 50 38
42 46 49 51 53 57 55 53 47 45 44 37 31 25 20 20 23 25 27 24 22 21 21 20 19 19 23 26 29 37 38 40 45 45 37 39 49 51 49 50 51 48 45
45 48 52 55 56 56 53 47 47 42 36 28 22 21 22 25 28 28 25 24 24 23 22 20 19 23 26 29 31 38 40 46 49 42 42 53 55 52 46 47 49 45 39
47 51 55 58 56 53 50 47 41 33 26 22 22 24 26 30 30 26 26 25 24 24 23 25 26 25 27 29 32 36 42 49 49 46 58 59 55 48 42 45 44 36 36
51 55 58 58 55 52 47 39 29 26 24 24 25 27 31 29 27 28 28 26 25 26 28 29 31 30 33 36 37 44 47 48 48 52 58 58 52 44 45 44 38 33 41
53 55 55 56 54 49 36 30 27 26 26 27 28 31 30 28 28 27 27 26 26 30 32 33 37 38 38 40 49 52 51 53 55 54 51 50 50 45 43 43 35 35 44
53 53 54 54 45 33 31 28 28 28 29 29 32 30 29 28 28 27 25 25 27 29 28 31 39 41 44 47 52 55 57 58 56 49 48 56 54 47 47 42 36 42 65

GFSMW_prec_cthk_015.txt.gz
RH
32 33 32 29 22 18 21 28 31 31 31 28 30 32 32 33 34 36 38 40 42 43 44 43 42 40 39 38 39 38 39 39 40 40 38 37 37 37 40 41 41 41 43
31 32 27 21 22 25 29 32 33 32 29 29 30 30 31 31 33 35 37 38 37 36 37 38 38 37 36 36 35 33 30 28 29 35 37 39 35 37 40 40 38 41 42
28 25 24 25 29 33 34 34 32 32 31 30 28 28 29 30 31 34 36 37 38 38 37 37 36 34 30 27 26 26 27 27 28 29 35 38 38 35 31 32 34 35 38
27 27 29 31 34 37 37 35 34 32 30 28 26 27 28 32 36 38 38 37 36 35 34 32 29 28 28 29 30 30 30 30 31 30 31 32 33 36 30 31 31 31 34
29 30 32 35 38 38 38 36 34 30 28 26 29 32 35 37 39 39 38 36 35 32 30 31 31 31 31 31 30 30 30 29 29 30 31 31 32 36 38 32 35 35 37
32 33 34 36 38 38 37 36 33 32 30 32 35 38 40 41 40 38 35 32 31 31 31 32 32 30 27 25 24 23 21 21 21 22 24 30 34 39 43 42 35 35 33
32 34 36 38 38 38 38 36 36 35 35 37 40 41 43 41 38 34 33 32 33 33 31 28 25 23 21 20 19 19 18 18 17 17 19 23 26 28 30 34 33 37 31
35 35 37 39 40 39 39 40 40 40 41 42 44 46 45 41 37 35 34 34 31 28 25 22 22 21 20 19 18 17 17 17 17 18 19 20 19 20 24 31 38 42 42
36 37 40 40 42 44 45 46 46 43 44 46 47 47 42 38 37 36 33 32 30 27 24 23 21 20 19 19 18 19 19 19 19 19 18 19 20 24 30 36 50 53 56
37 39 42 45 48 51 51 49 47 47 50 48 44 40 40 39 38 37 35 33 30 28 23 22 22 22 21 20 20 20 19 18 19 19 20 22 24 27 32 37 43 51 57
42 46 49 52 55 52 49 50 53 51 46 44 43 43 41 40 40 36 33 30 28 25 24 24 22 22 21 20 20 20 19 20 20 20 22 27 28 26 25 28 33 36 38
48 52 54 54 52 50 54 54 51 49 48 46 45 43 42 42 39 37 32 29 27 25 24 23 23 22 21 21 20 18 16 15 16 19 23 22 23 23 25 27 31 37 41
51 51 49 50 55 56 52 50 51 50 48 48 46 45 45 44 39 37 33 28 26 26 24 23 22 22 21 18 15 15 15 15 15 18 19 18 19 19 21 24 28 34 37
51 47 52 56 54 51 51 51 50 50 50 47 47 47 48 43 37 33 28 27 26 25 23 22 21 19 16 16 16 14 13 14 17 19 19 19 21 22 26 31 34 39 40
46 54 52 47 49 52 50 49 50 50 49 48 50 50 45 39 33 30 29 28 26 24 22 19 17 17 17 15 14 15 16 18 18 18 19 21 23 27 34 40 38 42 40
53 56 50 52 50 49 49 49 50 50 51 51 49 40 41 36 31 30 29 26 23 20 18 18 18 16 15 15 15 17 22 23 23 21 21 24 28 33 37 37 39 46 54
61 54 49 46 46 47 49 50 51 52 51 48 43 40 38 36 31 29 25 21 19 20 20 19 17 17 16 16 18 26 25 25 25 27 29 28 35 40 38 37 45 44 43
51 42 41 42 46 49 50 52 54 52 50 48 43 40 39 33 28 23 20 21 22 22 20 18 18 17 17 19 22 26 26 26 29 33 32 36 39 39 43 47 53 41 33
39 36 40 46 48 50 52 55 55 53 50 44 42 39 32 26 22 21 23 24 22 20 19 19 19 18 19 21 25 29 30 27 31 33 37 42 37 43 51 61 52 41 35
33 37 42 46 49 52 53 54 54 50 46 43 40 31 24 22 23 24 25 23 21 20 20 19 19 20 21 21 26 33 32 32 34 38 42 39 42 48 59 64 57 44 39
38 43 46 50 53 55 55 55 53 50 45 40 30 25 24 24 25 26 25 22 22 21 20 19 20 22 24 25 27 34 35 39 43 44 40 40 43 57 55 57 54 51 51
43 47 49 52 55 56 56 54 51 47 40 29 26 25 25 27 28 26 23 24 22 22 22 20 21 25 27 28 30 35 38 44 49 49 45 49 51 49 47 50 55 50 49
47 49 50 53 58 56 51 50 48 39 30 27 26 26 28 29 27 23 23 23 23 24 23 25 29 29 28 30 33 36 43 50 51 51 52 53 46 45 46 51 52 48 43
47 49 52 57 55 53 52 48 36 30 28 27 27 30 30 27 24 24 25 25 25 26 30 33 36 36 34 34 36 44 50 53 54 55 51 48 47 50 52 50 47 45 43
48 50 54 53 53 51 46 33 30 28 28 29 32 32 29 26 24 25 27 26 29 33 37 38 43 42 40 40 47 52 53 57 59 56 51 50 52 51 50 48 45 41 53
49 53 53 55 52 41 32 30 28 29 31 34 33 30 27 25 27 27 25 29 31 37 39 40 45 44 44 44 48 52 57 61 58 58 58 55 57 57 51 46 41 57 75

GFSMW_prec_cthk_018.txt.gz
RH
32 31 30 29 29 29 29 25 23 26 32 39 40 37 38 39 40 39 39 40 41 40 38 36 36 36 36 35 34 34 31 30 30 29 30 29 31 36 34 43 41 37 38
32 32 31 30 30 28 23 23 27 32 36 37 36 36 36 36 34 32 32 32 34 35 35 35 35 35 35 33 30 28 28 30 31 31 30 29 28 29 33 27 27 31 30
32 33 32 30 27 23 24 31 35 36 36 36 36 35 31 29 29 32 34 35 36 37 37 38 37 33 29 28 27 28 28 29 28 29 31 33 32 29 26 27 27 30 32
32 33 32 26 26 28 32 35 38 38 37 35 34 31 29 31 33 36 38 40 40 39 36 34 31 29 28 27 25 23 21 24 23 22 22 24 26 30 27 28 28 28 30
33 34 34 30 31 35 36 39 40 38 36 33 31 32 33 36 39 41 41 40 37 35 33 30 27 25 22 20 18 18 17 20 21 21 22 23 23 25 29 25 25 25 25
35 37 34 32 35 37 38 39 39 37 34 33 34 35 38 42 45 45 42 39 35 31 28 26 24 21 20 19 18 17 17 17 17 20 23 25 26 27 27 23 20 22 23
35 35 35 35 37 38 39 38 38 37 37 37 37 42 46 47 46 42 38 34 31 30 29 27 26 22 20 19 18 18 18 18 17 18 23 24 22 22 22 26 25 27 25
37 36 38 38 39 40 39 39 40 41 41 40 44 48 48 45 41 36 33 32 32 30 27 24 22 20 19 19 19 19 18 20 21 21 23 24 23 24 27 34 35 33 34
38 38 39 40 40 41 41 43 46 45 44 47 49 48 44 40 38 37 35 33 33 30 25 23 22 22 21 20 20 19 20 20 22 22 21 19 19 20 21 25 27 32 28
38 38 40 42 44 46 47 50 50 48 51 50 47 45 43 43 40 38 37 35 32 29 26 25 23 22 21 20 20 21 20 19 17 18 18 17 16 18 22 20 21 25 33
41 42 45 49 50 52 53 52 51 54 48 47 47 47 46 44 41 40 39 35 31 27 25 24 23 22 22 22 20 17 17 18 17 16 16 16 22 22 22 23 24 25 30
44 47 51 52 53 52 52 54 56 50 49 49 50 49 47 44 43 42 39 33 28 26 26 24 24 23 21 18 17 17 16 17 17 16 17 19 24 22 25 26 27 36 38
47 50 55 54 54 54 58 55 50 49 50 51 51 49 48 45 45 38 31 29 28 27 26 24 23 20 19 18 16 16 17 17 17 19 21 25 27 27 28 30 36 38 40
50 53 56 55 54 59 53 50 50 51 52 52 50 48 46 45 40 33 31 30 28 26 24 23 21 21 19 15 16 16 18 18 20 24 28 29 29 29 29 34 38 41 41
54 58 56 54 62 57 54 55 52 51 53 51 48 47 47 43 38 34 32 30 26 25 24 23 23 19 16 16 15 15 19 20 23 29 29 30 30 30 33 41 42 44 41
61 60 52 61 65 60 57 50 51 53 52 50 50 49 44 40 37 33 29 27 25 25 25 24 20 17 17 15 14 16 22 23 30 30 30 32 34 36 37 42 44 45 51
55 52 59 68 60 55 49 49 52 53 53 53 52 47 43 38 34 30 27 26 26 26 25 21 18 17 16 16 16 23 24 32 32 33 34 33 36 40 43 43 44 52 55
53 57 62 59 49 45 46 50 54 56 55 53 50 43 39 35 31 28 26 26 28 26 22 20 18 18 18 19 24 25 28 34 34 38 39 39 41 44 45 44 47 56 52
59 62 53 46 42 45 50 54 56 55 51 51 45 41 36 32 29 26 27 29 27 23 20 19 20 19 20 23 26 29 35 35 34 37 40 42 45 46 49 56 58 56 47
60 47 40 38 44 50 53 55 55 52 52 49 43 38 33 29 27 28 30 28 23 21 20 20 20 22 23 26 30 38 38 35 35 36 44 47 49 50 53 61 55 51 45
44 36 37 43 47 52 55 54 52 53 52 47 39 33 29 27 29 31 29 23 21 20 21 21 23 26 28 30 34 40 39 40 38 43 45 48 54 56 54 56 57 56 53
34 37 43 47 50 53 54 52 53 51 48 39 32 29 27 30 32 28 24 22 23 22 23 24 26 32 36 36 38 41 40 44 47 46 48 54 57 55 59 59 57 56 58
39 43 46 49 51 54 52 51 50 49 37 31 28 28 31 32 30 26 23 25 25 26 27 28 31 37 40 42 42 41 41 44 47 51 56 58 58 57 55 58 57 56 51
42 44 47 50 51 53 51 50 49 33 29 27 30 33 34 31 28 25 27 28 29 29 30 32 36 39 43 43 42 41 43 46 48 56 58 55 59 59 57 56 53 51 62
43 45 47 51 53 50 50 44 29 27 28 32 35 36 33 30 27 28 30 30 30 31 36 37 39 42 44 43 45 47 48 49 55 60 54 57 58 57 56 52 51 59 74
43 47 53 52 51 47 34 27 27 29 33 36 38 35 32 30 30 30 30 31 33 37 40 41 41 44 47 45 45 46 49 53 59 57 59 61 60 57 53 53 59 76 96

GFSMW_prec_cthk_021.txt.gz
RH
29 31 33 35 34 34 33 34 34 35 37 36 36 41 46 46 45 45 44 42 37 36 35 34 34 34 36 38 37 35 31 27 27 26 25 24 23 26 28 29 34 33 30
30 32 35 35 34 33 31 31 32 33 32 33 38 42 43 42 38 36 34 31 30 31 35 38 40 40 39 35 29 26 24 24 24 23 22 22 20 23 21 19 19 20 24
32 31 33 34 33 31 30 28 27 25 34 36 39 39 37 37 35 32 30 33 37 41 42 41 37 33 28 26 22 20 19 20 19 21 21 23 23 20 20 19 23 25 21
31 33 33 34 33 30 28 26 28 30 35 39 40 39 36 34 31 33 36 39 42 42 40 36 31 28 25 21 20 19 18 19 20 19 20 20 22 26 25 23 19 19 18
30 35 34 34 34 32 28 30 33 35 38 38 36 34 33 33 35 37 41 45 42 38 33 30 28 24 22 21 19 18 18 18 21 20 20 20 21 22 21 21 21 20 19
32 35 34 35 34 34 32 35 37 39 38 37 36 35 36 38 41 45 44 41 35 30 27 26 24 22 20 20 20 20 19 19 19 19 19 22 25 24 22 20 18 19 19
34 35 35 36 38 35 36 38 39 39 39 38 39 38 39 44 48 45 39 34 30 30 29 27 25 22 22 22 21 21 20 20 21 20 22 19 19 20 19 20 19 21 20
34 34 35 36 37 39 40 40 40 40 41 43 41 41 48 50 45 40 37 35 33 32 31 27 26 24 24 23 22 22 22 22 21 19 19 18 18 16 17 19 23 21 18
36 38 37 37 39 41 41 42 41 43 46 44 47 50 47 44 42 41 40 37 35 34 31 27 26 24 24 23 23 22 20 19 19 18 16 16 15 16 16 21 22 25 23
38 39 39 38 38 41 43 45 46 49 48 50 51 46 44 43 44 43 40 36 34 30 27 26 26 25 25 24 21 20 20 20 17 17 16 16 16 17 19 22 24 25 28
40 43 42 41 43 46 48 50 50 50 52 53 48 46 46 46 45 44 39 35 30 27 27 27 27 26 23 21 22 22 20 18 17 17 18 19 20 22 23 25 25 28 36
43 46 47 46 46 50 51 51 53 56 53 50 47 47 48 48 46 42 39 32 29 28 28 28 25 23 23 24 24 21 18 17 17 18 19 22 24 25 28 28 30 37 38
45 46 48 48 50 53 54 54 58 54 50 49 49 51 51 48 46 43 36 31 30 30 28 25 24 25 26 25 22 19 17 17 17 18 22 24 28 29 30 34 37 36 40
46 48 50 50 52 54 55 56 61 55 56 55 53 51 51 50 45 40 35 32 31 28 26 26 27 28 27 22 19 17 16 17 18 20 24 30 32 33 35 37 41 43 45
44 47 49 53 57 58 55 62 62 59 57 54 52 53 53 48 43 38 33 31 29 27 27 28 30 27 21 17 16 17 18 19 21 23 30 33 34 37 43 45 46 47 50
47 50 55 61 62 57 60 67 60 57 54 53 55 55 51 45 39 34 32 30 29 28 30 30 26 21 17 17 18 20 21 23 25 32 33 34 34 39 42 44 44 53 57
48 56 62 63 59 59 64 62 56 53 52 55 56 53 48 40 36 33 31 30 30 30 29 25 20 18 18 19 20 22 25 26 33 34 35 36 38 43 43 43 47 53 58
54 60 61 61 60 65 61 53 50 51 55 56 53 49 43 38 34 31 31 29 30 29 24 21 19 19 19 21 23 25 27 32 36 38 42 44 42 42 48 53 55 57 60
57 60 60 62 67 58 50 50 52 55 56 53 49 45 40 35 32 29 28 30 28 23 21 20 20 20 22 24 27 30 35 37 39 43 46 47 48 47 52 60 62 56 50
59 61 63 64 56 46 46 51 55 55 52 50 46 42 37 32 27 27 29 28 24 21 21 21 22 23 24 28 32 39 41 41 42 42 45 48 47 49 61 65 63 59 55
63 64 55 50 42 42 48 52 54 51 47 46 46 38 30 25 27 30 28 24 22 23 23 23 23 25 29 34 39 43 46 50 48 48 46 45 47 60 63 63 64 61 61
56 50 43 38 42 47 50 50 47 45 48 48 36 27 25 28 30 29 26 24 25 25 24 24 25 28 33 36 38 44 48 52 53 50 47 46 57 60 59 63 62 61 60
40 36 39 42 45 48 49 44 46 51 47 31 25 26 29 31 31 28 27 27 27 26 25 26 28 31 34 36 42 44 44 48 50 49 49 52 57 55 59 57 61 57 56
37 40 41 43 45 46 46 49 50 44 28 25 27 30 33 33 31 30 29 28 27 28 29 30 32 35 37 39 41 43 47 49 46 48 52 54 56 60 58 55 53 57 72
40 40 41 43 44 49 50 47 36 26 26 28 31 35 36 35 33 31 30 29 30 33 35 36 37 39 39 41 46 51 49 48 51 54 56 56 58 58 54 52 56 74 94
39 41 43 47 50 47 43 31 26 26 29 32 36 38 39 37 33 31 30 31 33 33 34 36 43 44 46 46 47 47 48 54 58 60 59 60 62 56 53 60 84 98 98

GFSMW_prec_cthk_024.txt.gz
RH
33 28 28 28 31 36 37 37 35 35 36 38 39 40 40 40 46 49 47 43 39 34 29 28 31 35 38 38 36 30 26 23 19 16 15 15 17 17 17 22 21 20 20
33 29 31 32 35 37 39 38 38 37 37 37 36 36 39 43 44 40 36 33 32 31 33 34 37 38 37 34 29 24 21 18 18 19 17 17 16 20 16 16 15 17 18
36 31 32 33 35 37 36 36 36 35 36 34 31 32 36 39 38 35 35 34 34 35 36 37 38 36 30 25 21 19 18 17 17 18 19 21 21 18 18 17 18 19 15
38 31 33 33 33 34 33 34 33 33 30 31 33 36 37 37 36 36 35 36 38 38 37 36 31 26 23 21 20 18 18 18 18 18 19 19 20 23 23 21 16 14 13
41 37 33 33 33 34 34 34 34 33 33 36 38 37 37 36 36 37 39 39 41 40 35 28 25 23 22 21 20 20 20 20 20 20 20 20 19 18 20 20 18 16 14
41 38 33 34 35 35 35 35 35 35 35 36 37 38 37 38 40 40 42 43 41 34 29 28 28 25 22 21 22 22 22 22 21 21 20 19 21 19 18 19 17 16 15
42 39 34 35 37 36 35 36 37 37 37 38 39 39 41 41 41 44 46 41 37 34 31 30 25 23 23 24 24 24 23 22 20 19 19 19 18 17 19 19 18 19 17
40 37 34 36 36 36 37 39 39 39 40 40 42 45 43 42 47 45 41 39 38 36 31 26 24 24 25 25 24 24 21 20 21 21 18 17 17 18 19 19 22 19 20
37 38 36 36 36 38 39 40 41 41 41 43 46 44 45 50 44 42 41 41 39 34 28 25 25 26 26 25 23 21 21 22 21 19 17 17 17 17 18 19 21 26 25
38 39 40 39 39 39 40 41 42 44 45 48 46 48 53 46 43 43 43 42 38 31 25 26 27 27 26 24 22 22 23 21 19 17 15 16 16 17 18 21 24 27 31
39 40 42 42 40 40 42 44 47 48 48 47 52 55 48 46 44 45 46 43 34 28 26 27 27 26 24 24 24 24 22 20 17 15 14 15 16 17 20 23 27 31 35
40 42 44 45 45 45 46 48 50 50 50 53 58 51 49 47 49 50 46 39 33 28 28 27 26 25 26 26 25 22 19 16 14 13 14 15 17 19 24 29 31 35 38
44 44 46 48 47 47 49 51 53 53 54 60 59 54 54 54 51 48 44 37 30 28 28 27 27 27 27 24 21 17 16 15 14 14 15 17 21 26 31 33 38 39 43
45 46 48 50 50 50 49 51 55 56 57 65 61 57 55 53 51 48 41 32 29 28 29 27 28 27 23 20 17 17 17 17 18 18 18 23 28 33 36 41 45 48 52
48 49 50 52 51 50 51 56 61 58 63 68 60 56 56 54 50 44 35 30 29 30 28 28 26 22 20 18 18 18 19 20 20 20 23 28 35 38 46 49 50 53 52
51 50 50 51 52 53 58 61 61 60 67 63 57 56 54 52 48 38 31 30 30 28 27 24 22 19 18 17 20 22 23 22 23 24 28 34 38 40 47 49 49 54 60
54 51 54 55 56 61 63 61 59 68 64 57 57 55 52 49 40 32 32 31 28 27 24 21 18 18 18 19 21 22 24 25 28 33 36 37 40 44 46 46 50 55 56
49 48 52 55 61 64 61 62 69 63 57 56 53 53 50 41 33 33 31 28 27 24 21 19 19 19 19 20 21 24 28 31 35 38 41 44 44 48 51 52 54 53 56
49 52 56 62 62 62 64 66 60 56 54 52 52 49 41 36 34 29 27 28 25 22 20 20 19 19 19 20 24 33 36 37 37 41 47 52 50 50 54 58 57 57 56
57 58 59 62 66 68 65 55 52 51 51 50 48 42 38 34 28 28 29 26 23 22 21 20 20 20 21 23 29 37 39 40 43 44 48 48 50 48 56 60 60 61 58
62 66 64 63 62 55 51 47 48 49 48 46 44 41 33 27 29 30 29 26 23 22 21 21 21 22 24 26 30 38 42 51 50 49 44 41 46 56 60 60 64 64 62
58 59 60 55 49 44 44 47 47 46 45 47 41 31 27 30 31 31 29 25 24 23 23 23 23 24 26 29 31 40 46 51 51 49 43 45 55 58 61 64 64 61 59
61 56 48 39 40 44 46 47 45 45 48 38 28 26 30 32 33 32 28 25 26 26 26 26 26 27 29 30 34 41 44 47 48 47 53 57 60 61 59 60 58 59 71
39 35 37 40 43 45 46 44 46 46 36 27 27 30 32 33 34 32 28 28 28 28 28 29 30 31 32 34 37 45 44 45 46 52 58 57 58 60 60 52 58 82 99
39 41 41 41 43 44 44 47 45 33 26 28 30 32 34 35 35 32 30 30 30 32 32 33 35 37 37 39 45 45 47 51 56 59 57 55 58 56 51 65 93 98 98
44 41 41 41 42 46 46 43 32 27 28 30 32 35 37 38 37 32 30 31 31 31 33 34 39 38 42 45 45 47 51 56 59 59 58 62 59 54 77 97 97 98 98

GFSMW_prec_cthk_027.txt.gz
RH
36 38 33 28 27 29 31 36 37 37 39 40 42 44 44 47 47 50 52 50 43 36 34 35 34 34 34 33 32 30 25 21 18 18 17 16 16 15 17 17 16 16 15
36 40 37 31 31 33 34 34 39 40 40 40 41 43 44 42 42 44 41 37 36 37 37 35 35 34 31 28 26 22 20 19 18 18 17 17 16 18 16 17 16 15 16
35 39 40 32 33 37 39 41 43 42 39 39 40 39 36 36 37 36 37 39 39 37 36 35 34 32 29 25 21 20 19 18 18 18 20 21 21 18 18 16 17 18 15
39 42 40 32 32 38 41 44 44 41 40 38 36 33 33 35 36 38 40 40 39 38 39 38 34 28 24 21 20 20 20 20 21 21 21 21 21 21 21 19 15 15 15
38 40 40 34 31 35 38 39 38 39 36 35 36 35 36 37 39 41 41 42 42 42 40 36 29 25 22 21 21 22 22 22 22 22 21 19 19 19 22 20 17 16 15
37 38 42 42 35 33 35 36 37 37 37 39 41 38 39 41 42 42 43 42 40 40 38 33 27 23 22 23 23 23 23 23 22 21 20 21 21 20 19 18 17 18 17
37 39 43 43 36 33 34 37 37 38 39 41 42 41 42 44 45 45 45 43 42 40 37 30 25 24 23 23 23 23 23 22 21 22 21 21 20 19 17 18 17 18 17
39 41 42 42 37 33 34 37 37 39 41 42 43 44 45 47 47 47 46 45 43 40 35 29 25 24 24 23 23 22 22 23 23 22 21 20 17 14 14 16 18 17 15
38 39 43 39 36 34 35 36 38 41 43 44 46 47 49 48 48 51 48 45 43 40 35 28 26 25 23 22 23 24 25 24 23 21 18 15 13 11 12 14 16 22 24
37 38 39 38 37 37 38 40 42 43 44 46 50 52 49 50 57 53 49 46 44 42 34 27 25 23 23 24 25 26 24 22 18 15 14 13 11 11 12 16 19 22 27
39 38 40 41 42 41 41 41 42 45 49 52 54 51 51 60 61 54 49 49 48 38 29 26 24 24 25 27 26 23 20 17 14 13 13 13 13 14 16 18 23 28 34
40 41 43 44 45 44 44 45 48 51 53 54 55 57 58 65 61 54 52 50 41 34 27 25 25 27 29 26 22 19 15 14 14 15 16 15 14 16 20 23 28 32 34
42 42 43 46 46 47 48 49 50 52 56 57 58 58 61 68 63 56 52 46 38 29 26 26 29 29 25 22 17 15 16 17 18 18 18 17 18 21 25 30 34 38 45
44 44 46 48 49 50 50 52 54 55 57 60 64 64 68 70 58 56 51 42 31 27 27 30 29 25 21 17 15 17 18 19 18 18 20 21 23 27 34 36 43 48 47
49 49 51 54 55 53 53 56 56 57 60 68 68 66 73 62 59 55 43 32 29 28 32 30 25 20 17 16 18 19 20 19 20 21 24 25 30 35 38 46 44 47 48
57 58 57 58 58 55 54 54 57 63 71 70 66 75 65 60 56 42 34 29 29 33 30 25 20 18 17 17 18 20 20 21 24 27 29 30 34 35 38 42 49 52 59
55 55 57 58 58 58 58 58 64 71 69 70 77 67 62 55 45 35 29 31 34 30 26 21 19 19 17 16 20 21 24 27 30 32 32 33 34 39 42 40 48 48 55
57 56 53 55 56 57 58 65 70 68 71 77 67 60 55 47 35 29 33 34 30 27 23 21 19 18 18 19 23 24 29 32 32 34 36 36 38 42 47 47 50 56 57
59 62 59 54 55 60 69 70 71 75 75 63 57 52 48 36 31 35 34 31 28 25 22 20 19 19 20 22 26 31 31 30 33 33 34 42 42 43 48 57 60 58 57
61 63 64 64 67 69 75 73 72 66 60 53 50 47 36 34 36 33 32 31 27 23 22 21 21 22 23 24 29 34 37 35 31 30 33 37 44 50 60 64 61 61 57
62 63 68 72 72 70 69 67 61 54 50 49 45 38 36 35 34 33 32 29 26 24 23 22 22 24 26 26 31 35 39 40 41 38 37 40 50 61 60 61 62 61 59
68 70 70 66 67 67 59 50 49 48 48 44 39 37 33 34 34 33 32 29 26 25 24 23 25 27 28 30 30 36 38 45 45 45 45 52 58 59 58 58 57 61 83
62 63 68 64 53 42 44 47 48 46 43 42 36 32 33 34 35 34 33 30 28 26 24 26 28 29 29 29 30 34 40 43 45 50 55 55 56 56 53 52 70 94 96
61 54 46 40 41 46 48 47 44 43 42 33 32 33 34 35 36 36 34 31 29 26 29 30 30 29 30 30 34 39 39 42 47 53 51 54 57 55 53 78 95 98 98
43 42 42 45 47 47 46 43 45 41 33 32 32 34 35 36 37 37 34 32 29 30 32 32 32 32 29 31 39 43 45 49 54 54 53 55 52 50 86 94 97 98 98
42 43 45 45 46 45 44 46 40 33 32 33 34 35 36 38 38 36 34 31 30 30 31 33 32 30 34 37 37 43 46 52 53 54 58 54 59 90 96 96 96 97 98

GFSMW_prec_cthk_030.txt.gz
RH
40 36 36 39 34 27 25 27 30 36 41 45 48 56 54 51 50 52 50 52 50 40 38 38 39 37 32 31 29 24 19 18 18 19 19 18 18 17 19 18 17 16 16
42 38 36 38 38 32 29 28 29 33 39 43 48 52 52 52 53 51 46 39 37 38 39 39 37 35 34 30 22 18 19 20 20 19 19 18 18 19 19 18 17 16 16
42 39 35 38 41 34 31 32 35 38 40 45 49 50 53 53 48 40 35 37 40 41 41 40 40 37 30 22 22 21 21 20 20 20 21 20 22 19 19 17 18 18 17
42 39 36 39 44 39 35 35 38 43 47 47 48 46 46 43 38 35 38 40 42 43 43 41 38 30 24 22 22 22 22 21 21 20 21 21 21 21 20 20 19 18 17
42 39 37 43 46 42 35 38 40 43 44 44 41 41 39 39 40 41 42 43 44 44 42 38 33 27 24 23 23 23 22 21 22 21 20 20 21 21 24 22 19 16 14
43 39 40 46 49 48 43 39 40 42 42 39 37 38 40 42 45 45 45 46 46 44 41 37 33 27 25 24 24 23 22 21 20 20 22 22 23 22 21 19 17 16 13
43 40 41 45 48 52 49 43 39 38 37 37 38 41 44 47 47 47 48 47 47 45 42 38 33 27 25 24 24 23 21 20 22 23 24 22 21 19 16 13 12 14 13
43 42 43 45 48 49 48 40 34 37 39 39 41 44 47 48 49 49 49 50 49 48 43 38 31 27 26 25 23 22 22 24 25 24 21 18 16 14 12 12 13 14 14
43 44 45 46 48 48 47 40 36 39 40 40 43 46 49 51 52 52 51 54 56 50 44 36 32 30 27 25 23 23 25 26 24 20 17 15 13 13 12 12 14 19 19
48 48 48 48 48 49 44 40 39 39 41 43 46 48 51 56 56 53 56 63 60 50 41 36 32 29 28 24 24 27 26 23 19 16 15 14 15 14 13 14 16 19 24
46 46 46 46 45 43 40 39 41 42 44 46 49 54 58 61 58 58 62 69 60 49 42 35 31 30 25 26 28 26 22 18 16 16 16 17 17 16 16 16 19 22 27
46 44 44 44 43 42 43 45 44 45 48 51 56 58 61 63 63 66 67 70 57 44 38 34 31 27 29 28 26 21 18 16 16 17 18 18 18 19 18 20 23 26 29
49 48 47 46 46 46 45 46 47 48 52 56 59 62 64 66 71 69 70 63 47 40 36 29 29 29 29 26 22 18 16 16 18 19 20 21 22 21 22 26 30 34 38
47 47 47 48 48 47 47 49 51 54 57 60 63 64 66 73 75 69 69 52 43 36 31 32 29 31 26 22 18 16 17 18 20 21 22 23 26 26 30 35 38 45 44
50 49 49 50 51 53 54 56 58 59 61 62 62 66 75 77 71 75 58 47 36 33 32 31 33 27 23 19 17 19 20 20 21 22 24 27 29 32 36 43 43 44 44
55 56 56 57 58 61 63 62 62 63 61 63 67 76 79 75 77 63 48 37 33 33 34 34 27 24 20 18 19 22 22 22 24 25 27 27 30 32 34 35 41 45 53
61 60 59 62 63 65 66 63 63 64 64 66 79 81 79 80 65 49 38 36 33 37 34 28 25 22 20 19 19 22 23 24 26 27 28 29 31 31 32 33 43 44 57
65 63 59 60 62 66 66 66 64 62 70 80 81 82 81 65 50 38 34 33 39 35 30 26 23 22 20 20 20 21 24 26 26 28 30 34 31 33 40 47 50 57 51
62 62 64 68 70 64 61 61 67 78 79 82 82 76 63 46 36 34 35 40 36 31 28 26 24 22 21 22 22 28 27 27 27 29 33 36 35 38 50 58 54 51 49
63 67 68 69 71 69 70 76 79 80 78 78 69 55 45 37 33 36 41 37 33 30 28 26 24 23 23 23 25 31 34 33 28 30 31 34 41 50 54 56 56 50 47
68 69 69 69 71 76 79 76 73 76 71 56 50 45 36 33 38 40 37 34 33 30 28 25 23 23 24 25 28 34 37 35 35 33 33 36 46 54 55 56 52 57 83
66 69 73 74 76 76 73 74 69 53 49 49 44 36 33 39 40 38 37 35 33 30 26 24 23 24 25 26 26 35 35 43 40 39 38 45 50 54 54 48 66 90 93
73 73 72 70 72 74 62 49 48 51 49 45 35 33 38 40 38 38 37 35 32 28 26 24 25 25 25 25 27 34 34 37 44 39 46 49 52 50 43 70 90 92 92
69 70 68 62 52 46 47 50 49 48 43 34 34 38 39 38 39 39 37 34 30 27 26 26 26 26 26 26 31 33 33 40 40 44 45 49 49 45 75 87 89 92 95
54 50 46 43 43 46 49 49 45 40 37 35 37 38 37 39 39 37 35 33 29 27 28 28 28 28 26 29 34 35 40 43 44 46 46 46 49 74 89 90 92 94 96
44 43 42 45 48 50 47 42 42 38 35 38 37 37 38 39 38 37 36 32 28 27 26 25 27 26 28 27 34 37 41 43 46 45 48 54 75 89 92 93 94 95 96

GFSMW_prec_cthk_033.txt.gz
RH
38 42 42 39 37 39 40 33 32 37 43 54 56 58 62 64 66 61 59 55 53 49 35 35 38 38 37 36 32 26 20 17 17 18 20 20 20 19 19 20 19 18 18
36 40 44 40 37 41 42 37 31 32 36 41 49 55 60 61 60 57 53 57 45 34 37 40 40 41 39 32 24 19 18 19 20 21 21 20 19 19 20 18 19 18 18
34 39 43 42 38 40 43 39 33 32 33 37 46 53 56 59 61 57 55 46 36 39 42 43 44 40 33 25 19 18 20 22 23 22 22 20 20 20 20 20 20 20 20
33 37 42 43 40 41 45 42 36 36 38 41 44 48 53 56 58 55 45 40 43 45 45 46 43 36 29 23 20 22 24 24 22 21 20 22 23 23 22 21 21 20 19
32 34 42 45 43 44 47 47 43 43 42 47 51 53 55 56 51 42 41 45 48 48 48 46 40 35 28 23 23 25 25 23 21 22 23 23 24 24 26 24 21 16 13
32 35 43 46 45 45 51 51 48 45 47 48 48 48 47 44 40 41 45 49 51 50 48 45 43 36 29 26 26 25 23 24 26 25 25 25 24 25 24 22 18 16 12
33 35 42 48 46 49 57 57 54 49 46 44 43 43 41 40 43 46 49 52 52 51 50 50 44 37 30 28 25 26 28 27 27 26 25 25 25 22 19 17 14 15 12
35 37 46 49 46 50 57 60 60 56 47 41 40 40 41 45 47 50 52 54 52 51 53 53 46 38 31 28 28 29 28 28 26 25 26 24 21 18 17 17 16 15 15
38 41 49 49 48 51 56 60 62 59 48 40 41 42 44 48 50 54 56 55 55 53 53 54 48 38 33 30 30 31 30 26 26 26 24 20 18 17 16 16 17 20 21
43 46 52 51 50 53 58 61 60 53 46 43 43 44 48 51 54 57 59 61 57 57 55 56 47 35 31 32 33 30 26 27 26 24 20 17 17 18 18 18 19 20 23
51 53 52 51 54 55 56 57 55 51 47 45 46 47 51 54 58 61 64 64 62 61 57 55 38 32 37 34 30 28 27 28 23 19 18 18 19 20 20 21 22 24 28
56 54 54 55 57 56 56 56 52 47 47 48 49 52 56 58 63 66 68 66 66 63 56 46 35 39 34 31 29 29 28 23 19 18 19 20 21 22 23 24 25 26 27
57 54 54 55 55 52 51 50 47 48 50 52 53 55 60 64 68 69 68 71 70 59 55 39 40 34 32 30 30 29 23 20 20 21 21 22 23 24 25 26 27 30 33
59 53 51 51 51 51 49 48 49 51 52 53 57 62 65 68 68 69 73 75 65 61 45 39 35 33 31 32 29 23 21 21 22 22 23 23 25 25 27 30 33 34 33
59 56 54 53 53 52 51 51 52 54 56 59 63 66 68 67 70 74 80 72 66 51 38 36 33 31 34 29 24 22 22 23 22 23 23 23 23 25 30 33 31 34 40
56 55 53 54 55 56 56 57 58 60 62 64 67 69 68 69 77 83 79 70 53 39 35 33 33 35 30 24 23 22 23 23 23 22 22 22 22 25 29 31 34 43 47
56 58 60 62 62 63 63 64 65 67 68 69 69 68 70 81 85 81 72 53 37 35 34 34 36 31 26 24 22 22 26 23 23 23 23 23 27 28 28 31 39 46 52
66 67 68 68 67 67 68 70 70 70 70 67 66 74 85 86 82 71 49 36 36 35 37 38 32 28 26 23 22 23 22 23 24 24 26 30 28 31 36 43 47 44 45
70 70 70 69 69 70 71 72 72 66 64 70 81 85 85 80 67 42 37 36 36 40 38 33 30 27 24 23 21 21 23 24 24 26 31 32 35 36 45 48 49 46 41
69 68 70 72 75 78 77 74 70 70 78 82 82 81 77 52 41 37 36 37 42 39 34 33 28 25 23 22 20 26 25 25 27 30 30 34 37 40 48 53 49 45 61
68 69 72 75 76 76 75 76 80 82 81 80 78 60 47 42 37 35 39 42 39 37 35 30 26 24 23 21 21 26 28 31 32 29 31 33 38 43 48 49 48 74 85
69 71 72 72 75 78 79 80 78 76 76 59 51 50 43 36 35 41 41 40 39 36 31 28 25 23 22 21 21 27 33 33 32 33 34 37 42 46 45 48 78 87 88
67 71 75 78 78 76 75 77 71 55 52 53 49 42 33 37 41 41 42 40 37 33 29 26 23 22 21 21 23 27 32 33 35 37 40 41 42 42 49 77 87 87 87
72 74 74 73 70 68 60 51 52 52 52 48 38 33 38 40 41 42 41 38 35 31 27 24 24 21 21 22 26 31 32 34 38 40 39 39 43 52 75 84 86 88 90
66 62 61 59 53 49 49 52 53 51 44 37 37 37 39 41 42 41 40 38 34 28 26 25 24 24 24 25 33 34 34 37 40 41 38 41 52 74 85 87 86 89 90
53 50 49 48 47 50 52 52 47 42 41 37 36 40 41 42 41 40 40 36 30 26 25 23 23 23 24 26 26 33 36 41 39 39 42 54 73 85 87 85 87 85 79

GFSMW_prec_cthk_036.txt.gz
RH
33 35 37 37 43 39 37 36 40 39 32 40 51 63 72 74 70 72 73 64 66 59 56 39 34 37 39 41 37 30 23 18 17 17 18 19 20 20 20 20 20 20 19
31 32 34 36 40 42 39 37 41 43 37 39 47 56 67 71 68 73 72 62 62 58 43 38 38 41 42 38 33 25 20 18 18 19 20 21 20 21 21 19 19 21 22
30 33 36 38 38 43 41 39 42 42 41 41 46 52 58 65 66 65 66 63 59 47 41 43 44 45 42 37 30 23 20 20 20 20 21 21 21 20 20 21 22 22 22
29 31 37 36 39 43 43 42 43 42 41 40 43 47 53 59 61 60 67 61 51 42 44 45 48 47 43 36 30 25 21 21 22 22 22 23 24 24 22 23 23 22 21
26 29 34 35 39 44 44 45 45 44 43 43 46 48 53 58 59 61 61 53 44 45 47 49 50 48 44 40 33 25 23 23 24 24 25 26 26 25 26 25 23 21 18
26 28 31 36 40 46 48 46 48 46 45 46 50 52 57 61 61 60 53 46 46 49 52 52 51 48 46 44 34 27 26 26 27 27 27 27 27 28 27 26 23 21 17
28 28 31 34 38 47 50 49 52 50 49 52 54 59 60 58 55 50 45 47 50 53 54 54 51 48 49 47 36 30 31 29 28 30 29 28 27 27 26 25 21 19 16
32 30 31 34 40 50 52 51 56 58 55 59 58 56 53 50 45 44 47 50 53 55 58 57 54 52 51 46 36 32 30 31 33 30 29 28 28 27 25 22 21 19 17
34 35 36 36 43 54 56 55 63 65 64 65 59 51 46 42 43 47 50 53 56 60 62 62 58 57 52 42 34 31 33 34 30 29 28 28 27 24 22 21 22 23 22
38 38 40 41 48 60 59 59 66 66 66 64 57 50 45 44 46 50 54 57 61 63 65 65 61 59 47 39 33 36 35 32 30 28 28 26 23 22 22 23 24 26 26
42 44 45 45 56 64 62 62 67 67 67 61 55 51 47 48 51 54 58 62 63 66 68 65 63 53 44 38 37 35 32 30 28 29 26 22 22 22 23 25 26 26 27
44 48 49 55 64 67 66 66 68 67 66 57 57 50 48 52 55 59 63 65 68 69 67 67 61 50 45 39 36 32 29 29 29 26 23 22 22 22 24 24 24 24 24
58 58 58 62 68 68 67 68 67 65 61 60 51 50 53 58 61 63 68 70 70 68 70 67 58 52 41 35 31 30 30 30 27 24 23 21 22 22 21 22 24 26 29
68 67 63 65 66 68 68 66 64 63 58 52 51 56 59 61 66 70 71 70 70 71 72 65 55 42 34 32 31 31 30 26 24 22 21 20 19 19 22 25 29 31 30
69 67 66 64 64 65 63 60 57 55 53 54 57 59 62 68 71 74 73 69 74 77 69 58 43 34 34 33 32 31 27 25 22 21 21 21 20 22 26 30 31 33 34
74 69 63 59 58 58 56 56 56 55 56 58 62 65 69 74 77 74 70 77 80 71 58 42 35 35 34 35 32 27 25 22 23 22 21 20 20 22 24 27 34 39 45
71 69 66 61 61 60 59 58 57 59 62 66 69 72 75 77 72 72 82 82 72 56 38 36 36 37 36 32 28 24 23 24 22 21 21 21 23 23 25 28 34 44 48
70 67 64 62 62 63 64 64 65 67 70 72 74 76 74 72 79 86 81 73 50 37 38 37 38 37 33 29 25 23 22 23 22 22 22 24 23 28 34 37 43 40 40
66 66 69 70 71 70 68 69 71 74 75 76 74 71 77 86 85 80 67 42 39 39 38 40 38 35 30 25 23 22 24 23 22 22 25 29 32 34 39 45 41 41 37
74 77 78 79 78 75 75 76 77 80 78 74 75 85 86 83 75 54 42 40 37 40 41 40 37 31 26 24 22 24 25 24 23 25 27 30 35 38 41 42 44 43 67
76 77 78 76 77 80 82 82 82 79 80 86 85 82 78 62 49 43 39 37 42 42 41 38 33 28 25 23 21 21 26 25 30 30 30 32 37 40 41 46 45 73 81
74 75 75 78 81 83 82 81 84 85 83 79 77 62 54 49 42 35 38 43 42 42 39 34 29 26 24 22 20 21 25 29 33 33 33 35 39 37 41 44 75 83 83
75 75 75 75 79 85 85 81 80 79 70 56 56 53 48 38 35 41 41 43 43 40 35 29 27 24 22 20 18 21 25 32 32 34 37 37 36 38 42 74 83 83 81
73 76 79 81 80 79 77 71 63 53 55 56 54 44 36 39 40 41 43 44 42 37 31 28 25 22 20 18 22 28 29 31 33 35 34 33 37 44 73 83 83 80 83
79 80 78 71 67 63 58 55 55 56 56 51 40 38 39 38 41 43 44 43 39 33 29 26 23 22 20 23 29 32 32 34 36 37 32 35 46 71 85 83 78 81 78
67 63 61 56 53 52 53 53 54 52 46 42 41 38 39 41 43 45 45 42 35 30 26 24 22 20 20 24 25 28 34 34 34 33 35 49 70 82 78 73 79 78 77

GFSMW_prec_cthk_039.txt.gz
RH
30 33 32 36 38 39 41 45 42 38 38 40 39 42 51 63 71 76 80 82 80 74 69 61 52 39 41 41 39 37 33 27 22 19 17 18 19 17 19 20 21 20 20
29 31 32 34 37 38 38 42 44 41 41 41 42 41 49 60 74 81 81 84 82 71 65 56 42 43 45 45 44 40 34 26 21 19 19 19 19 21 21 21 21 21 21
24 26 31 32 33 36 36 40 45 44 42 44 45 47 51 62 71 78 82 83 78 64 59 48 45 46 48 48 46 43 36 26 21 21 21 20 21 21 22 22 23 23 23
23 23 26 32 33 33 35 40 44 46 45 47 47 49 48 57 63 65 72 75 70 62 53 47 48 50 50 49 47 44 36 29 25 23 22 22 22 22 23 24 26 26 26
24 23 24 28 32 34 36 40 44 47 46 49 50 52 53 58 64 70 69 68 69 56 50 50 51 52 52 51 47 41 37 33 27 26 26 26 25 24 26 26 27 26 24
25 25 25 28 33 37 38 42 45 47 49 48 50 53 55 60 61 64 68 61 65 54 49 52 54 55 55 54 48 44 39 33 29 28 27 26 28 29 28 30 28 27 24
25 27 32 31 34 39 40 42 46 49 52 50 50 54 59 62 62 67 69 69 56 49 52 55 57 58 60 57 52 47 40 33 29 29 29 30 30 28 28 27 28 26 23
30 30 31 34 36 39 39 42 50 54 56 54 53 57 62 63 68 66 62 57 50 52 56 58 60 63 62 60 53 47 39 32 31 31 32 31 29 27 27 27 26 24 23
33 29 37 36 38 39 41 46 53 57 60 60 57 63 66 69 64 58 51 47 52 56 58 61 64 64 63 60 52 47 37 35 33 34 32 28 27 27 26 26 26 27 23
30 34 34 38 39 42 43 47 54 59 66 67 67 71 72 67 62 53 49 52 56 59 62 65 65 66 64 56 53 42 39 38 36 31 28 28 27 26 26 24 23 22 23
32 32 41 40 41 43 47 54 60 64 69 72 73 71 66 63 58 55 54 57 61 64 66 67 69 67 60 56 49 46 40 37 29 29 29 28 27 26 23 22 20 19 20
36 38 42 46 46 49 54 61 68 71 72 75 72 67 63 59 61 58 58 62 64 67 70 71 69 63 59 54 52 43 38 30 30 29 29 28 25 23 20 18 17 19 22
46 45 48 50 55 58 63 70 75 73 73 75 70 65 62 64 63 59 64 66 68 72 74 72 67 62 59 55 44 38 32 32 30 30 28 26 23 21 19 19 22 23 26
51 53 51 56 62 65 70 78 77 77 77 74 70 65 66 66 61 65 68 71 74 77 76 70 65 63 58 47 37 33 33 31 30 28 26 24 22 21 21 25 29 31 31
65 68 64 64 69 73 79 81 82 80 77 72 68 68 64 62 66 71 75 78 80 79 71 69 68 61 47 36 35 34 32 31 29 26 24 23 21 21 26 30 32 32 32
78 71 73 75 77 79 82 83 81 78 73 71 66 60 63 69 74 78 81 82 80 73 75 70 61 45 37 36 35 33 32 29 26 24 22 21 22 22 24 25 33 35 38
74 74 76 79 80 82 81 79 74 69 64 61 62 66 71 76 80 83 83 76 77 80 71 57 41 39 37 36 34 32 29 26 24 22 22 23 23 22 23 25 33 35 41
74 72 72 71 69 68 66 65 63 61 61 65 70 74 78 81 83 80 76 84 82 68 50 40 40 38 38 35 33 29 26 24 23 22 22 23 22 25 30 32 33 36 36
77 75 71 69 69 69 67 68 68 68 70 73 76 79 82 82 78 82 88 80 60 42 41 40 39 40 36 33 29 26 25 24 23 22 22 23 26 29 33 37 36 38 38
76 73 73 74 76 76 75 73 73 74 76 79 82 83 80 82 89 84 71 47 41 41 39 42 41 38 34 30 27 26 27 27 25 24 24 25 27 33 36 39 41 41 52
81 82 83 85 85 82 79 78 81 83 84 84 82 85 89 84 74 54 43 40 38 40 43 42 40 35 31 29 26 23 27 26 27 24 23 26 28 36 38 42 42 58 80
84 84 83 83 83 84 85 85 84 83 83 86 85 81 72 54 49 43 38 38 43 43 43 41 36 32 30 27 22 20 26 25 26 26 26 27 35 34 37 40 62 81 81
83 83 83 83 84 84 84 85 88 85 81 77 64 54 53 50 41 36 40 43 43 45 42 36 33 31 26 21 19 21 23 23 27 27 29 30 32 31 37 66 80 79 74
83 82 81 83 85 87 86 83 77 70 61 57 56 53 47 38 38 42 40 44 46 42 36 34 30 25 20 19 20 23 22 23 27 29 29 28 30 40 67 79 73 73 76
83 86 87 87 81 74 71 66 60 57 55 54 50 43 40 41 40 41 45 47 43 38 34 29 24 22 20 21 24 25 28 33 33 32 28 28 40 66 75 72 75 79 79
86 81 75 71 67 63 60 58 55 53 51 45 43 41 40 39 42 46 48 45 38 32 28 24 21 19 18 21 24 25 29 31 30 29 28 41 61 69 69 75 78 80 80

GFSMW_prec_cthk_042.txt.gz
RH
28 29 30 30 34 34 35 39 42 49 48 43 49 51 54 53 47 57 65 76 83 85 82 84 74 62 45 44 46 44 42 39 35 30 25 21 19 18 20 21 20 20 20
24 25 27 28 30 33 33 36 38 43 48 47 46 49 49 52 53 57 68 80 84 86 83 82 69 53 46 48 49 47 45 42 38 32 27 24 23 24 23 21 21 21 21
26 25 23 26 29 31 32 34 36 39 43 48 50 48 48 53 55 56 64 77 88 91 86 79 63 49 49 51 52 50 47 43 37 31 27 26 27 25 24 24 24 23 24
25 27 25 24 27 30 32 32 34 37 39 45 48 48 49 53 59 61 62 75 84 90 83 68 56 50 51 54 54 52 50 46 38 32 29 27 26 27 26 27 27 29 29
27 27 28 23 26 30 31 31 32 35 37 43 49 53 56 60 63 67 73 75 77 78 65 66 52 52 54 56 56 55 54 49 40 36 32 28 27 28 29 29 30 30 30
29 29 27 29 24 28 33 34 32 35 37 40 47 55 60 60 64 70 73 77 78 75 68 57 52 54 57 58 58 59 55 47 41 39 32 30 30 31 31 30 30 29 27
27 32 31 29 28 27 31 35 35 36 38 42 46 53 59 67 72 75 74 73 73 62 69 58 55 57 59 60 60 58 52 48 43 38 34 32 31 30 32 32 28 27 27
24 31 34 32 31 30 31 36 39 40 43 45 50 56 58 64 68 73 73 70 69 79 63 57 57 59 61 61 61 57 54 49 43 40 35 33 32 32 29 29 28 26 26
25 27 32 33 33 35 34 38 43 46 49 50 54 60 61 63 69 70 71 71 64 59 54 56 59 62 64 64 60 58 55 48 45 39 36 34 33 28 28 29 30 28 26
31 30 31 36 39 39 40 45 48 52 53 54 56 63 66 67 69 76 78 75 68 59 59 61 65 66 67 63 61 59 54 49 44 38 37 33 28 28 30 31 30 29 26
39 34 37 41 45 43 45 48 52 55 56 60 61 67 68 70 79 81 80 69 64 64 62 66 68 69 66 64 62 59 53 48 43 39 33 28 29 30 30 30 28 26 23
46 46 47 48 49 47 48 50 54 59 63 67 66 71 75 77 80 76 68 66 69 67 66 70 70 69 68 66 63 57 52 49 41 32 29 31 31 28 29 29 26 24 25
55 58 52 53 53 50 52 56 59 66 70 70 70 80 77 79 73 69 66 69 72 67 71 72 72 72 70 67 58 57 54 42 32 31 31 30 29 30 29 26 26 30 31
68 65 60 60 56 55 54 60 66 71 74 78 82 82 77 73 68 68 70 74 69 71 74 76 77 75 70 59 63 55 40 33 33 32 30 30 30 29 27 27 32 32 31
77 71 67 62 60 60 63 65 71 75 80 82 83 79 73 70 72 72 75 70 72 76 79 80 78 69 63 66 54 38 35 35 34 32 32 32 28 24 27 29 33 32 31
76 71 71 63 65 70 71 73 77 82 83 86 82 78 73 76 74 75 70 74 78 81 83 80 66 70 64 50 37 36 33 36 34 34 32 30 29 27 26 32 33 33 35
75 78 71 70 76 78 79 82 85 86 88 87 82 77 78 76 71 73 77 81 83 85 77 69 72 60 44 39 36 35 34 34 34 32 31 29 26 27 31 32 32 34 36
85 82 81 83 87 90 91 91 91 91 87 81 80 74 70 73 78 82 83 85 84 76 76 67 52 41 39 36 37 34 33 34 34 32 29 26 28 31 32 32 33 36 36
88 90 92 93 92 93 91 89 86 83 77 71 70 72 80 83 84 85 87 84 82 73 57 42 41 39 39 38 34 33 31 34 32 27 26 29 31 32 32 33 33 35 38
85 84 83 83 84 81 78 76 73 72 72 77 80 82 84 88 88 87 89 81 62 43 40 41 39 41 38 35 33 30 31 29 27 27 29 30 31 32 34 36 36 38 44
84 82 81 81 80 79 78 78 79 80 81 83 86 89 88 88 92 85 68 44 40 41 39 41 42 37 35 33 31 27 26 27 25 29 29 30 32 33 34 36 38 47 74
88 88 88 88 89 88 84 83 85 87 88 88 87 90 90 83 66 48 42 41 39 41 44 42 38 35 34 31 25 21 24 24 27 30 30 31 33 30 29 33 49 76 75
90 91 89 88 84 84 86 88 87 86 88 88 83 75 61 51 50 42 38 40 43 43 42 38 36 35 30 25 22 20 23 26 30 30 30 33 27 26 29 54 73 67 69
87 84 83 82 83 85 87 87 85 80 75 70 59 53 51 45 38 39 43 42 43 41 38 38 37 31 27 24 22 23 27 30 31 32 29 27 27 36 60 68 67 72 76
85 86 85 86 86 82 74 71 69 64 58 56 53 48 41 38 42 41 41 44 43 38 36 33 27 25 24 22 23 24 25 30 31 31 27 28 42 62 66 67 72 73 74
88 88 85 77 72 69 66 65 61 57 54 50 43 39 41 42 40 42 46 44 38 35 31 25 21 18 17 20 24 23 24 27 28 28 30 45 58 63 65 67 68 73 78

GFSMW_prec_cthk_045.txt.gz
RH
27 26 27 28 29 32 35 36 37 40 45 49 54 55 58 58 66 70 67 63 58 59 67 74 83 85 76 60 51 49 47 47 45 41 36 33 30 27 26 24 23 23 22
22 25 26 27 27 29 34 35 37 37 39 44 49 57 60 55 58 61 65 67 67 72 79 86 87 86 71 57 53 51 50 49 47 42 40 37 33 33 28 27 24 24 24
22 23 24 27 26 27 29 33 37 37 37 41 47 55 52 54 55 58 59 64 67 76 81 90 92 87 71 58 56 54 53 50 50 48 43 40 38 34 29 26 26 25 26
23 23 23 24 25 26 29 29 34 39 40 42 43 44 43 48 50 56 61 67 73 70 77 84 85 79 65 57 57 56 55 54 53 50 47 42 38 33 29 28 28 29 29
21 24 24 25 25 27 29 33 33 36 40 42 42 42 44 47 51 56 60 67 71 79 82 78 77 75 55 53 55 56 56 56 55 51 46 43 39 35 33 32 32 31 30
19 20 21 25 27 27 29 34 37 36 38 40 40 43 46 43 49 58 62 69 74 79 83 75 78 73 56 54 56 58 59 57 54 50 48 43 38 36 34 33 33 31 30
21 20 21 22 26 28 28 36 38 40 40 37 40 45 47 45 50 58 67 72 82 83 78 78 79 61 52 56 60 60 58 56 52 50 48 44 39 37 36 35 33 30 27
30 30 25 20 24 30 31 34 42 42 41 41 42 48 47 48 52 62 72 74 76 76 75 71 66 61 59 61 60 58 57 55 53 52 50 44 40 38 36 34 32 30 29
41 38 30 25 25 30 35 37 41 46 45 46 46 46 50 52 56 63 72 72 73 73 69 71 69 56 56 58 59 59 58 56 54 53 50 45 42 37 35 32 31 31 28
46 40 33 28 27 30 38 45 43 47 50 52 50 50 53 59 63 71 71 75 72 79 74 68 65 63 65 63 61 60 59 56 56 55 49 45 39 36 31 30 30 32 32
54 48 40 34 32 36 42 52 48 49 54 55 52 54 59 64 68 71 76 71 77 81 77 75 67 69 68 64 64 62 61 60 59 53 49 43 37 31 30 31 33 31 29
62 57 48 44 42 47 49 60 53 52 56 59 60 62 66 69 71 75 72 79 79 83 73 67 70 73 68 67 65 65 64 63 57 51 45 37 33 31 33 33 31 29 28
62 57 57 52 52 60 62 64 57 57 60 66 68 69 70 70 73 80 87 83 83 74 70 71 74 72 69 69 69 68 66 58 55 47 38 32 33 35 34 31 30 29 30
67 56 57 58 61 70 68 64 63 65 67 71 73 74 72 77 81 82 82 81 73 72 73 76 75 71 72 73 70 68 60 56 47 37 34 35 36 34 32 30 30 28 29
69 64 63 61 68 70 69 65 69 70 74 79 80 78 79 77 82 83 79 74 73 75 77 77 74 76 76 73 67 62 54 43 35 34 36 36 34 31 32 30 29 32 31
84 81 72 66 62 70 69 70 76 78 82 82 83 83 82 81 81 76 73 75 77 79 75 76 80 78 75 66 63 51 38 34 33 37 34 33 32 30 28 30 32 31 33
87 76 73 66 73 73 73 76 81 84 87 87 85 84 80 82 78 76 77 82 80 75 80 82 80 74 67 58 46 37 34 34 35 34 34 32 29 27 28 30 30 31 32
83 81 80 75 78 76 75 77 81 81 82 80 85 85 83 83 81 86 81 76 80 85 85 80 72 63 51 40 37 34 34 34 34 34 32 28 26 26 29 29 30 30 33
79 80 78 80 84 82 83 85 81 80 83 85 84 88 85 86 79 74 80 88 89 86 78 68 54 42 40 37 35 34 33 32 32 29 26 24 27 28 30 35 32 31 30
90 87 88 92 90 89 90 92 90 92 95 92 85 77 73 73 83 87 94 90 84 72 56 41 41 39 39 36 35 33 31 28 27 24 22 24 28 30 34 38 34 31 31
95 96 96 98 98 97 95 94 90 83 78 73 72 79 85 87 92 95 88 77 55 41 41 40 41 39 36 36 34 30 25 26 25 22 23 25 30 31 32 33 32 36 60
86 86 87 88 86 84 83 80 78 76 80 85 87 90 93 97 90 76 56 42 41 39 41 42 37 38 39 36 32 25 24 24 26 25 25 26 32 32 31 31 47 64 64
88 86 86 85 84 88 90 90 89 88 90 92 95 94 85 71 55 45 40 37 39 43 40 38 38 37 34 30 26 24 24 22 23 25 29 30 26 25 32 51 61 60 62
94 94 93 93 92 90 87 87 90 91 87 82 77 68 53 49 42 36 37 41 42 40 39 38 35 30 26 24 23 19 20 21 23 25 24 25 25 36 50 55 58 61 64
90 88 88 88 87 85 79 77 77 75 73 64 57 52 45 39 37 40 41 42 42 39 36 32 27 22 20 20 20 22 23 25 27 28 23 23 37 47 52 56 60 64 70
89 90 89 84 77 77 77 75 72 65 58 55 50 43 39 41 41 40 43 42 37 34 30 24 21 19 17 18 18 23 24 24 25 24 24 38 45 50 55 58 61 67 73

GFSMW_prec_cthk_048.txt.gz
RH
23 24 24 25 24 28 32 36 35 37 38 40 44 44 50 59 61 62 62 61 64 66 68 66 60 60 64 70 66 60 58 55 54 49 44 41 41 39 36 33 31 30 28
18 20 22 24 25 25 28 31 36 35 35 36 39 45 52 54 58 62 63 63 65 69 71 69 72 77 76 80 70 62 60 58 56 53 49 46 44 44 43 38 35 33 29
17 17 18 20 23 25 26 29 33 37 39 37 43 47 49 51 53 59 62 62 65 65 68 74 78 81 82 78 74 70 66 61 59 56 52 47 46 44 42 39 37 34 30
18 19 19 20 20 22 26 28 33 36 41 42 44 44 45 47 48 52 56 60 64 68 73 76 83 83 75 69 67 58 57 58 57 56 54 49 46 43 43 40 36 32 31
15 16 18 20 23 24 25 26 29 34 37 40 44 45 45 46 47 51 53 56 64 70 75 75 79 81 79 73 67 57 59 58 56 53 51 50 47 44 44 41 35 33 31
17 16 17 17 18 21 25 28 31 33 39 42 43 44 42 44 47 49 53 55 61 71 76 80 82 81 80 74 69 61 58 57 57 55 54 49 46 44 42 39 35 33 33
23 22 21 19 18 18 21 27 31 37 40 48 48 47 43 45 48 47 51 53 60 68 75 81 83 83 77 77 70 56 57 60 60 55 51 49 47 45 44 41 37 35 33
33 31 32 29 27 23 20 22 28 41 46 46 52 52 47 48 47 48 53 55 63 69 78 84 83 76 75 74 60 62 59 58 58 56 53 51 49 49 48 41 39 35 31
40 37 36 37 36 31 27 25 27 41 48 49 55 55 52 47 46 50 57 62 67 73 78 80 76 77 75 74 68 63 66 65 60 56 55 53 52 54 47 43 38 34 32
45 38 34 34 31 33 33 28 31 39 48 52 55 56 55 53 52 56 60 65 72 75 78 81 76 77 77 74 67 69 69 66 60 59 56 55 57 50 45 39 33 31 30
48 41 36 36 35 37 41 36 37 43 53 54 55 59 57 55 59 62 68 72 74 76 81 81 86 78 77 72 69 69 69 64 61 59 60 60 52 46 39 33 30 31 33
49 44 47 50 47 50 48 50 50 50 58 54 59 63 63 63 68 71 72 76 77 78 80 76 81 83 81 71 71 73 69 64 63 65 62 53 46 39 32 31 34 34 32
63 58 54 61 64 66 64 65 71 59 58 58 66 70 70 73 75 76 81 77 83 80 85 85 83 81 74 73 74 72 66 67 68 63 53 46 38 32 33 35 33 31 30
72 74 67 63 66 70 73 83 75 63 62 63 70 75 78 78 80 83 80 83 78 83 87 82 81 75 75 77 74 69 72 70 63 53 44 36 34 35 36 33 33 32 29
79 84 70 63 65 77 80 81 72 72 68 70 76 81 81 82 84 82 78 84 84 85 83 83 76 78 80 76 72 77 71 61 51 40 33 34 35 34 34 33 31 32 32
87 80 69 65 64 70 70 76 77 77 73 79 83 84 88 85 81 85 84 80 87 87 77 79 80 84 76 77 79 69 59 46 35 33 34 34 32 31 30 29 30 31 31
84 74 74 75 71 70 77 85 83 78 81 83 86 88 89 87 85 80 81 87 82 83 83 86 81 79 83 74 66 51 39 34 34 33 33 32 30 27 25 25 29 28 29
79 79 77 77 75 81 89 84 79 86 87 87 87 89 89 90 85 81 85 83 84 89 84 81 86 80 71 55 44 36 34 34 33 31 29 29 26 24 25 27 29 30 29
80 80 79 78 84 84 83 79 87 88 86 83 85 85 87 88 86 85 88 90 87 83 89 85 74 57 46 39 36 36 33 33 29 26 24 21 22 24 29 30 29 28 27
81 80 78 81 82 82 81 85 86 88 89 88 86 90 93 94 94 88 86 87 92 88 76 58 46 40 39 37 35 35 32 28 23 20 19 20 22 29 31 31 31 30 34
88 88 90 91 91 91 93 89 96 88 96 96 97 97 92 83 81 94 96 91 77 57 44 41 40 39 37 36 36 32 27 24 23 24 22 21 24 30 31 31 33 40 53
95 96 98 99 98 96 98 98 98 98 95 88 81 80 85 96 98 91 74 54 42 40 39 40 38 36 37 34 30 28 26 25 24 22 22 22 26 31 27 29 42 50 53
89 89 87 88 92 95 94 88 82 82 81 87 95 97 96 84 68 52 41 38 37 40 40 37 37 34 30 26 22 20 19 17 22 21 22 23 24 24 26 42 48 50 51
91 90 87 85 86 89 90 93 95 96 95 91 87 78 64 51 43 38 36 39 42 39 38 35 32 28 23 19 18 17 16 17 19 21 22 22 21 25 42 44 48 52 55
93 94 94 94 93 90 89 86 84 81 78 72 63 54 49 40 37 40 42 41 41 37 34 30 25 21 19 18 18 20 21 23 24 25 22 19 23 41 43 47 51 56 60
91 92 91 86 79 72 73 73 72 69 62 57 52 45 40 40 42 41 44 40 35 32 27 23 20 19 18 17 18 19 23 24 24 23 21 22 42 45 49 52 57 63 68

GFSMW_prec_cthk_051.txt.gz
RH
21 22 23 23 22 21 26 33 34 38 42 42 41 39 45 50 47 55 56 58 58 60 62 65 65 68 68 67 67 62 52 57 57 56 58 54 52 51 48 45 42 40 38
18 19 21 22 23 23 24 27 34 39 42 42 41 41 42 50 50 56 62 58 56 60 66 68 68 70 69 73 78 75 67 64 67 65 62 58 57 56 52 48 45 43 41
14 15 15 18 21 22 24 26 30 36 42 43 39 43 47 54 53 56 62 58 54 58 62 67 71 72 74 79 82 76 66 66 63 62 58 55 53 51 49 47 46 44 41
15 16 16 17 18 21 23 27 29 33 38 45 43 38 39 43 51 47 56 59 59 60 65 66 70 73 77 82 81 76 71 68 62 58 60 57 54 49 46 46 45 43 41
16 16 16 17 19 21 22 23 27 32 36 43 45 44 43 47 51 54 60 61 62 62 65 66 72 76 79 82 82 79 73 67 68 63 59 54 52 51 50 47 43 41 40
16 16 18 17 17 19 21 24 25 27 30 37 39 43 42 46 52 60 60 60 59 61 64 64 70 76 80 82 83 83 77 72 70 63 57 58 54 49 47 45 44 45 47
20 21 20 21 21 19 19 20 22 25 32 34 33 41 46 46 48 57 63 61 61 61 62 63 67 74 78 84 84 80 73 71 62 61 60 59 58 55 50 47 45 44 45
30 31 29 28 28 28 27 23 21 21 24 34 34 37 42 47 51 58 63 64 66 66 64 66 69 75 79 85 81 76 73 70 66 66 65 65 61 57 53 50 48 47 41
38 39 39 38 40 39 36 33 30 26 23 27 36 40 48 52 57 62 69 72 70 68 65 67 74 76 82 81 79 78 76 75 70 70 68 67 63 59 55 53 53 44 40
45 43 40 43 45 42 39 34 35 33 29 30 39 42 58 70 60 67 71 69 66 66 70 73 73 78 82 78 79 77 78 76 73 71 69 67 63 60 58 56 47 41 37
57 56 51 48 45 38 34 31 36 39 38 38 39 53 60 73 64 72 69 68 69 71 73 76 79 80 77 80 85 82 79 76 72 70 71 68 63 63 58 48 42 37 33
60 60 57 56 50 37 35 41 43 41 40 44 49 54 72 67 65 73 74 73 74 75 79 78 77 83 80 88 86 91 85 73 71 73 71 66 65 59 49 42 36 32 33
77 70 68 60 56 48 43 47 49 48 47 56 63 59 63 59 73 77 75 76 80 82 85 83 78 79 77 81 83 78 74 72 75 74 68 67 58 48 40 35 34 34 34
81 86 82 73 67 62 51 54 61 63 60 67 67 60 63 79 81 82 81 83 80 86 88 79 79 79 83 86 87 79 72 78 77 70 66 55 45 38 35 35 36 35 31
92 94 94 86 75 60 62 67 77 80 78 79 75 68 82 86 86 84 85 80 89 90 85 82 85 88 92 83 76 76 81 78 71 64 49 40 35 35 34 36 33 30 27
82 89 86 81 71 67 69 79 88 94 91 82 71 79 87 90 88 85 84 90 86 82 84 85 92 85 79 80 84 80 79 71 54 44 35 33 33 33 32 30 27 26 30
76 74 73 72 70 71 73 86 94 93 88 80 73 83 81 84 81 85 96 87 80 85 86 85 87 84 86 83 81 75 61 47 38 34 33 31 31 29 26 23 24 26 28
77 68 66 67 70 70 75 85 91 88 84 81 81 78 82 91 96 94 83 85 88 87 92 87 90 88 83 76 65 50 41 35 34 32 31 28 24 21 22 24 29 29 28
85 80 78 76 78 81 89 91 88 86 86 86 84 91 98 92 85 86 89 92 91 94 94 90 87 78 64 52 43 36 35 34 32 29 25 22 20 21 25 30 30 30 28
76 74 79 83 86 89 90 87 87 86 95 96 98 95 88 88 90 91 96 98 94 91 88 77 62 51 41 37 35 34 33 31 26 21 19 19 21 22 28 31 31 30 26
87 84 84 82 81 85 85 90 95 98 97 94 92 97 98 98 98 98 97 95 89 76 58 48 40 37 35 35 36 34 32 29 26 21 17 16 19 25 31 31 28 27 43
91 97 96 96 92 98 95 98 98 95 98 96 96 98 97 96 94 93 86 69 50 39 39 38 35 35 36 34 30 26 23 23 19 17 18 21 25 26 23 23 27 42 45
90 91 95 98 98 98 98 97 98 98 98 96 91 92 97 97 82 59 42 37 37 38 39 36 36 35 30 26 22 19 18 16 17 19 22 23 23 19 17 24 41 44 45
93 95 94 93 92 93 93 94 92 90 91 96 94 89 70 52 42 38 36 37 42 38 37 36 32 27 23 20 19 17 15 16 20 22 22 21 19 18 26 43 47 48 53
90 93 95 95 95 95 96 96 94 90 83 71 58 53 48 41 36 37 42 42 39 38 34 29 25 22 20 18 17 19 22 24 24 23 19 17 17 28 45 48 50 55 59
89 90 92 92 89 83 82 79 74 67 63 61 54 45 39 39 42 44 42 39 35 31 27 23 21 20 20 20 19 23 23 23 21 19 18 18 29 47 49 51 55 59 65

GFSMW_prec_cthk_054.txt.gz
RH
19 18 18 19 21 24 28 30 32 35 39 50 58 58 58 58 55 52 54 51 49 53 59 61 61 64 67 68 69 70 70 64 61 63 63 62 66 62 59 58 55 55 52
21 21 22 21 20 19 20 21 26 33 33 38 42 43 49 53 57 56 60 61 53 55 62 63 62 65 69 71 74 75 77 72 67 65 63 64 61 60 61 56 53 50 48
15 16 19 21 22 24 24 24 23 26 32 34 45 48 54 54 57 58 63 61 58 59 65 66 64 68 72 73 76 79 80 75 70 69 68 66 62 59 58 56 52 49 48
16 15 15 14 16 19 21 22 23 24 28 31 33 43 47 46 47 54 56 56 58 59 65 67 70 76 74 72 76 80 79 79 76 71 68 67 62 60 57 53 50 50 48
15 15 14 15 16 17 18 21 23 24 27 28 31 37 43 49 46 48 53 57 63 70 76 74 74 72 73 73 76 82 81 82 79 75 70 66 66 61 58 56 52 51 51
15 15 15 15 15 16 18 21 22 25 28 30 31 33 38 49 51 52 54 55 60 67 75 76 74 75 74 73 76 79 78 81 77 78 69 67 62 60 59 58 58 56 55
19 19 18 18 18 20 19 19 20 22 25 27 30 32 34 41 48 52 54 59 62 69 77 78 78 75 75 72 75 74 77 82 78 78 66 74 63 62 61 60 57 55 56
27 27 27 27 27 27 26 23 24 20 20 23 26 28 35 38 45 53 55 59 63 65 72 80 81 77 78 75 74 74 77 83 75 74 69 67 67 66 62 60 59 56 54
33 32 32 35 37 37 38 37 35 33 30 24 20 23 29 37 41 47 55 65 64 63 72 82 83 85 82 79 74 77 77 76 77 72 76 72 69 66 63 62 61 58 52
36 37 38 39 40 40 42 43 46 41 36 32 29 25 23 30 39 46 55 65 67 71 78 85 89 88 82 76 78 75 75 77 75 76 76 74 74 65 65 66 63 57 55
46 45 45 45 46 46 48 49 46 43 40 39 38 34 30 33 39 58 62 75 71 75 84 89 90 82 77 80 78 75 89 70 73 78 85 84 72 69 68 67 60 57 49
54 57 58 59 56 59 58 58 54 44 38 40 44 43 44 48 51 62 69 81 78 83 88 88 80 77 80 80 85 74 76 85 88 80 75 75 69 71 69 62 57 47 40
62 70 74 72 68 68 73 63 56 45 42 39 41 48 65 70 69 69 80 78 86 88 86 79 78 81 78 78 81 83 81 80 80 88 81 75 74 69 62 53 43 38 34
72 71 70 72 82 88 80 71 60 52 54 55 52 57 73 77 72 80 80 77 91 86 82 81 78 82 81 80 78 82 89 95 90 80 76 76 68 57 47 41 36 35 36
75 73 62 66 84 95 88 77 66 63 69 78 73 71 82 83 73 64 68 89 86 82 81 82 81 83 86 91 89 87 94 90 82 76 69 60 49 42 37 34 36 35 30
75 66 61 63 73 86 84 67 62 64 79 85 85 78 79 76 65 66 80 86 83 78 84 84 97 95 91 87 83 89 86 78 71 64 50 43 37 32 32 32 29 29 28
76 68 61 62 65 64 65 66 71 80 84 88 84 85 87 69 75 81 86 83 85 90 91 98 94 88 87 94 86 79 75 64 52 44 39 33 31 31 28 24 24 25 25
75 75 65 60 63 63 69 77 90 95 97 91 95 89 74 81 89 90 86 95 95 93 93 88 91 93 90 84 77 68 55 46 40 34 32 32 29 24 22 24 26 27 27
78 75 78 75 70 72 74 81 89 95 98 93 86 75 84 90 90 92 98 95 98 95 96 94 91 86 80 67 53 45 40 34 33 32 30 25 22 20 25 26 29 29 24
77 78 79 82 85 82 86 84 82 82 79 76 80 89 98 98 98 97 98 97 98 98 97 86 77 63 50 44 39 34 33 32 30 25 22 20 19 23 23 31 29 25 22
83 80 78 78 78 84 88 90 90 93 97 98 97 98 98 98 96 98 98 98 95 85 71 57 52 44 36 35 33 32 31 27 24 21 18 17 19 23 23 23 23 22 29
82 87 86 89 90 92 90 97 97 96 97 97 98 98 98 97 97 97 93 78 61 54 46 40 38 35 33 33 30 25 23 21 20 18 18 21 22 22 19 17 17 30 42
84 86 89 90 93 96 95 97 95 96 97 97 97 97 97 96 83 63 50 42 40 41 39 35 33 34 30 26 23 22 20 18 20 20 22 20 18 16 16 18 31 42 46
89 89 89 89 92 94 94 96 95 95 96 97 97 90 67 53 44 39 38 37 38 38 36 35 31 27 24 22 21 19 18 19 20 19 17 17 17 17 20 37 46 49 50
90 91 92 93 93 94 95 94 91 86 77 65 53 48 45 40 37 38 41 41 37 35 31 28 26 23 21 21 23 21 21 22 20 18 16 16 16 22 40 48 50 53 57
93 92 91 91 87 79 74 70 67 66 65 55 50 46 43 41 41 40 39 36 33 30 27 23 21 23 21 21 17 16 18 16 17 17 17 17 24 43 49 50 53 60 69

GFSMW_prec_cthk_057.txt.gz
RH
17 19 20 19 22 23 27 34 35 32 32 33 43 53 56 59 60 60 54 48 53 57 58 57 57 58 61 63 65 67 69 71 69 60 61 61 58 57 58 59 59 58 58
21 22 23 23 21 18 19 27 33 35 34 32 33 39 45 52 60 65 67 65 60 62 64 61 62 62 65 67 66 67 70 73 73 66 62 61 61 61 61 59 60 58 56
17 18 20 22 22 20 19 21 25 31 35 34 34 36 42 49 50 53 60 62 63 66 68 70 70 66 68 70 73 78 76 76 75 71 67 65 66 64 64 62 60 60 57
16 17 16 16 17 21 24 25 25 25 26 29 31 33 34 38 49 66 63 61 58 61 65 69 74 76 77 77 83 87 84 79 77 74 73 70 69 65 62 63 62 58 56
15 17 17 16 16 16 15 20 23 24 26 25 26 26 31 35 38 43 55 59 56 58 63 65 71 74 79 84 87 87 88 84 80 79 75 70 68 69 62 62 60 58 58
17 17 16 16 15 15 16 17 18 20 23 24 25 26 29 34 44 48 60 64 65 60 58 62 69 77 85 87 88 88 90 83 78 78 72 73 71 68 63 64 65 61 62
19 18 17 17 16 17 17 17 16 18 21 23 25 27 29 32 39 43 53 57 62 57 61 61 66 74 83 87 88 89 88 83 81 76 70 73 70 72 68 69 65 64 66
27 28 27 25 25 24 23 22 21 20 19 19 20 24 29 31 34 40 45 51 62 63 60 61 67 72 85 90 91 90 91 86 78 75 69 73 79 65 67 67 66 68 64
34 33 33 31 31 30 30 31 32 32 31 26 25 23 22 23 29 34 41 44 52 67 66 68 72 77 83 89 93 90 88 88 81 75 74 71 69 72 74 73 69 70 66
41 38 35 35 35 36 35 36 36 36 38 41 39 35 30 26 24 25 34 40 48 55 68 71 76 81 83 90 93 90 87 86 77 76 73 77 74 71 74 81 82 76 67
47 43 41 41 43 40 40 42 44 43 43 43 45 44 41 36 33 28 27 39 49 53 64 69 78 84 86 90 91 91 88 83 74 71 81 90 88 79 81 73 75 74 65
52 48 49 52 54 54 55 56 56 53 49 51 52 47 44 44 44 41 37 41 50 63 64 81 84 84 86 88 89 89 81 76 77 90 84 80 83 87 88 82 77 68 63
58 61 58 59 60 56 52 53 56 59 59 62 58 57 54 50 51 57 58 58 56 71 83 89 85 83 87 88 87 83 80 81 86 87 85 93 91 87 83 77 68 58 47
64 61 61 57 48 50 56 60 69 77 74 72 63 65 66 61 60 69 75 75 69 75 87 85 92 94 90 88 82 79 87 83 92 92 91 92 91 82 69 58 48 43 38
66 65 63 53 50 55 64 73 79 81 77 75 70 72 71 71 74 82 89 89 80 81 85 89 90 90 84 82 81 80 92 97 96 90 83 82 73 59 47 43 38 36 37
64 68 61 54 50 61 64 69 75 77 67 70 79 86 88 84 82 86 88 84 85 81 73 85 87 88 86 83 93 98 98 89 82 75 75 58 48 44 40 34 31 30 32
69 70 66 63 57 57 62 65 68 67 69 71 83 85 90 90 86 82 87 78 69 64 88 86 90 87 95 97 96 96 94 87 76 62 51 46 41 34 30 27 25 25 25
71 72 71 71 68 64 67 72 76 87 87 85 91 88 84 89 91 80 79 71 72 89 85 96 90 98 98 95 90 83 72 60 51 45 39 35 30 27 24 23 26 24 24
76 76 74 76 76 76 73 77 80 89 95 95 97 93 95 92 90 82 84 88 97 95 97 93 98 97 88 82 69 57 51 46 40 36 31 27 24 22 21 25 26 25 23
79 74 74 73 77 78 84 84 85 86 90 94 92 89 84 79 82 89 98 98 95 98 97 96 87 79 65 60 52 47 42 37 32 27 24 22 20 20 25 27 25 22 19
78 76 78 78 79 82 84 85 86 89 88 82 80 82 82 92 97 97 98 98 98 95 83 67 58 53 48 42 37 34 30 27 23 21 19 18 19 25 24 24 21 18 23
78 78 78 79 82 82 86 89 92 93 94 97 97 97 98 98 98 98 97 85 66 56 52 50 43 40 36 31 28 25 23 21 19 17 17 19 22 21 17 15 16 23 33
79 79 80 83 84 88 89 88 90 93 94 94 96 97 98 97 86 67 54 48 44 42 40 36 33 31 27 25 23 20 19 18 18 20 22 20 16 14 14 16 26 36 42
81 82 85 87 88 89 90 90 92 94 95 96 95 84 63 49 41 39 40 40 38 36 34 31 27 25 23 21 20 19 17 18 20 18 16 15 14 15 18 31 41 46 47
82 83 86 88 89 90 88 85 83 79 69 59 52 47 42 40 40 41 40 38 34 31 29 26 24 22 20 19 18 21 21 20 15 14 13 14 15 20 35 45 47 50 59
83 83 84 84 80 74 72 69 68 64 59 52 47 44 43 42 41 40 37 33 30 28 25 22 21 19 19 20 18 17 16 13 13 14 15 16 21 39 47 49 55 61 64

GFSMW_prec_cthk_060.txt.gz
RH
16 17 19 22 23 25 26 29 30 31 32 33 31 37 44 49 55 58 60 60 60 58 59 59 62 62 61 59 61 62 64 65 65 65 63 56 57 58 57 56 56 56 55
19 18 19 20 19 20 21 24 28 30 32 32 31 31 34 42 50 57 63 64 67 69 67 67 73 74 70 65 65 66 69 68 68 69 70 62 60 61 61 62 61 61 61
17 17 18 19 20 20 22 23 23 24 27 30 31 32 34 35 40 44 48 49 68 70 78 76 76 77 75 73 73 75 81 83 84 83 79 68 66 65 64 63 64 62 61
17 16 17 18 18 20 23 24 24 22 22 23 27 30 32 33 34 37 41 48 54 55 63 71 77 77 76 76 76 80 85 90 92 92 90 78 72 70 66 62 62 64 61
21 19 19 18 17 17 17 19 24 26 26 24 24 27 30 33 35 37 40 44 51 63 69 64 67 71 74 76 78 83 85 87 92 92 93 88 80 74 66 62 65 65 59
22 21 20 19 18 17 17 18 18 20 23 26 27 27 27 28 29 30 31 36 41 44 52 61 68 69 72 70 75 80 85 89 92 92 89 87 84 78 69 61 65 64 67
22 20 19 18 17 18 19 19 19 19 20 21 23 25 27 28 29 32 36 38 45 52 56 65 73 74 71 70 73 79 87 89 91 93 89 91 83 80 73 66 64 75 67
26 25 23 23 23 21 21 21 21 20 19 19 20 22 23 26 29 33 37 39 42 52 58 70 76 76 72 72 76 83 88 92 95 93 89 90 89 78 79 73 70 70 71
32 31 31 31 30 30 27 26 26 27 27 26 25 24 23 23 22 24 27 32 39 43 47 59 68 84 82 75 82 85 92 96 93 94 91 89 87 83 83 79 77 77 76
39 39 38 36 36 35 33 30 29 29 30 32 32 34 36 35 32 29 28 27 27 36 43 49 60 70 78 85 86 89 93 91 89 92 91 89 89 86 79 85 86 92 83
45 45 45 43 40 38 38 38 36 35 36 37 38 39 40 41 42 44 42 38 33 31 42 47 60 68 76 83 90 91 89 86 87 89 92 89 89 83 86 82 92 82 89
52 50 48 47 47 48 46 47 48 45 43 41 40 42 44 47 50 49 50 50 47 44 46 50 54 61 74 77 86 88 85 86 90 92 89 94 90 89 94 96 85 85 84
58 55 52 50 51 51 48 42 44 42 42 44 45 48 49 52 59 56 57 57 55 55 60 59 61 63 70 74 79 83 85 92 89 93 96 91 96 90 96 96 87 75 70
60 59 58 58 54 45 41 43 44 48 49 51 58 64 69 68 74 75 76 72 67 64 71 75 70 71 73 83 84 83 80 88 95 97 91 87 96 94 91 79 68 60 52
66 62 59 55 50 45 45 46 50 53 57 61 66 70 71 71 79 80 78 77 82 83 84 82 79 73 78 88 88 90 97 94 96 97 96 96 90 81 70 62 56 51 44
65 63 59 54 52 46 46 48 50 56 61 62 63 69 76 79 90 88 80 87 91 81 92 92 85 80 84 96 89 91 93 96 98 94 90 81 70 62 52 44 38 32 30
66 63 62 58 57 54 53 54 60 64 67 73 70 71 81 91 94 90 92 92 92 96 98 95 92 86 89 94 95 93 90 95 90 82 70 60 51 44 38 34 30 26 24
70 67 65 64 64 63 65 65 67 76 81 87 85 79 86 90 90 94 93 90 93 94 94 94 85 93 99 93 98 95 87 78 67 60 52 44 39 34 29 25 25 25 22
72 73 67 68 68 69 73 74 74 75 78 85 86 84 83 82 90 98 91 92 94 90 91 83 97 95 95 92 82 74 68 59 50 43 36 30 28 24 20 25 25 23 20
73 71 69 72 73 75 76 77 80 80 80 80 81 87 90 90 96 94 94 98 95 96 98 98 96 89 80 68 59 51 46 39 32 26 24 22 18 20 24 25 23 18 14
74 72 75 77 76 75 77 80 82 84 86 81 87 81 81 83 91 93 96 98 98 97 90 78 68 62 56 47 42 36 28 25 23 20 17 16 17 23 21 19 16 14 21
74 76 77 76 77 77 77 80 83 87 89 92 93 96 97 98 97 97 97 86 67 58 52 46 41 37 32 29 27 25 21 19 17 16 16 15 12 11 12 13 15 24 32
78 76 77 78 79 80 80 81 85 86 89 91 92 94 95 94 77 55 47 44 42 40 37 33 30 29 27 24 21 19 17 16 16 15 12 11 11 12 13 16 24 35 40
78 79 80 81 82 83 83 83 84 85 85 85 81 65 48 43 41 41 41 41 38 34 32 29 28 25 21 19 18 18 17 15 13 11 11 12 12 13 17 29 40 44 51
82 82 82 83 83 81 78 76 77 73 66 56 47 44 43 43 42 42 39 36 33 30 29 27 23 20 19 18 17 17 15 14 12 12 12 13 15 20 35 42 47 53 56
83 83 81 78 76 72 72 67 65 62 54 48 44 43 42 42 41 39 36 34 31 29 26 22 20 19 19 19 18 16 14 13 13 12 13 15 23 39 44 49 54 57 58

GFSMW_prec_cthk_066.txt.gz
RH
19 17 15 17 20 23 24 26 26 26 29 29 31 35 32 30 32 37 46 46 50 52 57 60 62 63 63 63 60 60 58 59 65 67 65 63 62 61 58 54 55 57 56
19 18 16 15 16 20 23 25 26 25 24 30 26 28 32 33 32 35 41 45 46 54 56 64 65 65 69 71 67 67 67 67 72 75 73 68 66 67 66 63 62 63 65
19 18 16 15 15 15 17 19 20 22 23 24 29 31 32 32 32 32 33 40 43 49 54 60 67 69 72 71 71 74 74 74 77 80 81 77 71 72 74 73 71 70 72
20 19 18 16 15 15 15 15 16 17 18 20 25 29 28 29 29 32 34 36 40 42 45 52 57 62 67 71 75 79 81 82 80 84 83 80 77 77 76 75 74 74 74
23 22 20 19 18 17 17 18 18 19 20 21 23 28 31 31 28 30 33 35 37 40 43 45 55 57 60 60 61 70 80 81 84 84 84 83 84 84 85 80 79 78 79
27 25 22 21 20 19 18 18 18 18 20 22 24 27 34 36 36 34 31 30 32 36 39 44 48 55 58 59 61 64 71 76 82 84 82 84 85 83 85 86 80 84 81
29 28 25 23 22 21 20 19 19 19 19 19 21 24 26 29 34 35 38 37 36 33 33 36 41 46 51 59 65 71 77 81 86 86 85 88 90 88 88 87 85 86 84
32 30 27 25 24 23 22 21 20 20 20 20 20 20 21 22 24 26 31 35 35 32 35 39 43 46 48 51 59 66 72 78 84 90 89 93 95 94 90 88 91 92 91
34 33 31 29 28 27 26 25 24 23 23 22 23 23 23 24 24 25 26 27 28 29 30 33 38 41 45 49 53 61 73 76 82 88 94 99 98 95 92 95 92 93 92
40 40 39 37 35 34 33 33 32 31 30 28 27 27 28 28 29 29 30 31 32 32 32 33 35 37 40 45 51 57 62 73 88 93 91 98 97 97 91 91 93 90 89
45 44 43 42 41 39 38 37 36 35 35 35 35 33 32 32 34 36 38 40 41 42 41 41 41 42 47 50 53 56 59 64 72 78 88 88 90 96 90 88 88 92 91
47 48 48 48 46 44 42 39 38 37 36 36 37 38 39 37 37 38 39 41 43 45 48 48 50 54 55 56 60 62 66 70 71 75 82 82 81 81 81 82 88 91 93
52 52 52 50 48 46 44 43 40 37 37 35 31 31 32 33 37 40 42 43 46 49 52 55 54 55 58 63 68 71 75 77 79 81 79 76 79 78 78 86 95 97 97
56 55 53 53 51 47 43 40 39 38 35 34 34 36 37 40 42 44 45 48 50 52 54 62 66 70 72 72 74 79 86 87 84 82 78 77 76 83 96 99 99 97 91
60 57 56 56 53 49 46 44 42 39 38 38 38 40 41 40 40 42 47 53 58 61 67 72 77 84 86 84 81 81 87 88 88 85 76 87 89 99 99 97 89 79 75
62 61 59 59 54 52 52 48 46 45 44 43 43 42 45 45 46 48 58 65 74 76 77 83 85 89 85 88 88 93 93 97 93 84 85 94 98 90 84 77 72 62 49
64 62 63 60 58 57 56 53 51 48 50 47 48 48 48 46 52 59 65 72 79 87 90 94 95 97 95 96 97 98 99 94 95 90 95 90 83 77 69 51 39 32 26
66 66 64 63 62 60 59 57 58 55 54 51 55 51 53 55 59 64 69 73 81 86 92 97 97 98 98 98 98 97 98 97 93 87 81 67 47 38 33 27 22 16 16
70 68 66 65 63 62 61 63 63 62 62 58 57 57 59 61 64 68 72 80 84 85 92 95 96 97 97 97 97 91 86 76 65 52 40 31 27 22 15 17 15 15 12
71 69 68 64 63 63 63 63 65 65 65 63 63 66 63 66 68 70 75 82 86 88 92 96 97 89 83 76 67 54 44 33 27 23 20 17 14 12 15 13 12 9 10
70 70 69 66 67 66 67 67 66 70 69 70 67 66 72 75 77 79 80 83 87 88 80 64 54 47 44 38 31 26 22 21 18 16 14 13 12 9 9 9 10 10 17
70 70 69 67 68 70 68 68 70 72 74 77 77 76 76 77 77 72 54 42 40 39 36 33 31 30 27 24 21 19 18 16 16 16 13 12 9 8 9 9 12 19 27
72 70 70 71 72 70 72 71 74 77 77 74 74 74 72 51 39 39 38 37 34 32 30 29 28 25 22 21 20 20 19 18 16 14 12 10 9 10 11 15 25 29 32
75 74 73 73 71 73 74 73 70 70 71 72 65 44 38 38 38 37 34 32 31 30 28 27 25 22 21 21 23 22 21 18 16 13 12 11 11 13 19 27 30 32 35
78 78 77 74 74 74 72 66 67 66 59 47 39 39 39 38 37 35 32 31 30 28 27 25 24 23 23 26 24 22 22 20 16 14 13 13 14 21 28 30 33 36 37
81 81 76 73 70 68 67 64 56 54 47 42 42 41 39 38 36 34 33 31 29 28 26 25 25 25 25 26 25 23 20 18 16 14 13 14 21 28 31 34 37 39 40

GFSMW_prec_cthk_069.txt.gz
RH
26 24 22 21 23 24 27 29 29 30 35 39 33 32 33 40 40 41 39 40 41 45 50 55 59 59 59 58 60 64 65 66 63 59 57 60 62 63 63 61 57 54 54
24 24 21 19 17 17 19 23 28 30 31 33 34 30 30 31 34 34 35 36 37 39 41 49 55 58 61 64 65 71 70 72 71 67 68 67 67 69 72 71 67 64 63
23 21 19 18 17 16 16 17 20 24 27 29 32 32 33 34 30 28 29 32 37 40 39 42 49 59 64 67 70 72 74 74 74 75 75 76 74 74 75 78 77 72 72
23 21 19 19 18 16 16 15 16 17 20 23 26 29 31 31 31 31 30 32 35 38 47 52 50 54 63 66 69 73 73 77 75 79 79 80 80 80 79 80 78 80 77
30 27 22 21 20 17 16 16 16 16 17 17 18 21 25 31 33 32 33 34 37 36 40 52 58 58 60 64 69 73 76 74 77 75 78 87 88 86 84 81 83 81 82
28 26 25 24 24 20 19 18 18 18 18 20 21 22 25 30 34 35 35 37 38 38 37 41 46 50 55 61 59 68 78 78 78 75 77 80 86 87 89 93 89 88 87
32 32 29 27 26 24 22 21 20 19 19 19 19 20 23 27 31 34 36 37 37 37 38 38 39 44 50 55 58 65 72 78 81 80 81 83 88 89 93 96 93 88 87
35 33 32 30 28 27 25 23 21 21 19 19 19 19 20 21 24 30 33 36 37 41 37 36 36 38 43 49 52 54 55 57 63 69 73 81 87 93 96 96 92 92 92
36 35 33 32 31 30 29 26 25 24 23 22 22 23 24 23 23 24 26 31 33 36 37 36 36 36 41 46 52 57 61 63 67 69 69 75 85 91 91 88 95 98 95
40 38 37 36 36 35 33 32 31 30 30 29 27 26 26 26 26 28 30 31 32 33 33 34 36 38 40 45 50 53 57 60 64 67 74 77 84 91 91 98 94 92 98
44 43 42 42 42 40 39 38 36 35 34 33 32 32 32 31 30 29 30 31 32 32 33 35 37 39 43 48 55 57 58 63 69 72 74 76 80 80 94 95 92 94 92
46 46 46 44 43 42 41 40 39 37 36 35 35 34 35 35 35 33 29 29 30 31 35 39 41 43 48 53 55 59 60 63 67 69 73 80 83 85 81 76 94 91 86
47 46 45 46 45 44 44 42 39 37 36 35 36 34 33 29 28 29 30 31 34 37 41 44 47 50 53 57 61 63 66 70 70 77 81 85 85 83 84 77 81 78 79
49 49 50 50 49 49 46 40 38 38 37 36 35 35 32 32 31 32 34 36 38 41 45 49 51 57 65 69 71 75 78 77 76 78 82 87 86 84 87 84 84 77 75
54 55 55 54 53 53 48 43 43 42 40 38 37 36 34 35 36 36 35 38 42 46 51 58 63 67 72 77 84 87 90 89 83 83 87 91 92 91 89 79 78 82 84
58 58 59 59 57 56 51 51 50 46 44 42 42 40 40 40 41 41 41 43 47 55 61 66 75 79 81 80 78 80 87 86 84 91 99 99 97 96 90 91 85 80 68
62 61 64 64 61 61 57 54 53 50 48 46 47 46 47 43 43 43 45 50 56 62 66 70 73 76 81 84 87 91 94 97 97 98 98 97 93 89 82 70 61 47 30
66 66 66 65 63 63 61 58 55 54 54 53 52 50 49 46 45 50 54 56 61 65 66 70 75 78 81 85 90 94 97 98 98 97 94 84 75 65 47 32 25 16 13
69 67 66 66 65 63 60 60 60 61 60 57 55 53 52 50 50 53 57 60 66 70 72 72 76 79 82 88 92 94 90 82 72 61 47 38 30 22 14 13 13 11 13
70 70 69 68 65 63 62 62 62 63 61 61 60 59 54 58 58 62 66 68 70 72 74 75 74 70 65 56 43 37 34 32 28 25 21 17 14 11 10 9 9 10 10
73 72 70 68 67 65 63 67 66 65 67 63 63 61 62 65 66 67 67 67 64 59 42 34 32 32 29 26 24 22 20 19 17 17 17 14 12 10 9 8 8 9 11
74 71 70 70 67 66 67 67 67 68 70 69 69 69 70 68 64 50 41 36 33 30 28 27 26 25 23 21 19 18 18 17 17 17 15 13 11 10 10 10 10 13 22
76 73 71 71 70 69 67 68 70 73 74 74 72 71 66 45 36 36 34 31 29 28 27 26 24 22 21 20 20 21 21 20 19 17 15 14 13 13 13 13 18 25 27
78 77 76 72 70 70 71 72 74 75 73 70 68 51 37 36 36 34 31 29 28 27 25 24 23 22 22 23 26 27 28 25 23 20 17 15 14 14 16 22 26 27 30
79 78 77 74 73 73 74 73 68 66 65 60 41 37 37 37 35 32 30 28 28 26 25 24 23 24 26 26 24 25 25 24 23 20 19 17 17 18 25 28 29 31 33
82 80 77 74 73 72 69 66 63 60 50 39 39 40 41 40 36 34 31 30 29 26 25 26 27 27 27 26 27 27 27 26 24 22 21 19 20 26 29 30 32 34 35

GFSMW_prec_cthk_072.txt.gz
RH
35 32 28 27 26 28 31 35 37 42 46 42 37 36 36 40 41 41 41 40 41 38 39 39 41 43 47 50 57 58 58 60 65 66 66 66 68 66 63 64 63 64 63
39 34 30 27 25 24 24 27 32 32 31 36 39 37 37 36 38 42 38 38 39 43 43 42 42 44 51 55 53 57 62 64 69 69 74 72 72 71 73 75 73 73 73
35 32 30 28 25 23 21 20 21 24 27 30 35 35 35 34 33 32 32 36 40 40 42 46 49 51 55 52 54 60 67 72 74 75 75 76 75 76 77 79 81 81 79
33 29 26 25 23 21 19 18 17 16 16 20 23 28 28 30 28 27 29 30 29 31 40 47 48 53 53 56 64 68 66 71 76 83 83 82 80 79 77 77 80 85 83
34 29 25 23 22 20 19 18 18 18 18 18 18 19 22 27 34 33 30 29 27 26 28 36 48 49 55 56 60 68 68 69 76 75 80 85 88 89 87 84 81 84 88
37 33 28 28 26 23 20 19 19 18 17 18 19 20 20 21 26 32 35 33 33 35 37 38 39 43 51 55 60 62 68 68 70 71 73 79 87 92 90 88 88 90 90
32 32 33 31 30 26 23 22 21 20 19 18 18 19 21 23 26 30 33 34 36 38 40 44 42 39 41 45 49 54 60 67 71 73 68 71 86 94 94 96 95 93 93
37 34 31 30 28 27 25 23 23 21 19 19 19 19 20 20 21 24 28 31 33 35 35 36 36 37 39 41 43 46 52 60 67 71 76 75 74 75 78 87 92 91 92
41 38 34 33 31 30 28 27 25 23 22 22 21 21 21 21 21 22 25 28 30 33 35 38 38 39 41 43 46 50 55 61 68 73 77 77 78 81 85 88 90 92 94
39 37 36 35 35 33 32 31 30 29 28 28 27 27 26 25 26 25 26 28 30 31 32 33 32 31 34 36 39 44 48 53 62 69 75 80 83 84 86 88 90 90 91
41 40 41 40 40 39 38 37 36 34 34 34 33 32 32 31 29 28 28 28 28 27 25 25 26 28 32 35 38 41 47 51 55 64 68 75 80 83 87 90 91 93 91
43 44 45 43 42 42 40 39 38 37 37 37 36 35 34 33 33 33 34 30 26 26 28 29 30 32 36 39 43 47 53 56 62 67 73 75 80 84 84 83 87 91 88
45 46 45 43 42 42 42 41 40 38 37 35 35 34 34 33 32 31 27 27 28 28 29 30 33 37 41 47 48 50 57 65 74 78 79 80 82 85 87 88 91 89 88
47 46 45 45 46 46 45 44 42 38 36 35 35 35 34 33 33 32 32 31 31 30 31 33 36 40 44 48 51 58 63 66 75 83 89 92 89 83 85 82 92 91 90
50 50 51 51 51 51 49 47 43 40 41 39 38 37 34 34 35 35 34 34 33 34 36 40 46 51 54 58 60 63 68 71 75 81 84 88 85 86 84 97 96 95 88
55 54 56 56 54 54 52 51 47 46 45 43 41 41 41 39 38 38 38 38 39 42 44 47 51 56 60 64 66 67 72 72 79 80 83 86 87 90 93 95 91 87 73
60 58 56 58 57 58 56 56 51 49 49 48 48 47 46 45 43 40 40 42 44 45 49 52 55 56 61 64 68 72 76 80 85 88 91 91 95 98 93 81 75 67 54
64 61 62 62 61 61 59 59 57 55 55 54 52 51 51 48 44 44 45 47 48 50 54 57 59 62 65 67 71 74 78 82 84 87 88 85 74 62 50 38 28 23 17
67 66 65 64 64 65 62 60 60 59 59 60 57 57 54 49 48 49 50 53 55 57 59 60 63 64 66 61 55 44 36 32 31 30 27 24 22 20 16 15 14 13 12
72 69 67 67 65 65 64 61 61 61 62 62 61 59 56 56 54 55 57 58 59 58 58 47 32 26 25 24 22 20 20 19 18 17 17 17 16 14 12 11 10 10 11
75 71 69 69 68 67 65 63 63 66 67 63 62 60 60 60 61 61 61 57 43 32 28 25 24 23 21 19 18 17 18 19 19 19 19 18 15 14 13 12 12 12 12
78 74 73 71 71 69 66 66 68 69 69 65 64 63 64 64 62 48 37 33 30 26 24 24 23 21 20 18 18 18 19 20 20 19 19 19 17 16 15 14 14 14 17
78 75 73 71 71 70 69 68 70 71 71 69 70 69 67 51 36 34 32 29 27 26 25 24 22 21 20 20 21 22 22 23 23 23 22 21 19 18 17 16 17 23 25
80 79 75 74 72 71 70 71 72 73 72 72 72 64 42 36 36 33 31 28 27 27 25 23 22 22 23 24 25 26 27 26 26 24 23 22 21 20 20 22 27 28 28
81 79 78 75 74 72 72 75 74 72 69 66 59 40 38 38 37 34 32 30 29 28 27 25 24 25 26 26 27 27 27 27 27 26 25 24 23 22 24 30 31 31 32
84 81 81 78 76 76 76 74 71 66 63 57 39 39 40 40 38 37 35 34 32 30 29 28 27 27 29 30 30 29 29 28 28 27 25 24 23 24 30 33 33 34 35

GFSMW_prec_cthk_075.txt.gz
RH
40 37 34 32 30 31 36 36 41 42 47 50 54 53 49 46 41 38 40 43 40 40 40 40 41 43 43 44 46 48 52 54 58 60 60 60 59 61 66 71 73 74 72
43 39 35 32 30 28 28 32 36 38 39 40 44 47 45 45 44 44 42 44 41 41 42 42 40 44 46 50 49 53 57 59 64 72 75 71 69 66 68 72 77 79 77
46 41 37 34 32 30 29 28 29 33 36 35 34 35 38 38 40 40 41 42 47 47 49 47 44 45 48 49 54 58 63 70 74 74 81 80 74 76 76 77 77 80 82
44 42 39 34 33 33 33 30 27 25 25 27 28 27 26 28 28 31 35 37 39 41 43 49 48 47 44 43 49 55 67 65 72 78 79 77 78 80 81 84 85 89 90
41 40 39 38 34 30 30 27 24 22 20 19 21 21 21 21 25 27 27 27 28 30 33 34 34 34 38 43 48 52 53 59 61 64 74 78 81 84 87 88 87 90 93
39 38 38 34 30 25 23 25 23 21 20 20 20 20 22 22 22 24 28 30 32 30 28 28 32 38 41 43 45 47 49 52 57 60 63 72 80 83 87 85 87 94 94
41 38 38 39 36 29 24 22 21 20 19 19 19 19 20 21 22 23 27 33 36 37 34 34 35 37 39 40 41 43 46 50 52 55 62 68 69 79 87 90 88 83 88
34 35 36 39 39 32 29 28 27 24 21 20 19 18 18 18 19 20 22 27 30 30 30 31 32 34 37 41 42 42 41 42 47 51 55 61 74 79 86 91 95 93 92
38 37 35 33 31 31 31 29 26 24 23 22 21 20 20 19 19 19 20 23 26 29 32 34 37 39 39 35 32 34 36 37 41 46 49 53 60 70 81 92 96 98 96
41 39 38 36 37 35 32 30 29 28 28 27 25 24 23 23 22 23 23 25 26 29 31 31 32 32 31 28 27 28 32 35 39 40 49 50 56 64 72 81 89 96 99
49 43 40 39 39 37 36 34 33 32 31 30 30 29 29 29 29 28 27 27 27 27 28 29 25 24 24 25 27 29 32 37 41 43 47 54 59 66 74 75 78 89 90
52 49 45 44 42 40 39 38 37 35 34 33 33 33 33 33 33 32 31 31 31 31 29 24 24 25 25 27 30 35 39 43 45 47 50 58 64 74 85 85 81 90 92
49 49 48 46 45 42 40 40 38 37 36 35 35 34 34 33 32 32 31 31 30 28 27 26 26 26 28 32 36 41 43 45 49 53 56 60 66 73 81 89 88 88 94
50 50 49 47 46 45 44 43 41 41 38 36 35 34 34 33 32 31 31 30 30 30 29 28 29 32 36 41 43 45 49 52 54 57 60 66 70 72 79 82 84 81 87
52 51 51 51 50 49 48 48 46 44 42 39 38 37 36 34 34 33 35 34 34 32 31 33 37 41 44 49 51 54 56 58 60 62 65 66 69 74 78 85 89 85 82
54 54 54 54 55 54 54 53 52 48 45 43 42 41 41 40 39 38 38 39 35 35 37 41 45 48 50 50 52 55 58 59 63 67 70 73 78 80 84 91 95 97 90
58 58 60 58 58 57 56 56 55 53 49 47 47 48 46 45 44 44 42 38 39 43 44 45 49 52 53 55 56 58 60 62 66 67 67 68 73 76 78 72 64 53 44
60 64 64 61 61 61 61 60 59 57 54 54 54 52 51 50 50 45 41 41 44 48 52 53 53 55 56 55 51 46 43 40 37 34 31 26 21 18 18 18 16 16 16
66 67 67 66 66 65 65 62 61 61 60 60 58 57 56 54 50 46 46 46 51 56 55 55 55 48 33 27 22 19 17 16 15 15 15 15 16 17 15 14 14 14 13
71 71 72 70 69 68 67 65 63 60 61 61 61 60 58 55 54 53 54 55 58 58 49 30 24 21 20 19 17 16 16 16 16 17 17 17 17 16 16 15 14 14 14
75 77 75 73 71 69 66 66 64 64 63 63 64 62 59 57 58 59 61 59 45 30 27 24 22 21 20 18 17 16 18 19 19 20 20 20 20 20 19 17 17 17 16
81 80 76 73 71 70 69 69 67 67 67 67 65 62 62 61 63 60 42 33 30 27 25 23 22 21 19 19 18 19 21 22 23 23 23 23 22 21 20 19 19 19 21
84 80 77 75 73 73 72 70 70 70 70 68 67 65 66 65 44 37 33 30 27 26 25 24 24 23 22 22 22 23 24 24 25 25 24 24 23 22 21 21 22 25 29
84 80 79 77 75 74 74 73 71 71 72 72 71 71 67 40 38 35 33 30 29 27 27 27 26 26 25 24 25 26 27 27 27 26 25 24 23 23 23 25 27 31 32
86 82 81 79 76 75 73 73 74 74 75 74 74 66 41 38 37 36 34 33 33 32 31 29 29 29 28 28 28 30 30 29 28 26 25 24 24 24 25 28 31 33 34
88 86 81 80 77 77 77 77 78 77 74 68 63 45 38 39 39 38 36 37 37 36 33 32 33 33 32 31 32 32 32 31 28 27 26 25 25 25 28 32 34 35 38

GFSMW_prec_cthk_078.txt.gz
RH
52 45 39 37 33 33 35 36 40 44 49 48 50 52 51 51 49 46 43 43 40 39 41 40 39 40 40 40 41 45 48 50 52 57 58 61 65 66 69 68 66 65 69
50 45 41 35 33 31 31 32 34 37 41 48 51 54 51 54 58 54 48 44 43 43 43 42 46 51 52 49 46 47 50 51 57 59 66 72 73 72 75 78 77 77 78
49 46 42 39 35 34 32 31 32 32 32 35 42 44 46 46 47 47 44 42 44 45 48 51 52 51 51 50 53 51 48 47 55 67 76 76 71 71 74 77 78 82 85
51 49 46 43 41 38 35 34 33 32 32 32 31 34 37 38 39 41 44 49 46 42 38 41 46 48 51 52 47 48 44 50 52 60 68 68 64 66 67 73 76 82 87
51 51 50 45 43 41 37 34 34 33 30 28 29 28 27 27 27 27 27 28 31 33 34 36 39 42 40 35 34 37 45 56 55 56 60 62 64 64 67 66 70 79 86
50 52 51 49 46 40 36 35 34 30 29 28 28 27 27 24 24 24 23 22 23 26 30 32 34 32 29 33 37 45 52 51 60 55 59 62 65 60 69 64 67 71 77
47 50 53 50 45 42 38 34 30 27 28 28 27 26 23 23 23 23 23 23 24 27 30 38 37 38 42 44 43 39 37 44 45 44 47 50 57 56 60 74 64 70 75
47 49 53 48 43 41 41 39 36 31 26 24 27 25 24 22 21 22 22 23 25 29 33 36 36 34 35 40 40 40 40 40 40 41 42 43 45 48 54 61 64 67 76
52 48 46 45 43 41 41 42 41 33 27 26 25 22 21 20 20 20 20 20 22 25 30 32 32 33 36 36 38 36 34 30 31 33 35 38 42 45 47 52 58 63 71
56 50 42 36 38 39 39 40 42 38 32 30 29 26 24 23 22 22 22 22 23 25 28 31 33 34 36 36 33 30 25 25 27 32 33 37 38 43 43 50 54 59 71
55 55 47 38 37 37 37 36 35 36 34 30 30 29 29 29 28 28 27 26 26 27 28 29 30 30 31 28 25 25 25 26 30 34 37 41 41 44 49 51 55 59 67
50 60 52 44 42 41 40 39 41 38 36 34 34 34 33 33 32 32 32 32 32 32 31 30 29 31 26 25 25 26 28 32 34 37 41 41 43 47 51 52 55 64 70
50 50 58 56 52 47 43 42 41 40 38 37 37 36 35 34 34 34 34 33 33 33 32 32 29 28 27 26 27 30 34 37 38 41 45 48 51 55 55 60 62 66 71
51 52 55 57 57 52 47 44 43 41 40 39 39 38 36 35 34 33 33 32 31 30 28 29 29 28 27 28 33 37 42 44 45 49 52 51 55 59 59 62 65 69 75
55 54 54 55 51 51 47 46 45 44 43 42 41 40 39 37 36 34 33 32 31 32 33 33 30 30 34 37 42 46 48 49 51 52 52 55 59 61 63 66 70 75 80
54 55 56 56 54 53 52 50 50 50 49 47 44 43 42 42 40 37 36 37 37 37 35 34 36 40 40 43 46 48 51 51 51 53 50 48 52 53 56 57 56 59 60
51 56 59 59 59 58 56 55 55 56 55 52 48 47 47 47 45 43 42 41 41 38 39 41 42 43 46 47 49 49 48 41 37 36 36 34 35 36 36 33 28 21 17
57 60 60 62 64 62 61 60 60 59 58 56 53 52 52 53 52 50 48 45 41 42 43 46 48 49 50 46 37 30 26 24 23 21 19 16 15 14 14 14 14 14 15
61 63 64 66 66 65 65 65 65 62 62 61 60 58 58 57 55 52 49 46 45 46 49 52 51 40 29 23 19 17 17 16 15 16 16 16 16 16 15 16 16 16 17
66 69 70 70 70 69 68 68 67 65 64 64 64 63 61 61 58 54 52 52 54 54 51 37 27 23 20 19 18 17 16 16 17 18 18 19 19 19 19 18 18 18 18
72 73 72 74 73 71 70 69 68 68 65 63 64 64 63 63 60 58 57 59 57 43 29 25 24 22 21 19 18 17 17 18 19 20 21 22 22 22 21 20 19 19 18
73 74 78 78 75 75 73 71 70 69 68 67 66 67 66 64 63 63 64 53 35 28 27 25 24 23 21 21 21 20 21 22 23 24 24 24 23 22 21 21 20 20 20
77 80 81 80 78 77 76 76 75 73 73 72 72 71 67 67 67 63 40 32 29 28 26 26 25 24 24 24 24 24 24 25 26 26 26 26 24 23 23 22 22 23 25
82 82 83 82 81 79 77 77 77 76 77 75 75 72 70 71 57 37 34 32 30 28 28 28 27 27 27 28 28 28 27 28 28 28 28 26 25 24 24 25 26 28 31
88 88 86 85 83 81 79 78 77 76 76 75 76 74 74 56 38 37 35 33 32 32 32 32 31 31 31 32 32 31 31 31 31 30 29 28 27 26 26 28 31 34 36
92 90 89 86 84 82 80 78 78 78 77 79 78 78 68 41 39 38 37 35 34 34 35 36 35 35 35 35 36 35 34 34 33 33 32 31 29 28 29 32 36 37 38

GFSMW_prec_cthk_081.txt.gz
RH
68 65 59 53 47 42 40 40 43 49 54 54 51 49 48 49 49 45 44 44 42 42 42 38 38 40 40 39 43 49 50 47 47 49 47 48 52 57 68 74 74 76 80
67 61 56 50 46 42 39 37 39 44 46 50 52 54 52 52 52 51 52 55 55 50 47 49 55 48 44 50 55 53 50 48 54 53 52 56 60 65 67 71 70 71 78
57 55 52 53 44 40 38 36 36 36 43 48 50 50 50 49 50 50 48 54 63 63 60 57 50 53 56 54 51 51 55 56 56 56 55 62 57 56 62 63 61 65 67
51 49 48 46 47 43 40 37 36 36 36 34 33 37 44 46 47 50 51 52 55 55 54 56 53 46 45 48 48 52 52 51 46 45 52 62 64 69 62 62 62 60 62
51 50 48 50 47 46 44 40 38 37 36 35 35 33 31 31 33 37 39 41 41 40 39 38 38 36 37 38 38 39 39 38 42 53 76 63 61 62 64 56 62 57 52
49 51 51 50 50 49 47 45 40 38 35 33 32 33 32 31 29 29 29 30 31 29 29 30 30 31 32 33 34 35 34 38 43 48 48 46 51 47 60 51 48 54 50
43 49 52 53 52 52 52 47 45 41 36 33 31 29 27 29 29 28 27 27 26 26 26 27 29 30 33 39 44 48 52 45 40 38 42 42 42 44 44 46 51 45 45
36 48 55 55 54 54 54 51 45 40 37 34 31 29 27 28 29 29 29 26 25 25 26 27 30 34 36 38 43 39 42 40 41 40 40 38 39 39 41 43 44 43 45
36 41 55 55 52 52 53 50 46 44 40 34 32 32 30 29 28 28 28 26 23 22 23 26 31 35 36 36 37 39 41 40 38 34 30 30 31 33 38 42 42 46 46
40 41 49 53 52 50 51 53 45 43 44 43 41 38 31 27 25 24 24 23 23 23 25 28 30 33 37 41 41 39 38 36 32 26 28 30 34 36 41 43 45 47 50
50 48 50 56 52 48 54 50 47 45 45 44 45 44 36 33 31 29 28 26 26 26 28 29 31 33 35 36 36 36 35 29 25 26 28 31 34 37 39 42 45 49 50
49 51 51 53 57 47 46 44 47 46 45 43 43 46 40 35 33 32 32 32 33 33 33 33 33 33 32 30 30 31 27 25 26 29 32 34 37 40 44 46 49 51 51
54 51 49 50 61 52 46 42 41 40 40 39 38 37 38 38 36 36 35 34 34 35 35 35 35 34 34 33 29 28 26 26 31 34 37 40 44 48 48 50 52 54 55
58 52 49 52 61 62 53 49 45 44 42 40 42 42 40 38 37 37 36 35 34 34 35 34 34 32 30 30 30 27 29 34 38 42 44 47 48 49 49 50 52 53 55
58 54 51 52 54 61 63 60 56 53 47 44 42 42 40 39 39 38 37 37 37 35 35 34 33 34 33 31 33 37 41 43 45 46 47 47 45 45 43 43 43 43 42
61 56 55 55 55 55 61 57 57 58 53 50 48 44 43 42 41 41 40 39 38 37 37 38 37 35 38 42 42 43 46 46 47 47 39 35 32 32 33 36 37 38 39
61 62 57 59 60 59 60 62 56 58 56 53 52 50 47 46 46 47 46 44 43 42 40 40 40 42 42 43 45 47 46 40 35 31 29 26 26 25 24 20 17 15 15
57 58 60 64 64 65 64 65 61 61 59 58 56 55 53 51 52 52 51 48 45 44 44 43 46 45 47 48 45 34 26 21 19 18 15 14 15 15 15 16 16 16 17
61 58 61 64 64 66 67 70 69 65 63 62 60 59 58 57 56 56 55 52 50 48 47 47 49 50 39 26 21 19 18 18 17 16 16 16 17 18 18 18 18 18 18
53 61 64 68 71 70 69 70 69 67 66 64 64 63 63 61 62 61 57 54 52 50 50 48 40 31 24 21 20 19 19 18 17 17 18 20 20 21 21 20 20 19 18
65 67 68 72 72 74 75 73 71 70 69 67 66 65 66 66 64 62 59 57 56 55 43 37 30 23 22 21 21 20 19 19 19 20 21 22 23 23 23 21 20 20 19
74 74 73 73 75 79 77 77 76 73 71 70 69 66 66 66 66 64 62 61 56 44 37 27 24 23 23 23 23 22 22 22 22 23 25 25 25 24 23 23 23 22 21
75 76 77 77 81 81 80 79 77 76 74 72 70 69 68 69 67 66 65 58 45 34 27 26 25 24 25 25 26 26 26 26 26 26 26 26 26 25 25 25 25 25 26
79 80 80 82 84 85 83 81 81 81 79 76 76 74 74 70 69 69 60 42 32 29 28 27 26 27 28 29 30 30 30 31 30 30 29 28 28 28 28 29 29 29 30
90 90 88 88 86 87 85 83 81 81 80 80 79 77 75 73 73 60 41 33 32 31 29 29 30 32 33 34 34 34 34 34 33 32 32 31 31 31 31 32 32 33 36
91 91 92 90 88 88 86 84 82 81 80 81 78 78 76 75 63 45 37 35 33 32 32 32 34 35 37 37 37 37 37 37 37 36 35 35 35 35 36 36 36 37 39

GFSMW_prec_cthk_084.txt.gz
RH
77 79 80 83 75 66 64 64 68 70 72 66 63 60 57 55 51 50 53 52 47 47 43 42 43 43 41 41 45 43 44 52 53 52 48 52 51 49 52 54 63 64 69
75 74 73 74 69 64 59 57 58 59 62 66 66 64 60 56 53 55 57 58 62 60 53 54 55 54 51 59 54 53 56 55 54 54 57 55 55 50 48 56 56 63 65
72 69 69 69 66 63 59 53 51 51 51 52 54 54 57 55 54 53 53 56 61 63 64 68 70 67 61 56 61 65 57 56 56 56 59 58 48 45 51 56 62 60 58
68 68 65 66 66 58 56 55 47 44 44 43 44 45 47 47 48 51 54 56 55 56 59 58 59 58 57 55 54 52 50 49 46 46 46 42 44 51 64 57 55 57 56
69 62 56 60 59 56 51 49 48 48 44 42 41 40 39 39 40 43 47 47 48 53 55 53 53 54 54 45 40 37 38 39 42 44 39 41 40 50 52 47 48 42 53
64 62 58 54 52 52 52 51 47 47 46 45 41 38 35 34 34 34 34 34 35 38 40 39 37 37 34 32 31 33 34 35 37 43 46 46 46 46 46 44 42 43 43
52 56 52 53 54 52 51 53 50 49 46 43 41 38 36 34 32 32 32 32 31 31 30 31 32 32 32 32 31 34 38 39 45 49 44 42 41 41 40 39 36 37 40
45 45 50 50 51 54 54 53 54 51 49 46 42 38 35 33 31 29 28 28 29 30 30 31 30 30 33 34 34 37 39 41 44 37 40 40 38 34 32 37 37 39 41
40 41 41 43 51 53 56 55 53 53 52 49 46 41 38 34 31 30 27 28 28 29 29 29 29 27 28 35 38 41 39 38 39 40 40 37 33 29 30 32 34 39 44
38 42 44 43 47 51 59 58 56 53 50 49 47 43 42 39 35 32 32 31 29 27 25 27 29 30 32 38 41 39 40 41 39 35 35 31 27 29 32 35 37 42 44
42 44 48 46 45 50 59 58 55 52 50 51 51 47 44 41 38 38 37 35 30 28 27 26 27 31 32 33 39 39 40 39 36 33 32 26 28 31 33 37 38 40 43
52 52 54 53 48 48 54 54 52 50 51 54 53 46 43 45 47 46 44 38 34 32 32 31 31 32 34 35 36 36 34 33 33 30 28 27 32 35 38 41 44 46 47
58 59 57 57 54 49 50 58 56 50 49 53 50 47 47 49 45 44 47 44 37 34 34 34 35 36 35 35 36 35 34 32 31 29 29 34 39 42 43 44 46 47 47
61 63 63 57 54 52 51 52 62 52 50 48 48 47 45 43 44 41 39 40 40 37 35 36 35 36 35 36 34 33 32 31 30 33 38 42 44 43 45 44 42 40 39
67 67 64 60 55 54 54 58 62 59 53 48 43 42 41 40 40 41 42 41 38 37 35 34 34 33 34 34 34 35 34 37 42 43 45 46 42 36 36 34 34 34 35
78 69 66 61 60 58 57 60 65 66 68 59 56 53 46 44 43 44 46 44 39 38 38 36 36 37 37 37 40 43 45 46 47 46 46 36 33 32 31 30 30 30 29
66 69 70 66 65 64 61 59 61 63 63 62 59 59 56 53 49 48 47 45 42 42 41 40 41 41 42 43 46 47 46 48 44 36 30 26 25 21 18 16 15 16 16
66 67 69 68 67 67 65 64 64 63 64 66 62 63 64 59 53 53 51 49 48 47 45 44 44 45 47 47 48 49 42 30 22 18 18 18 17 16 16 17 18 18 19
67 65 65 65 69 71 71 69 68 67 65 71 65 62 63 59 58 57 55 55 54 52 50 49 50 49 50 45 34 25 21 19 19 19 19 18 18 18 19 20 20 20 20
67 69 65 66 67 68 69 70 69 70 72 70 70 69 64 63 63 62 60 60 58 57 56 54 51 46 35 28 23 20 20 20 20 19 19 19 20 22 22 22 22 21 21
69 66 67 74 75 73 74 72 72 73 72 72 71 70 67 66 67 66 64 65 64 61 57 50 42 33 28 23 21 21 21 21 21 22 22 22 23 24 24 23 23 22 23
66 69 71 70 70 72 73 78 79 76 76 75 73 73 72 69 67 69 69 69 66 61 51 44 38 30 24 23 23 22 22 23 24 25 26 26 26 26 26 25 24 24 25
75 77 77 76 76 77 78 80 79 79 78 77 75 74 74 72 71 71 71 70 67 56 47 39 31 26 25 25 24 25 26 27 29 30 30 30 29 29 28 28 28 28 30
79 78 78 80 79 80 82 85 86 85 82 80 79 78 76 74 74 74 74 71 61 48 40 32 27 27 26 27 28 30 31 33 34 34 34 33 32 32 31 31 31 32 34
83 85 86 88 87 86 86 89 88 86 86 86 85 82 82 81 78 77 76 66 52 42 33 29 29 28 29 30 32 34 37 38 38 38 38 37 36 35 34 35 36 37 38
88 89 93 92 92 89 88 89 89 88 85 86 85 85 84 83 80 80 74 53 42 36 33 32 30 31 32 35 37 40 41 40 39 40 40 40 40 40 41 41 42 41 41

GFSMW_prec_cthk_090.txt.gz
RH
66 63 70 75 77 74 73 79 76 82 78 79 77 79 76 68 71 72 72 68 59 54 50 48 47 45 44 46 45 44 45 50 53 58 58 56 58 53 51 48 44 44 44
63 61 68 77 79 79 78 80 80 81 84 81 82 82 84 82 80 77 72 69 63 59 54 53 53 55 59 62 64 63 62 65 69 68 64 61 56 49 48 44 40 44 38
60 67 71 76 78 82 83 80 77 78 75 76 79 83 86 82 86 83 78 69 69 67 64 67 62 67 69 67 67 68 72 76 74 73 67 62 51 44 41 38 39 44 41
59 68 71 76 80 79 82 74 78 74 74 78 82 84 83 82 84 85 84 79 75 73 72 67 66 66 63 61 62 67 72 69 69 65 60 53 48 44 45 41 51 47 45
56 61 64 70 76 75 75 74 68 72 76 72 80 80 78 79 80 82 84 86 78 71 67 64 63 59 58 55 59 62 63 61 59 53 46 41 41 42 42 44 51 50 43
50 59 66 67 69 70 73 74 74 69 66 68 68 73 73 73 69 67 61 56 54 52 51 50 48 46 46 47 49 50 49 48 45 41 39 40 43 41 42 44 45 49 42
49 51 59 68 68 70 70 73 77 78 74 71 70 69 68 67 67 63 56 48 45 41 38 37 38 39 40 39 39 40 40 40 39 40 39 44 46 44 42 42 44 44 40
50 52 54 62 75 81 75 71 71 71 72 72 71 71 72 70 63 57 50 46 43 40 36 34 34 34 33 32 34 35 38 41 41 44 45 50 47 43 42 41 46 44 40
44 51 53 56 66 74 81 77 72 69 66 66 63 60 59 58 57 56 52 48 44 39 37 36 34 33 34 33 31 33 38 43 45 47 43 46 42 41 41 43 42 40 39
37 40 47 51 55 64 75 68 64 63 64 63 62 60 55 53 52 52 52 50 48 46 43 41 39 37 33 31 31 33 37 43 41 42 47 47 43 44 41 40 37 35 34
32 36 41 44 48 48 53 63 65 63 58 58 60 60 57 55 55 52 49 47 45 44 42 40 38 36 33 35 39 40 41 44 45 41 46 44 43 44 37 35 33 32 34
39 38 37 37 38 43 47 51 57 62 61 62 59 61 62 58 56 54 52 49 47 46 46 44 42 43 43 45 44 49 50 45 50 44 41 44 41 37 35 32 31 35 38
44 43 44 44 43 44 45 48 49 53 62 67 62 59 57 59 58 56 53 50 49 49 50 48 45 46 47 49 51 51 51 44 46 46 46 39 37 35 32 32 38 40 41
47 47 48 50 50 50 53 55 55 54 54 58 59 57 53 55 52 50 49 47 51 52 51 48 44 45 48 47 46 47 48 48 46 40 39 37 34 32 35 42 42 40 37
50 51 52 53 54 54 56 58 60 60 58 56 54 54 51 53 54 53 53 50 50 51 49 47 48 49 46 44 39 40 40 40 39 38 35 36 36 41 45 41 34 32 30
53 55 55 55 57 59 60 60 61 62 61 61 59 59 55 54 59 59 57 54 50 49 49 50 48 46 43 40 41 41 42 38 38 43 39 44 47 46 38 31 29 28 27
54 56 58 58 62 66 68 69 67 67 67 65 65 64 61 58 58 60 63 63 56 52 50 44 43 42 42 43 44 44 46 43 50 49 49 49 44 33 27 22 20 18 17
57 60 61 61 62 63 73 74 73 72 71 70 67 66 66 65 64 67 67 67 66 61 56 52 49 47 45 46 50 49 48 49 51 52 49 37 24 20 20 20 19 19 19
61 65 64 62 62 64 68 76 77 77 75 72 70 68 66 64 66 70 72 72 70 65 63 60 56 54 53 53 51 51 51 53 51 38 24 20 20 21 21 21 21 21 21
66 66 66 66 67 68 67 72 78 80 79 77 74 73 69 67 67 66 66 70 71 69 65 66 64 62 58 60 57 54 49 38 28 23 21 20 22 22 22 23 23 23 23
64 67 67 67 70 70 73 70 74 78 80 79 79 80 81 80 77 74 73 74 73 73 69 68 63 62 61 55 51 41 32 26 24 22 21 23 24 24 25 26 26 26 26
65 67 70 71 72 74 73 77 81 82 79 78 79 79 80 80 78 77 76 77 77 78 78 75 70 65 57 50 40 34 28 25 22 22 25 26 27 28 29 30 30 30 30
70 72 73 74 75 75 77 87 86 82 84 84 84 88 88 85 82 80 84 83 81 81 81 78 74 66 57 43 37 31 27 24 23 27 29 29 30 32 34 34 35 34 35
69 70 71 72 75 79 81 82 85 86 87 85 87 88 90 88 87 85 85 86 86 86 85 83 71 60 50 42 36 32 28 26 28 30 30 33 36 38 40 40 40 39 40
75 75 76 81 84 87 88 87 86 86 87 89 91 92 91 90 92 91 89 87 86 85 85 77 64 56 50 43 38 32 29 30 31 32 35 39 42 44 43 43 44 45 45
87 85 85 95 90 87 87 89 91 93 93 92 93 95 94 92 92 93 91 89 87 87 84 69 60 52 47 40 34 31 32 32 34 36 39 43 46 46 46 48 50 51 50

GFSMW_prec_cthk_093.txt.gz
RH
51 52 53 55 60 70 73 75 76 73 70 72 73 80 84 78 75 65 63 68 67 64 63 66 62 53 46 46 47 47 50 52 55 57 59 64 65 61 59 54 49 52 48
48 59 48 57 58 70 74 78 83 82 77 72 73 76 81 87 86 79 71 66 67 67 69 69 62 57 51 50 54 61 65 65 66 67 73 75 73 68 62 52 47 46 42
41 53 50 57 68 68 74 80 86 85 84 75 74 80 81 82 85 83 84 83 77 74 73 69 67 64 61 62 63 68 67 67 65 69 78 73 70 65 57 49 41 39 39
36 51 54 45 61 69 75 79 82 86 84 84 74 70 76 79 80 79 80 84 81 82 79 82 82 76 73 72 70 70 68 68 66 68 69 65 62 57 49 44 40 38 42
37 44 50 46 56 68 75 77 76 82 79 77 83 79 74 74 82 82 84 83 77 82 90 89 88 85 79 75 73 68 64 59 60 62 57 55 55 48 45 43 45 47 42
36 47 47 46 55 63 68 74 73 75 82 80 79 82 84 84 82 83 87 84 81 79 80 78 77 78 73 65 62 61 55 55 58 58 54 49 44 43 42 50 50 48 45
37 43 49 45 53 63 69 74 75 75 75 77 79 76 79 81 85 81 87 86 84 77 66 67 65 54 51 48 45 45 46 48 50 45 47 47 47 45 47 49 51 46 44
36 39 47 51 55 61 68 70 72 70 69 73 75 72 75 77 77 76 79 78 72 66 58 54 49 45 44 43 43 45 51 50 47 48 44 48 47 49 50 45 48 42 44
40 44 45 49 50 58 62 67 71 73 73 72 73 76 79 79 79 76 76 76 67 62 58 53 50 50 48 43 40 43 47 47 47 46 47 49 49 48 47 47 44 44 45
33 40 47 51 52 58 63 69 79 79 73 69 71 70 69 69 71 69 65 64 62 61 59 55 50 46 44 43 42 45 46 46 42 48 45 57 51 48 47 49 44 45 43
31 35 39 44 52 56 57 64 71 80 85 80 75 72 70 67 66 64 62 61 59 58 56 51 48 47 47 45 42 42 41 42 43 48 51 51 56 46 50 42 45 40 40
33 31 33 39 43 49 54 57 57 67 70 75 72 68 68 67 67 67 64 61 57 56 53 51 49 48 48 46 45 46 48 49 51 50 56 57 59 48 49 44 39 39 37
35 35 36 38 40 41 44 48 51 54 59 59 63 67 70 66 64 60 62 61 60 58 56 54 53 53 52 52 52 49 50 53 57 57 58 54 52 51 50 41 39 34 37
38 38 39 40 41 43 45 45 46 47 49 50 52 55 61 68 69 65 60 56 56 57 53 52 51 52 52 54 54 51 52 53 54 51 51 52 51 44 41 37 35 39 43
44 42 43 44 44 46 48 47 48 51 53 54 55 54 54 53 56 58 60 59 56 52 52 49 49 49 51 51 50 48 50 53 51 47 42 41 41 38 37 39 44 43 41
48 48 48 49 49 51 52 53 54 55 57 58 58 59 58 56 54 54 54 55 57 59 54 51 49 47 50 50 49 51 50 48 44 40 42 42 41 40 46 47 46 38 32
45 45 47 50 52 54 55 55 56 60 61 62 63 62 62 62 60 58 58 58 61 62 59 58 52 47 47 49 50 50 49 46 43 44 42 45 47 55 51 43 36 28 25
47 49 51 54 56 57 57 58 58 62 66 68 68 67 67 68 66 65 63 59 59 61 62 63 61 56 50 48 46 47 48 48 47 51 55 55 52 48 37 29 21 20 21
51 53 56 58 60 58 58 59 62 64 70 74 73 73 72 72 69 66 65 64 64 66 70 68 68 64 59 57 56 55 54 57 61 58 54 52 38 27 26 21 21 22 23
57 60 61 64 65 63 62 63 65 66 70 77 78 78 77 74 72 70 69 67 66 68 70 72 72 68 63 60 61 61 62 64 65 60 39 28 28 24 22 22 24 25 24
61 67 69 69 69 71 70 69 70 68 69 74 78 81 80 79 77 78 78 76 73 70 67 69 71 71 70 63 65 66 65 56 45 34 29 29 25 22 23 26 27 27 27
61 65 66 67 68 69 72 72 73 71 74 76 79 78 78 76 77 81 80 78 78 77 75 74 75 74 74 72 67 59 54 44 38 31 28 26 24 24 28 29 29 30 31
63 65 66 68 71 73 74 74 76 74 83 84 82 83 82 80 84 86 84 85 82 81 81 80 80 81 78 71 60 56 47 41 36 32 28 29 27 30 31 31 33 34 36
70 70 72 75 78 77 75 73 76 79 81 84 86 84 84 84 85 87 87 86 86 86 86 87 87 87 82 71 62 54 47 39 33 30 33 29 32 33 34 36 38 41 43
74 74 75 75 73 75 80 84 85 87 87 87 86 86 88 89 93 92 92 92 91 90 89 90 90 90 80 67 59 51 43 38 36 35 32 34 35 36 39 42 44 46 47
86 84 84 82 83 86 90 91 86 87 86 89 91 91 92 93 94 96 94 94 94 92 90 90 91 87 72 64 55 49 46 43 39 35 35 36 38 42 44 46 48 50 52

GFSMW_prec_cthk_096.txt.gz
RH
53 49 46 46 55 58 59 63 64 68 71 71 72 74 75 78 79 77 72 67 65 63 59 58 60 60 60 60 50 44 43 46 51 59 61 61 64 68 72 70 68 62 50
48 49 44 49 52 55 57 58 64 67 67 68 68 68 71 77 78 82 82 80 74 67 64 62 63 64 69 66 59 52 49 52 58 62 63 61 64 71 71 67 63 54 49
43 47 46 46 51 54 57 54 61 67 69 69 75 76 75 77 81 84 85 86 86 84 80 77 72 74 75 71 66 61 59 60 64 67 67 68 66 68 65 60 58 52 45
39 40 41 43 47 50 58 63 59 66 75 75 77 82 85 84 86 92 94 91 90 91 90 88 88 86 85 83 82 80 80 78 76 77 69 66 66 65 64 60 55 48 43
34 35 36 38 42 44 47 58 65 67 72 79 83 84 85 85 84 87 85 88 85 86 88 89 87 85 83 82 82 87 86 84 78 73 69 61 65 71 63 57 51 46 47
34 32 38 39 39 37 42 46 54 68 75 76 79 81 81 79 88 88 88 88 81 82 83 87 88 87 86 86 84 85 86 80 70 62 57 55 60 54 54 56 50 51 54
30 33 37 41 36 37 40 48 56 62 72 79 79 80 80 86 85 86 92 89 90 88 86 88 88 88 78 76 78 73 69 60 56 55 58 61 59 64 61 54 52 51 50
33 37 43 41 39 39 42 47 54 60 68 72 77 76 75 79 86 84 86 82 85 85 84 86 85 80 72 63 57 62 61 58 59 56 55 57 62 61 58 59 55 53 50
33 35 42 42 36 38 42 48 52 60 64 73 74 74 73 72 75 81 79 77 76 76 75 79 76 70 63 62 63 58 52 52 50 52 55 59 57 53 59 61 56 52 55
33 36 37 40 38 38 44 49 53 58 66 71 67 69 74 77 78 73 72 76 73 70 69 68 64 62 58 54 51 49 46 49 52 53 54 58 48 57 54 65 56 55 49
30 35 38 41 39 42 47 49 54 62 67 70 68 71 80 78 74 72 72 72 70 68 64 62 62 60 57 55 52 48 46 50 50 50 56 48 59 55 61 65 58 57 49
31 29 30 35 38 41 48 52 56 61 68 75 76 81 79 76 76 72 70 67 66 63 62 62 60 57 54 52 50 49 53 54 52 54 55 55 55 58 62 69 64 55 49
34 32 32 33 33 35 39 45 54 58 62 63 66 68 67 69 73 73 71 71 70 70 67 65 60 56 55 54 54 55 56 57 57 61 58 55 58 56 59 60 54 49 45
36 36 38 37 38 38 39 40 42 45 47 49 49 52 56 58 59 63 63 66 66 65 61 57 57 58 57 55 55 53 54 58 59 59 59 60 59 59 57 52 43 42 39
39 41 41 41 42 41 41 41 42 44 45 47 49 52 53 53 54 53 53 55 56 63 65 63 61 56 53 52 52 52 51 52 56 56 56 57 59 57 50 43 43 39 39
44 47 46 45 45 45 45 46 47 48 49 50 52 54 56 56 58 58 58 55 52 52 56 59 60 61 57 55 52 52 49 50 52 51 52 55 52 50 43 42 43 49 53
47 48 49 49 48 49 49 49 52 54 54 54 57 60 61 62 63 63 62 62 61 58 56 55 58 60 62 60 59 53 50 49 50 53 54 53 49 46 44 46 52 52 41
49 49 48 50 48 49 51 52 52 53 53 55 58 61 63 66 68 67 65 65 64 63 60 58 59 63 65 63 62 59 55 52 53 53 50 47 46 47 55 59 53 40 29
50 50 50 51 53 55 54 54 53 54 57 59 62 66 69 71 73 72 71 70 69 66 66 66 63 62 64 69 69 67 62 58 59 59 57 56 58 58 55 40 26 23 28
57 58 57 57 59 59 58 56 56 57 60 64 67 68 70 73 76 76 75 72 70 69 68 67 66 64 68 71 72 71 69 64 65 63 64 65 65 55 33 26 29 29 24
57 62 66 67 66 66 63 65 65 66 67 69 69 70 71 72 75 78 77 77 76 75 75 73 72 70 72 74 75 73 70 70 68 69 69 60 41 34 29 28 29 25 28
56 62 69 73 74 72 71 71 70 70 69 70 71 72 78 80 79 78 77 74 77 80 79 78 77 76 78 79 75 73 72 67 62 57 45 39 33 31 30 31 27 30 31
59 64 66 68 69 69 69 69 70 72 72 73 78 81 82 82 82 83 82 83 84 83 84 85 81 81 81 82 80 74 67 67 59 48 42 38 34 33 33 30 31 33 34
70 69 69 70 70 71 73 74 77 75 73 78 80 81 82 83 83 84 86 86 86 89 90 88 88 88 89 89 83 70 63 60 52 47 43 38 37 36 34 35 35 38 39
73 72 76 76 76 77 76 77 76 75 83 85 86 86 86 86 86 87 89 90 94 93 93 94 91 92 93 93 84 73 64 59 54 50 44 39 36 35 38 37 40 42 47
81 82 79 78 79 80 79 81 82 85 88 89 86 86 87 88 89 91 94 95 95 95 95 95 96 93 94 93 80 72 64 59 55 49 41 39 37 39 39 42 44 49 52

GFSMW_prec_cthk_099.txt.gz
RH
54 55 50 51 54 61 66 69 72 74 75 72 68 64 64 67 70 72 72 72 69 68 65 60 58 55 55 54 54 59 60 55 46 46 51 56 58 59 62 68 69 67 62
58 55 51 49 50 54 58 62 68 70 70 70 70 70 75 78 78 75 75 75 77 79 78 74 71 69 62 60 59 63 66 64 58 53 56 59 61 62 64 67 66 67 58
54 51 51 48 48 51 52 56 63 69 73 70 73 78 81 82 82 78 73 80 84 90 91 90 84 82 78 73 74 72 69 72 72 69 66 68 67 67 63 63 70 64 63
47 45 46 45 43 45 50 51 55 61 68 75 72 77 77 77 83 87 82 89 89 90 94 94 91 92 92 86 90 89 88 87 85 90 90 87 82 74 73 69 68 66 58
45 41 39 42 42 44 46 47 48 47 52 62 67 74 73 76 76 77 81 86 93 95 93 90 90 93 92 88 88 92 92 91 88 88 91 92 90 75 68 67 67 60 64
45 40 38 36 33 37 44 47 48 50 52 58 70 73 72 72 78 80 81 81 87 89 91 86 91 90 92 88 88 89 90 91 88 88 88 91 75 64 70 69 67 68 58
46 36 33 34 34 37 36 40 41 41 47 49 64 74 74 74 75 81 84 86 86 88 92 90 96 93 92 90 88 88 88 86 83 74 76 78 72 74 68 70 70 65 59
37 36 33 34 34 37 39 41 42 42 45 50 54 56 60 70 75 78 82 79 78 81 83 84 91 91 86 89 91 89 84 78 68 68 73 86 78 62 60 63 67 61 61
34 32 32 33 34 36 38 36 39 44 47 49 51 56 63 68 72 74 73 71 72 77 81 76 79 76 74 72 70 72 73 66 65 57 52 57 59 59 58 62 63 61 69
33 34 33 37 43 39 35 37 36 40 45 49 53 59 66 70 70 69 70 69 73 76 77 78 79 78 75 66 63 60 60 55 51 48 50 52 61 61 58 63 58 69 71
40 39 39 39 39 38 40 38 39 41 44 48 52 54 58 63 70 70 72 75 78 77 75 74 72 69 65 61 60 59 56 54 51 51 55 58 56 58 60 60 68 62 62
40 39 37 37 40 40 39 40 41 44 49 53 59 64 67 71 74 79 78 73 71 72 71 69 66 65 64 63 60 60 57 55 52 53 52 53 58 58 55 63 62 62 63
37 37 38 39 41 41 38 39 41 45 50 56 63 67 72 75 73 71 69 71 75 74 74 75 73 73 68 65 63 60 58 55 57 56 59 59 62 62 60 61 58 64 64
34 35 35 36 38 38 37 37 39 40 46 54 58 62 65 64 63 60 57 55 59 65 71 68 66 69 65 63 61 60 59 59 59 57 58 60 62 63 63 62 59 66 61
41 40 40 39 40 39 38 39 38 39 41 44 47 50 53 55 54 53 54 54 56 57 58 56 54 58 62 60 59 57 55 55 56 56 56 56 59 59 61 61 60 57 53
43 40 43 43 43 42 42 41 41 43 44 46 48 49 50 51 52 55 57 59 59 58 57 56 55 53 51 52 60 62 61 59 55 56 56 55 55 59 58 59 56 54 51
45 44 45 49 48 45 46 45 47 49 50 51 52 54 55 56 57 59 60 61 61 62 61 60 59 57 55 52 52 56 58 61 62 61 55 54 53 51 55 55 55 53 47
55 50 50 50 52 51 52 52 53 53 53 53 53 54 55 56 58 60 62 65 67 66 65 62 60 59 58 57 55 56 60 66 67 64 63 57 53 52 52 51 50 53 56
60 59 57 55 53 53 53 51 51 52 53 54 54 55 57 60 64 66 68 71 71 71 69 67 65 64 63 62 62 62 65 68 67 68 70 63 58 57 55 54 59 61 57
56 58 58 58 58 57 58 58 57 57 56 55 57 59 61 66 67 69 71 73 74 75 73 71 68 67 67 66 65 67 67 67 68 70 74 73 69 70 68 69 63 46 33
55 61 65 66 67 67 65 64 63 62 61 62 64 66 69 70 69 70 69 71 72 72 72 72 73 75 74 72 72 74 74 71 73 73 74 74 73 70 65 56 42 37 34
54 63 68 71 73 75 76 73 71 71 70 71 72 72 73 73 74 76 77 79 78 78 78 79 79 80 81 79 77 78 81 80 77 74 76 72 64 56 46 41 40 36 34
62 61 67 74 77 79 79 78 77 76 75 75 77 79 77 79 80 80 81 80 80 81 81 82 83 84 85 85 85 85 84 83 76 70 63 59 52 49 43 39 38 36 38
72 70 69 71 72 72 74 75 77 77 77 80 80 79 78 80 81 81 82 83 84 84 84 85 86 90 90 90 90 90 89 81 75 68 60 54 52 47 42 42 37 38 40
76 75 76 78 79 78 79 79 79 80 81 80 78 81 83 83 85 85 86 87 88 88 89 89 92 91 91 93 92 95 90 80 74 67 61 54 52 45 43 41 44 41 43
76 79 81 81 80 81 82 82 82 81 78 80 83 86 87 88 87 84 85 88 89 92 93 93 92 93 94 94 94 94 88 80 74 66 59 53 48 44 42 42 41 43 44

GFSMW_prec_cthk_102.txt.gz
RH
69 63 66 73 79 78 75 72 73 78 77 76 78 71 73 76 77 72 73 74 70 69 67 65 61 59 59 58 57 56 55 55 59 61 59 53 50 55 58 62 64 71 68
72 64 60 60 68 71 75 80 76 75 73 74 84 73 73 75 76 73 68 71 72 72 74 73 72 71 70 71 74 73 70 62 64 63 62 64 61 60 62 65 66 67 67
77 70 62 57 58 59 67 74 72 72 72 74 76 83 83 81 80 79 79 79 79 79 76 77 78 80 80 80 85 87 86 83 83 85 79 75 72 73 73 74 74 72 73
76 69 60 58 56 55 59 67 67 68 67 68 68 79 74 78 85 82 82 84 83 86 87 87 91 91 91 88 88 88 87 89 91 94 94 93 92 89 91 87 80 75 71
70 64 60 55 55 55 54 60 61 62 61 64 68 71 73 75 81 78 80 80 82 81 89 90 94 98 95 96 97 96 95 94 92 89 92 92 96 94 94 97 81 73 86
57 57 55 58 54 52 53 53 56 60 58 58 66 68 68 69 71 73 78 83 88 89 88 88 90 89 96 97 92 96 94 96 94 93 93 94 96 91 91 92 85 88 78
60 50 48 47 48 48 49 48 52 56 60 58 59 60 60 57 63 71 75 78 80 84 86 86 84 83 86 88 94 95 93 92 90 89 92 91 88 81 80 86 86 81 73
54 49 46 43 40 43 45 44 50 51 55 56 58 56 57 55 57 59 66 74 79 79 79 80 79 79 79 84 87 93 88 92 92 92 87 85 86 83 79 77 81 76 73
44 49 43 41 38 39 42 45 43 44 50 52 51 51 48 49 50 53 56 59 62 67 72 71 70 72 72 76 74 77 75 71 72 73 73 76 73 65 61 63 64 69 67
41 39 38 40 40 37 39 41 42 40 44 48 47 46 48 49 51 53 55 60 63 66 70 69 70 74 73 73 76 79 75 66 62 60 59 58 57 56 57 59 62 68 69
39 36 34 39 44 42 44 47 43 40 39 42 46 55 58 51 51 51 55 58 63 71 73 72 74 76 75 70 67 65 64 63 62 62 58 56 58 58 60 63 68 66 68
39 39 35 35 40 44 46 46 44 39 40 43 46 48 50 50 52 58 59 63 67 68 66 67 66 66 65 65 64 66 66 65 64 62 59 58 60 58 58 60 65 71 67
45 41 40 41 47 48 43 41 44 46 44 44 47 46 48 53 55 59 65 68 72 63 60 63 68 70 72 71 70 70 68 66 66 63 61 61 61 61 61 63 64 67 69
54 47 40 43 47 47 46 47 47 45 44 43 43 46 51 55 61 65 68 64 59 58 54 52 52 57 64 68 67 66 66 68 63 62 68 67 67 66 65 64 67 65 71
39 42 43 40 44 45 45 44 44 43 42 40 42 46 51 55 57 57 57 57 54 52 51 50 51 52 53 53 52 55 59 61 61 59 60 63 62 64 64 64 64 67 68
38 37 43 45 42 39 40 41 40 41 39 40 43 45 47 48 49 50 50 51 52 53 55 56 57 57 55 54 53 52 51 50 52 59 66 66 62 61 63 64 62 61 65
55 47 42 44 46 45 45 44 43 43 44 44 45 46 46 48 50 51 53 53 54 56 57 58 59 60 60 58 57 55 53 52 52 52 58 66 67 68 66 63 61 60 58
60 58 55 54 51 51 51 48 48 50 51 50 52 52 52 53 53 53 54 54 56 59 61 62 64 64 64 63 61 58 55 55 57 58 59 65 69 70 68 67 61 58 58
63 58 56 54 52 56 55 56 58 57 56 55 55 54 54 55 55 56 58 60 63 65 66 67 68 68 67 66 63 61 60 61 64 65 65 66 72 72 71 73 65 60 61
68 67 68 64 62 61 60 60 60 59 55 54 56 58 58 58 59 60 60 62 65 67 66 66 67 69 70 70 68 67 66 67 68 68 68 69 71 72 73 74 75 71 76
63 65 67 70 74 75 73 68 65 63 62 61 60 60 60 62 63 63 65 68 69 70 70 71 73 73 72 72 72 73 73 72 74 76 75 73 72 73 76 78 75 70 63
61 66 68 71 74 74 74 75 75 71 67 66 67 67 68 67 68 70 74 76 74 73 73 74 76 77 78 78 77 77 77 78 82 82 81 80 78 75 73 72 65 57 45
62 63 68 73 77 80 81 82 83 78 77 77 77 76 75 77 80 78 76 75 74 73 76 78 79 82 83 83 82 84 87 86 85 87 83 78 75 69 65 59 53 47 42
72 70 68 70 74 78 81 82 80 79 81 82 83 84 83 81 79 75 74 76 77 78 81 82 85 85 86 85 86 87 88 89 91 85 81 77 72 64 57 51 48 44 42
76 76 77 78 78 78 77 77 78 80 82 82 82 82 82 80 78 78 81 81 80 80 82 84 86 88 89 88 87 89 90 92 87 82 78 76 69 59 51 48 50 44 45
74 74 76 77 77 79 81 83 84 84 84 83 80 79 79 80 85 86 88 87 85 84 85 86 88 90 92 92 91 91 92 93 87 85 83 78 66 54 51 57 50 47 43

GFSMW_prec_cthk_108.txt.gz
RH
80 83 85 95 97 95 91 78 76 72 76 68 68 72 66 57 54 56 59 63 63 60 60 59 60 61 63 62 62 65 66 67 68 69 71 73 75 77 75 66 60 64 69
83 86 87 92 92 94 98 95 95 80 76 74 84 77 67 62 66 67 66 66 69 64 65 71 69 69 67 67 70 75 76 74 72 79 86 88 86 83 82 77 76 78 83
89 88 88 92 89 87 91 91 95 94 84 90 87 76 76 74 75 74 73 77 80 81 77 76 79 74 73 77 82 84 84 84 87 93 96 94 94 92 90 90 88 88 87
83 87 86 87 86 85 88 89 85 94 90 91 92 93 95 88 88 88 84 83 85 84 84 82 82 83 81 83 88 93 94 93 90 96 96 96 95 97 96 93 93 93 93
83 83 81 82 84 84 85 90 87 90 99 98 93 84 83 86 92 89 85 83 85 79 80 83 85 89 93 95 95 93 90 86 86 85 82 85 92 98 98 98 97 93 95
81 77 73 70 73 79 81 84 92 91 90 93 97 98 95 92 96 90 86 80 75 80 88 92 89 87 88 84 79 81 81 81 80 78 83 88 88 94 96 96 97 94 94
80 75 71 67 65 69 72 85 93 93 94 93 95 97 95 95 92 92 88 84 84 82 78 78 76 71 66 62 61 62 63 65 67 74 81 86 90 91 93 92 87 86 89
83 73 68 70 69 67 63 69 76 81 84 86 88 82 86 86 82 81 76 71 69 68 64 64 60 56 53 53 53 51 55 58 64 67 69 73 78 81 83 86 86 84 87
83 75 70 71 67 64 68 67 68 70 71 74 72 73 71 71 71 68 65 64 65 62 60 55 48 50 49 46 48 51 54 55 59 61 69 69 69 70 71 77 82 88 88
81 73 72 73 69 69 72 69 66 66 67 69 69 66 66 66 66 65 66 63 60 58 54 48 47 47 46 47 51 53 56 61 64 65 62 62 64 66 66 66 68 71 73
73 76 76 75 70 67 71 71 68 67 66 67 65 62 61 62 62 64 65 61 60 56 50 44 42 47 50 49 49 52 52 52 55 58 59 61 65 70 72 70 70 69 80
61 68 72 69 63 58 59 63 60 61 61 61 62 58 55 59 58 63 67 63 58 53 47 48 48 49 49 48 48 47 47 49 50 52 59 65 69 73 75 76 81 81 82
62 60 63 63 59 57 56 59 57 57 59 57 56 56 54 56 62 64 63 60 57 50 52 52 50 49 49 50 45 42 41 41 43 45 48 51 56 62 66 70 75 81 83
55 55 53 52 56 58 56 59 58 56 56 57 55 51 54 58 60 61 58 57 52 53 52 51 53 52 51 46 41 41 42 44 45 45 46 47 47 47 48 52 61 72 80
50 48 52 50 51 54 54 57 58 57 53 51 48 48 48 51 50 51 53 50 49 49 51 53 52 47 46 44 43 42 43 45 46 47 49 48 48 50 52 54 56 57 65
45 44 48 55 54 57 58 57 54 54 61 56 53 51 53 49 48 52 49 46 47 51 52 52 48 44 43 45 44 45 44 45 47 48 49 50 50 51 53 56 57 57 61
48 45 47 49 54 53 57 59 62 61 61 57 53 52 52 48 45 45 45 46 48 52 47 47 45 45 44 45 45 47 48 48 48 48 49 50 50 50 53 56 58 59 61
57 52 47 45 46 50 50 51 53 55 59 53 48 48 46 44 44 47 47 47 48 46 48 48 47 46 45 47 48 49 49 47 46 48 50 51 53 55 57 60 62 62 63
64 63 61 59 55 51 48 48 49 48 45 46 46 46 48 50 50 49 48 48 49 51 53 50 48 48 49 49 50 50 50 51 52 53 53 54 55 59 62 65 68 70 68
69 64 67 67 66 62 58 53 52 55 56 56 57 58 60 58 56 59 63 56 53 55 54 52 52 51 52 54 55 54 54 55 56 57 57 59 60 63 68 71 71 74 74
73 72 67 70 74 75 71 70 67 63 62 64 65 63 61 61 62 61 60 56 57 57 54 55 56 56 57 57 58 58 59 60 62 62 61 61 64 67 72 76 76 79 80
70 70 69 77 83 84 81 80 78 74 74 72 73 69 70 70 68 66 62 59 61 59 60 60 61 61 60 61 62 62 63 64 67 66 66 65 67 71 75 79 82 82 81
70 69 71 74 79 85 87 88 88 88 87 86 85 84 81 80 79 76 72 68 67 69 68 68 67 65 63 63 64 67 67 66 66 69 69 71 72 74 78 80 83 82 79
74 73 75 73 75 78 82 90 92 93 95 95 94 92 89 86 83 80 77 79 80 77 75 73 68 65 65 67 68 69 69 69 70 73 76 77 76 74 74 78 79 78 76
77 77 76 73 75 76 78 83 87 90 94 95 94 94 90 89 88 87 87 86 83 78 76 72 71 73 74 71 68 69 70 71 74 78 80 80 82 79 73 79 76 75 73
83 80 76 75 77 78 79 81 84 86 88 89 90 90 89 88 87 85 83 80 77 74 75 76 79 77 72 65 62 63 67 72 77 80 83 85 86 82 78 80 75 68 66

GFSMW_prec_cthk_111.txt.gz
RH
83 84 90 94 94 88 82 74 71 74 71 66 61 58 52 45 46 46 45 47 49 51 53 55 56 59 62 63 66 67 66 67 70 72 72 70 75 79 82 83 80 80 76
79 80 87 89 94 84 82 77 71 73 75 71 70 65 57 51 52 49 51 54 54 54 56 58 61 63 64 69 71 70 73 76 81 80 79 80 84 91 89 87 88 88 88
75 79 84 81 88 91 82 79 77 81 82 81 76 67 67 66 60 58 59 60 62 64 66 71 73 78 81 85 81 81 87 91 87 88 88 86 84 85 90 91 90 89 89
72 78 83 87 90 91 95 98 97 89 83 87 81 72 70 71 67 64 61 65 69 75 76 83 85 86 88 89 93 96 95 90 84 82 83 83 79 84 85 88 92 93 96
72 79 82 84 85 90 91 98 98 91 97 90 92 84 85 85 76 79 80 82 84 85 88 88 91 91 95 92 95 90 82 84 79 78 76 67 67 70 79 84 94 95 96
76 80 80 79 81 85 91 93 95 93 89 91 95 93 94 92 85 87 85 83 85 87 89 88 94 94 89 82 76 83 82 72 67 65 62 63 65 69 69 74 83 89 89
82 76 79 79 81 87 93 94 95 96 97 94 90 94 94 97 94 91 86 86 87 91 89 90 91 87 87 76 64 61 58 55 56 58 60 61 61 63 68 71 75 75 76
82 77 79 81 86 88 92 93 92 93 90 91 90 99 98 95 97 97 91 96 94 93 93 88 86 77 68 60 56 53 49 51 52 54 54 54 57 60 62 65 66 65 69
77 75 76 75 79 79 80 82 84 86 85 87 91 96 92 92 96 93 94 89 87 83 75 72 69 63 57 50 48 46 49 49 49 47 49 53 56 55 54 58 61 62 68
79 77 75 74 69 70 74 73 75 75 76 78 83 87 89 89 87 87 88 84 78 71 66 64 59 56 52 46 41 42 44 45 49 51 49 40 43 50 52 56 59 63 66
84 79 74 70 70 69 71 73 72 71 69 69 72 75 78 78 79 79 79 76 70 68 65 61 57 54 49 41 39 38 40 42 39 37 38 40 42 43 45 50 55 63 69
89 84 77 72 69 71 74 75 75 72 69 68 67 65 68 71 73 74 74 71 67 63 63 60 56 52 47 39 41 40 41 39 37 35 36 37 39 40 42 44 45 48 55
78 79 83 81 77 73 73 73 75 75 73 71 69 68 69 68 69 72 74 70 67 62 62 61 60 52 46 44 44 43 41 37 35 34 34 34 36 38 39 40 42 43 47
70 73 74 74 76 75 72 72 68 63 61 63 62 62 61 65 66 68 68 64 63 60 61 61 57 49 46 47 47 42 38 34 35 34 35 35 37 38 40 41 42 43 47
58 62 64 62 64 68 67 66 64 63 61 58 59 56 54 58 62 63 63 62 61 60 57 53 49 46 48 48 43 38 39 36 36 36 37 38 39 40 41 42 42 43 48
56 55 58 62 61 60 61 62 64 67 66 63 59 52 49 47 48 47 49 56 56 50 50 51 52 49 49 46 43 39 40 39 41 40 40 40 40 40 40 41 42 46 50
50 51 52 56 64 66 64 63 63 64 65 63 59 55 53 50 52 50 49 49 51 51 51 54 51 44 44 45 45 43 42 45 45 41 38 39 42 43 43 43 45 48 52
47 47 46 47 50 57 62 63 64 66 70 67 64 61 58 55 57 55 50 48 49 50 52 49 43 47 53 51 48 45 46 45 44 40 40 43 44 46 45 47 50 53 57
52 49 45 45 43 44 48 49 51 55 60 64 65 65 62 58 54 51 50 50 49 49 52 55 57 56 54 51 48 47 45 46 48 45 43 44 47 48 48 51 53 56 60
61 61 57 56 57 55 53 49 48 49 50 51 50 49 49 49 51 52 52 52 53 56 60 62 60 58 53 50 47 48 51 50 50 49 48 50 51 54 54 55 58 61 64
61 65 65 63 65 69 69 66 63 59 56 55 58 59 59 57 55 57 57 58 61 65 67 68 64 58 55 52 51 52 53 54 56 55 55 55 56 56 57 58 61 63 67
66 66 67 69 71 71 75 75 76 75 71 69 64 65 68 68 68 66 67 68 70 69 68 64 66 65 59 57 57 55 57 60 59 58 58 58 59 59 59 61 65 67 71
70 69 70 73 76 77 81 84 84 85 86 83 80 78 76 76 78 76 74 72 72 75 78 79 76 72 69 67 66 64 63 61 60 62 61 61 63 62 63 64 67 70 70
72 73 75 74 74 79 80 81 87 92 93 92 92 92 90 90 88 86 86 87 89 90 87 87 88 87 84 80 72 66 64 61 62 64 63 62 65 67 66 64 67 72 73
78 75 74 76 77 79 79 82 85 89 96 98 99 98 97 96 98 97 96 95 94 92 94 96 93 90 84 77 74 70 65 60 58 62 63 65 69 72 72 69 66 74 72
85 85 86 84 82 81 81 81 81 83 88 92 93 96 96 99 95 98 99 97 98 98 97 94 89 85 82 79 72 67 63 61 64 66 68 69 72 74 75 73 70 72 70

GFSMW_prec_cthk_114.txt.gz
RH
79 80 88 89 99 95 91 90 77 67 65 59 55 50 46 44 44 45 47 48 48 48 48 51 55 57 58 58 60 63 64 64 63 64 66 67 72 73 74 77 79 82 81
76 80 90 96 93 97 94 84 84 71 65 63 58 59 53 50 49 50 50 52 51 53 54 56 59 59 59 62 64 65 68 69 69 68 76 77 80 74 77 79 82 85 84
74 78 85 95 90 96 98 95 90 78 67 60 61 67 61 59 50 52 52 52 52 54 58 60 60 61 63 66 67 70 76 79 75 78 81 77 75 69 68 73 78 81 87
73 78 79 94 96 95 99 98 98 89 75 74 71 71 69 57 51 53 53 54 58 61 63 65 65 68 76 81 82 88 88 83 79 84 65 64 69 64 57 56 67 71 74
69 73 75 92 92 97 96 99 96 90 85 80 84 76 78 68 59 58 58 64 66 71 72 74 75 81 87 92 92 90 82 80 62 67 64 54 56 53 54 55 58 66 68
71 74 78 86 92 98 88 95 98 97 96 91 87 85 87 80 72 64 66 71 76 78 81 85 86 87 92 97 93 77 64 60 62 62 57 57 55 52 54 58 60 65 64
78 72 72 82 91 97 90 89 90 92 94 99 93 90 92 93 87 88 82 82 84 85 89 91 91 96 98 90 86 79 61 62 58 55 54 54 53 52 52 55 57 55 56
76 74 78 81 92 92 93 91 88 92 93 89 96 98 97 95 98 95 91 95 91 91 88 86 94 93 93 97 83 69 59 55 51 50 51 53 49 49 52 53 54 53 51
81 86 80 82 87 92 88 90 89 93 95 94 93 94 90 91 98 96 93 93 98 95 91 87 90 96 94 86 69 57 51 50 49 48 48 48 47 47 41 40 43 44 46
84 79 78 80 87 89 90 89 94 94 96 95 98 91 82 86 90 95 92 96 93 90 91 89 95 90 78 67 59 55 51 47 46 47 48 46 37 34 34 34 35 36 40
87 78 76 82 86 89 87 84 87 90 93 93 90 88 84 83 83 90 94 88 88 89 87 88 83 77 69 63 60 55 50 44 43 41 37 34 31 31 30 32 33 35 37
90 84 78 76 79 82 81 84 86 83 81 78 78 81 84 85 89 87 90 89 88 86 82 79 73 70 70 65 59 52 47 41 40 38 35 31 30 31 31 31 32 32 32
89 83 78 76 74 81 82 81 81 81 80 79 75 77 80 81 84 84 85 85 88 83 80 74 68 66 67 62 58 52 48 45 41 38 34 31 32 32 32 33 34 33 32
86 87 83 81 78 74 79 80 80 83 82 80 79 76 74 75 78 82 83 84 84 82 78 73 68 67 62 58 57 55 51 46 42 38 34 32 32 32 35 35 35 37 36
80 78 83 82 84 82 82 78 82 82 78 79 78 77 73 71 75 80 81 80 81 80 75 72 66 63 61 59 56 53 50 46 42 40 35 32 34 36 36 36 34 36 35
63 68 72 72 74 77 75 77 79 83 82 78 76 71 66 63 66 69 72 77 78 74 71 67 64 60 57 55 53 52 48 45 45 43 36 36 37 36 37 39 37 38 37
55 56 58 62 67 67 62 65 69 74 75 76 78 76 71 66 62 62 63 59 58 58 56 55 56 56 55 55 55 51 47 45 45 41 38 37 37 39 40 39 40 41 40
53 49 47 49 51 58 64 63 61 64 69 72 71 75 73 70 65 62 62 60 58 55 55 55 55 57 58 57 52 49 48 46 45 43 39 41 43 45 42 41 41 44 45
49 47 46 45 44 46 54 59 63 68 66 65 69 75 76 76 74 66 63 63 61 56 54 54 53 53 53 53 52 53 52 48 45 42 44 46 47 48 46 46 47 48 49
53 51 48 47 47 49 47 45 47 51 56 59 64 68 69 70 71 68 65 62 62 59 57 56 55 57 58 58 56 54 52 47 48 49 50 52 55 52 49 55 53 53 52
54 54 56 53 54 56 57 56 56 54 55 55 57 59 60 60 61 62 61 60 60 61 63 64 65 66 64 63 59 56 54 54 53 55 56 57 56 57 58 57 56 55 54
58 59 58 60 64 65 64 65 67 67 67 65 64 65 64 65 68 70 72 73 74 71 68 67 70 71 67 65 63 59 59 66 67 62 58 59 60 61 62 61 57 55 57
61 62 63 65 69 73 76 76 75 75 77 79 79 82 81 79 77 77 76 77 80 79 79 77 75 74 73 74 74 73 72 74 72 70 62 64 63 63 63 60 59 57 59
65 69 70 71 69 72 75 78 82 84 86 88 88 89 90 91 90 88 88 86 86 85 86 85 87 86 87 87 83 83 82 84 76 69 63 60 61 64 63 61 57 57 59
68 68 68 68 71 74 77 79 84 85 88 88 88 92 93 93 95 96 96 98 98 97 96 95 93 95 96 90 87 86 84 76 69 65 61 59 62 64 63 64 61 59 58
68 71 72 74 77 77 77 77 79 81 84 85 87 92 99 98 99 98 99 99 96 98 98 99 98 97 98 96 90 87 82 77 70 63 62 63 65 67 66 66 65 63 60

GFSMW_prec_cthk_117.txt.gz
RH
67 78 76 74 66 85 89 99 97 96 78 70 59 52 45 39 35 35 35 33 37 40 45 49 51 51 51 54 53 54 56 57 58 57 60 62 66 67 70 68 71 74 72
70 73 75 77 66 78 87 99 92 90 82 69 61 62 51 42 36 34 34 31 37 41 45 50 52 54 56 58 58 59 60 61 63 68 69 72 74 69 69 64 62 66 72
69 68 74 72 72 78 83 90 97 95 85 79 72 65 60 51 44 40 39 38 43 47 48 54 56 57 57 60 60 61 61 66 74 75 77 80 75 72 66 58 54 55 57
69 67 70 69 72 73 75 94 92 98 88 86 78 72 61 54 46 41 40 43 51 55 53 56 55 57 58 61 61 67 76 85 87 80 74 74 62 58 56 52 51 52 56
74 71 71 67 79 74 80 91 98 97 89 82 79 75 70 59 50 46 45 51 56 56 54 56 58 62 63 66 75 82 88 87 88 77 63 67 63 58 55 51 49 52 56
75 73 67 67 79 79 79 98 98 99 95 87 79 78 64 61 56 52 56 59 59 56 60 61 63 69 75 82 84 90 91 83 78 66 57 56 57 57 51 46 47 51 53
80 69 68 70 78 80 84 97 98 98 97 86 92 88 81 72 68 61 59 60 59 61 64 68 76 82 85 86 90 90 70 74 68 62 59 55 54 55 51 48 47 48 43
70 66 69 73 76 82 87 90 91 99 98 96 97 96 86 87 83 79 80 68 70 76 77 77 84 87 90 89 89 82 79 79 72 69 57 51 48 49 46 43 42 43 42
71 67 70 74 74 83 90 92 94 97 94 96 93 93 94 88 87 95 90 87 81 85 83 85 87 92 90 89 88 88 82 75 60 49 46 47 49 48 41 41 38 39 39
74 74 79 81 81 84 85 91 94 91 88 91 91 96 94 93 91 92 93 94 89 92 95 93 87 92 87 90 90 89 75 66 53 47 48 51 49 43 37 31 32 32 33
76 78 79 83 83 85 88 90 95 98 98 97 96 95 90 87 83 85 90 98 94 91 94 97 96 93 88 94 93 76 65 59 52 51 48 45 41 34 32 30 29 29 31
85 81 83 88 86 83 82 83 93 95 98 95 95 93 92 89 83 84 92 88 91 93 90 91 93 92 92 91 81 73 67 60 54 49 42 39 37 35 34 31 29 29 30
88 84 90 93 90 86 85 89 90 91 90 92 91 89 88 88 84 84 86 92 84 88 91 92 95 95 85 80 73 68 65 58 53 49 45 39 38 36 32 31 31 29 30
96 88 84 88 94 92 94 94 85 84 88 89 91 89 90 89 89 90 93 91 91 95 93 91 85 82 77 74 70 63 59 58 54 52 45 40 39 38 36 33 31 30 30
92 93 92 87 86 94 95 93 90 88 88 87 86 81 82 80 81 87 88 91 93 93 87 81 78 76 74 72 66 63 61 58 55 52 45 44 42 41 38 37 34 31 31
75 86 90 90 90 86 84 89 93 91 89 86 81 80 79 79 77 72 76 85 87 86 83 79 76 73 74 71 66 63 61 56 55 50 47 46 43 40 39 37 34 33 34
62 66 72 78 79 80 81 80 83 90 89 88 87 85 83 81 78 75 79 82 80 79 84 85 81 75 70 69 65 62 58 55 52 49 48 46 42 40 39 39 37 35 35
54 54 58 61 70 74 73 74 73 78 84 89 91 93 91 88 83 79 75 72 72 72 71 65 61 60 61 62 63 62 59 59 54 50 48 44 41 39 42 44 40 40 40
51 51 49 49 48 51 64 71 73 73 72 72 74 81 83 79 79 79 76 73 71 65 64 62 59 57 58 59 63 62 58 55 52 50 47 45 45 46 45 46 46 44 44
52 51 51 53 53 53 53 54 58 67 77 79 77 75 74 78 81 83 83 81 76 71 69 67 63 61 61 61 60 59 56 55 53 50 47 46 47 51 52 51 51 51 49
51 54 52 56 58 61 64 65 62 57 56 56 59 65 69 72 72 75 76 74 70 67 65 64 65 65 63 62 62 61 58 56 55 52 50 54 54 54 55 56 54 55 56
48 51 52 54 59 62 67 70 70 71 68 67 65 62 61 60 62 62 64 63 63 64 63 64 65 64 64 66 66 63 65 63 60 61 61 61 62 64 59 60 58 59 59
51 54 55 55 54 56 60 65 69 76 81 80 78 79 80 78 77 75 75 74 74 74 72 72 74 76 75 74 73 73 70 70 69 69 71 73 68 66 67 66 65 59 56
48 51 54 56 58 61 63 65 71 72 77 82 86 87 85 89 91 93 93 92 90 88 84 84 84 85 86 85 82 78 76 77 78 79 81 79 73 69 68 64 65 62 52
48 50 51 54 56 59 62 65 69 72 76 78 85 92 93 94 96 96 97 97 95 95 94 96 95 93 92 92 90 90 92 92 89 88 82 77 71 69 66 66 64 61 60
47 48 50 53 56 58 62 67 69 73 78 78 80 84 92 97 94 97 98 98 98 98 98 99 99 98 98 98 97 98 98 98 95 92 85 76 70 68 67 64 65 67 64

GFSMW_prec_cthk_120.txt.gz
RH
45 49 54 53 61 56 70 83 93 98 92 86 84 69 62 60 59 52 41 37 43 37 39 40 40 42 40 42 42 46 51 54 55 53 55 61 61 63 64 64 64 61 62
51 54 67 43 49 52 70 77 89 99 96 92 84 64 53 50 46 42 42 40 39 36 37 38 41 42 44 46 48 52 53 55 55 56 64 68 72 75 71 66 62 54 52
61 65 62 52 53 57 68 76 88 99 99 95 88 65 54 49 46 44 41 43 41 35 38 39 43 46 49 50 52 56 57 57 58 64 68 71 75 77 73 65 59 52 50
63 65 58 62 59 67 69 75 87 96 98 94 89 67 53 48 42 40 40 45 41 38 40 42 48 50 53 54 58 61 60 59 67 76 80 73 74 68 66 56 52 48 46
70 60 62 63 69 72 76 79 83 97 99 95 88 82 65 59 45 42 46 44 41 38 38 46 55 52 57 59 61 62 62 68 75 81 83 75 68 61 61 57 51 43 44
67 64 58 69 69 73 74 79 76 89 92 98 90 80 70 71 66 55 52 49 46 41 45 51 55 58 63 64 64 67 75 80 79 81 79 67 55 55 58 57 49 43 42
68 69 63 65 72 75 78 78 80 85 86 89 98 91 77 80 75 64 52 49 45 43 49 56 59 66 66 68 73 77 82 77 79 77 64 62 60 61 57 53 47 42 37
75 69 66 66 75 77 81 84 85 90 89 91 98 96 93 84 87 74 57 52 47 45 49 54 65 69 71 77 80 86 83 80 71 62 59 56 59 55 52 50 42 38 36
72 69 68 74 79 83 82 79 82 83 94 96 94 98 98 96 90 82 67 60 54 52 56 64 72 75 81 86 84 86 84 81 71 73 68 58 49 49 53 46 39 39 32
72 73 74 83 85 86 82 80 80 87 90 98 98 97 98 98 96 93 90 75 63 61 64 71 81 83 85 85 86 86 86 81 82 75 62 53 51 49 48 43 34 28 28
79 76 82 86 87 83 84 88 83 84 88 93 97 97 93 91 92 97 96 93 85 78 79 87 85 87 85 86 85 83 88 88 83 68 58 53 48 47 42 35 32 29 29
85 89 87 90 92 92 92 89 89 91 91 98 96 95 96 92 94 96 94 93 96 92 89 90 93 95 88 86 87 85 88 88 79 64 58 53 49 41 39 35 33 30 30
95 93 95 95 92 94 92 92 92 88 96 99 98 97 92 86 91 90 87 91 94 96 98 98 95 92 91 93 92 94 96 83 73 66 59 52 49 45 41 36 34 33 32
91 94 95 87 93 91 92 93 93 89 92 90 92 91 90 90 90 90 89 86 94 95 95 95 97 96 93 92 89 93 83 75 68 62 56 55 54 48 42 37 37 35 34
95 93 93 90 94 94 92 89 92 89 89 94 93 90 92 94 93 91 89 85 88 87 90 87 87 92 94 93 89 86 80 75 69 60 58 56 54 50 42 40 40 37 35
95 94 94 89 88 91 95 92 89 87 89 86 89 85 86 86 87 91 96 95 92 93 90 94 97 94 85 79 78 77 77 72 66 63 61 57 56 50 44 42 40 38 35
68 86 90 94 94 93 93 95 96 90 89 90 86 86 84 82 80 81 81 86 91 94 96 99 96 90 88 83 81 76 73 70 69 66 62 56 52 47 44 42 40 37 37
54 57 63 70 73 74 73 77 84 85 86 87 88 91 92 90 88 84 84 86 89 91 95 96 93 91 89 84 78 72 71 70 68 63 60 56 52 48 45 43 40 40 41
47 49 49 48 51 59 65 64 67 73 79 84 86 92 90 93 93 89 88 89 88 87 89 90 91 88 81 74 68 66 66 66 65 63 59 56 52 51 46 43 44 43 45
41 40 42 46 46 46 46 47 57 67 67 68 72 72 79 89 88 87 91 91 89 85 83 82 79 74 70 67 65 66 63 63 63 62 60 55 52 50 47 46 47 48 50
46 45 44 43 46 48 49 52 52 49 49 53 62 70 73 78 81 85 87 89 88 86 87 86 79 77 76 74 71 68 68 68 67 65 62 59 57 53 52 51 50 51 54
52 48 45 44 45 46 47 50 55 58 58 58 57 54 54 56 60 66 73 79 81 82 83 84 78 72 69 69 69 70 71 69 68 64 63 63 61 61 59 59 59 56 59
54 51 50 53 52 49 48 47 52 55 57 61 68 69 68 67 65 65 64 64 65 67 70 71 72 74 74 74 77 76 74 75 75 71 69 68 69 67 66 66 63 66 66
42 46 48 49 47 47 49 51 51 55 57 61 65 66 68 75 80 81 84 82 80 80 83 85 86 85 83 83 86 88 86 84 82 78 78 77 77 78 73 69 69 69 70
39 39 39 40 42 44 47 50 52 51 52 53 57 65 70 75 78 83 88 92 90 92 94 97 97 95 93 94 94 92 91 90 90 87 85 86 86 86 79 71 71 70 68
35 37 39 40 40 40 41 43 46 49 53 58 59 59 61 68 80 87 92 98 99 96 97 99 98 99 99 100 99 99 98 99 99 98 97 94 92 90 84 78 73 72 69

GFSMW_prec_cthk_126.txt.gz
RH
18 21 21 21 23 26 26 33 38 39 34 37 43 68 80 81 90 92 90 91 86 77 74 38 35 31 29 29 33 36 39 40 43 47 50 51 51 54 54 55 60 62 58
22 23 23 19 22 28 28 30 33 39 36 35 41 52 65 79 85 88 97 96 89 90 77 41 36 32 31 34 39 39 40 41 45 47 51 53 55 57 60 64 65 67 64
26 26 32 31 26 31 28 31 35 33 37 38 41 51 63 78 87 86 85 98 93 93 80 42 38 33 33 38 39 40 40 41 47 49 50 56 56 61 67 69 66 70 66
40 42 46 39 30 30 29 32 30 26 30 35 39 46 60 66 84 84 91 90 94 96 82 45 39 33 33 39 41 41 42 44 47 51 51 60 58 63 69 67 64 71 69
53 59 52 46 44 37 34 35 32 37 36 33 38 52 55 72 85 89 91 96 93 98 78 47 40 40 35 41 43 43 43 48 52 52 54 65 64 65 68 68 72 70 61
62 72 60 51 44 42 41 45 48 44 41 44 51 64 71 81 96 97 89 97 97 96 72 54 44 44 41 50 46 46 55 57 54 56 59 71 71 70 71 76 78 76 59
70 72 65 61 60 59 58 59 57 51 58 61 79 77 79 98 98 96 94 98 95 91 72 57 52 52 50 54 47 58 60 55 57 59 72 77 74 73 78 81 83 76 57
78 72 68 64 69 65 69 69 67 65 75 84 77 89 94 98 98 97 93 93 92 83 74 55 52 52 51 53 55 61 60 60 62 67 82 77 77 76 80 82 80 72 53
79 78 70 62 66 73 83 84 84 82 92 90 86 91 96 99 98 98 94 89 77 69 64 58 60 56 51 51 60 65 64 63 69 78 85 77 79 80 81 86 78 64 48
80 76 71 68 75 87 92 94 88 91 90 90 86 83 90 96 98 94 88 78 72 64 65 63 59 55 51 57 64 71 65 68 77 83 83 82 83 84 86 86 75 57 47
73 74 77 87 91 92 96 94 94 96 95 95 90 86 85 91 96 93 90 74 65 64 61 59 58 54 56 57 69 69 65 70 82 83 86 88 88 84 86 87 75 54 48
79 81 89 92 93 98 95 91 90 92 94 94 93 90 91 90 92 92 91 84 68 65 65 61 59 63 61 69 71 65 66 74 82 86 87 94 89 83 90 87 80 58 45
88 89 93 95 98 96 95 96 97 98 97 97 95 98 95 97 96 96 96 96 90 81 77 76 69 73 74 84 76 75 75 79 78 83 87 93 90 85 90 87 76 63 51
93 97 98 98 97 97 99 99 99 98 98 94 98 98 96 97 98 98 99 96 96 97 94 92 91 89 86 82 83 83 84 82 83 84 88 92 91 88 91 89 81 67 56
98 99 99 98 98 96 97 98 98 96 97 96 95 94 95 95 97 95 96 97 98 99 96 93 94 92 87 84 84 88 85 84 88 94 94 97 95 94 94 89 81 73 62
98 98 99 98 96 96 97 97 99 98 99 96 95 93 88 87 91 92 91 95 95 94 96 97 97 96 92 97 99 98 99 97 98 99 98 97 97 99 93 83 84 78 71
97 95 98 96 99 98 99 98 98 98 98 95 92 90 90 93 94 92 92 94 95 96 96 97 98 97 97 96 97 98 99 99 99 99 98 96 99 92 82 83 82 79 73
93 97 95 95 94 93 93 92 88 87 88 88 89 90 92 91 92 90 91 94 94 97 96 96 96 97 98 99 99 98 99 98 99 99 99 97 94 86 85 84 83 79 75
64 69 74 80 81 79 81 80 75 80 81 83 82 84 82 83 86 86 85 91 90 92 97 96 95 93 91 96 98 99 98 98 98 98 96 92 86 85 84 80 80 77 71
50 50 48 47 44 44 47 52 52 56 61 65 70 72 77 81 83 84 83 84 83 84 85 88 91 95 98 98 98 99 97 98 96 95 92 92 91 84 82 85 82 72 66
41 40 40 36 36 39 38 36 38 36 37 39 41 44 50 56 63 72 79 81 82 84 87 90 91 91 92 96 98 98 98 98 97 96 95 95 95 92 89 83 75 71 69
40 41 39 35 33 33 34 33 32 35 36 36 36 36 37 37 39 42 46 51 55 60 69 80 88 94 94 95 94 96 95 94 94 94 93 90 90 88 83 78 74 71 69
31 29 28 28 31 29 29 27 28 32 30 29 30 30 32 34 37 38 40 44 47 47 48 52 57 68 79 86 91 93 96 97 98 98 98 97 97 90 88 87 85 83 80
28 29 31 34 30 30 30 27 26 25 27 31 30 28 29 31 32 36 38 39 42 44 47 52 55 60 66 68 76 83 86 92 94 96 97 97 97 94 91 88 86 84 82
28 29 28 29 29 30 30 28 25 25 24 24 27 28 30 33 34 35 36 38 40 43 45 47 51 56 60 68 76 82 87 89 93 95 96 96 95 94 96 94 93 93 90
26 27 29 29 29 28 26 26 27 26 26 23 24 24 26 30 35 36 36 38 42 45 47 49 50 52 57 64 71 76 85 92 95 96 95 94 94 96 98 99 99 98 98

GFSMW_prec_cthk_129.txt.gz
RH
22 24 22 19 23 23 25 23 27 30 33 32 35 48 50 59 76 95 91 91 89 90 90 84 77 54 39 34 33 32 34 35 38 41 43 45 48 48 50 52 55 57 60
27 26 22 19 17 23 26 26 26 27 32 32 32 39 47 53 71 80 90 83 88 82 88 91 82 64 41 36 35 34 35 38 40 41 46 50 51 51 53 55 59 62 63
31 31 30 21 17 18 22 25 28 27 28 33 35 36 36 48 66 73 72 82 81 84 89 94 91 74 47 36 35 35 36 37 40 42 47 50 49 53 55 62 65 66 63
40 32 28 26 20 17 20 25 26 27 26 28 40 36 34 40 54 55 71 75 79 92 93 92 91 85 54 39 37 36 38 40 41 45 49 50 51 55 59 68 70 64 65
40 35 31 30 29 33 35 30 29 21 23 26 34 36 33 37 46 54 66 68 71 79 83 95 98 90 61 41 40 38 40 43 43 44 51 53 56 58 62 71 71 68 70
44 39 40 47 50 42 45 37 31 29 33 35 30 27 33 34 43 45 60 66 73 76 82 89 96 90 61 47 44 41 44 45 47 47 53 55 58 65 71 72 76 73 75
53 46 46 57 59 48 45 44 36 36 43 41 35 29 29 34 35 37 40 49 62 74 78 85 94 88 69 51 49 48 51 48 48 50 56 59 73 68 72 74 77 78 79
60 60 64 64 60 52 48 49 38 40 41 42 38 34 30 33 35 36 41 49 56 66 81 90 97 89 77 56 54 50 55 55 51 56 61 73 69 76 75 76 79 82 79
72 61 61 61 58 54 49 46 44 41 44 47 41 37 40 49 51 41 51 59 74 80 91 95 96 88 70 55 58 53 59 56 58 64 72 75 71 81 83 80 84 82 80
73 72 61 67 68 65 60 59 56 55 54 49 47 50 55 66 56 63 64 78 90 98 97 95 97 94 73 61 61 59 61 61 62 67 72 76 80 83 82 83 87 86 83
69 62 66 68 73 76 82 87 84 90 89 92 71 75 77 79 76 83 95 96 98 99 97 97 93 92 70 60 63 62 62 65 66 71 75 80 84 86 86 87 89 87 85
71 69 72 75 78 80 87 92 92 91 94 97 97 91 92 89 89 92 98 99 97 93 93 91 87 76 73 69 66 65 61 60 68 71 79 82 87 90 89 88 87 89 87
84 86 88 93 89 90 93 98 98 99 96 99 96 95 94 94 95 97 97 95 92 91 89 83 79 79 79 76 71 65 64 67 73 83 80 85 83 87 89 89 87 88 87
87 92 93 96 98 97 99 98 98 98 99 99 99 98 98 99 96 96 95 92 89 85 85 86 88 82 78 75 75 73 74 73 79 83 87 87 89 88 89 92 93 88 91
98 98 99 99 98 99 98 97 97 98 99 99 99 96 95 99 99 99 97 95 95 94 87 84 84 83 83 80 80 85 85 84 84 87 92 93 85 87 93 95 93 94 93
98 98 99 99 99 98 99 99 99 99 99 96 97 98 97 96 97 97 95 99 98 96 97 95 92 91 93 89 89 90 90 89 92 92 93 92 90 91 94 99 99 96 96
97 98 98 97 97 99 99 99 98 98 93 91 97 95 95 97 94 93 96 97 96 95 95 98 95 97 94 94 95 95 94 93 94 95 96 96 99 98 99 95 99 98 95
96 96 95 96 97 96 92 91 92 90 88 88 85 87 88 89 90 91 91 88 91 95 94 94 96 97 97 97 96 98 97 96 99 98 99 98 98 99 99 99 99 97 92
80 80 79 82 87 88 87 85 85 90 92 91 88 91 92 91 90 90 83 84 89 92 90 94 96 95 96 95 96 95 98 95 99 99 99 99 99 99 98 98 97 94 93
54 52 52 52 49 49 52 48 49 53 55 60 63 66 67 70 74 79 81 82 84 86 86 86 88 91 93 91 93 97 98 98 99 99 99 98 99 98 97 94 92 94 95
39 38 34 34 36 37 37 35 35 34 36 36 38 37 37 38 39 44 46 52 61 72 78 79 81 86 86 87 91 89 92 94 96 97 98 98 98 98 98 98 97 97 97
30 29 29 31 32 31 31 33 29 30 31 31 32 32 32 32 32 31 32 34 35 36 36 43 52 58 63 68 75 84 91 92 96 94 96 97 97 98 98 98 98 97 95
28 26 27 26 25 24 23 24 25 29 27 25 27 28 29 30 31 29 31 32 33 35 38 40 41 42 44 48 53 56 66 73 80 89 90 93 97 97 98 98 98 98 98
28 28 27 26 26 27 26 23 24 24 23 23 23 25 27 28 30 28 28 30 32 33 35 37 39 42 46 48 51 55 58 62 67 73 84 90 94 97 97 97 97 97 97
28 28 26 27 28 26 25 26 28 28 26 25 26 25 24 25 26 27 28 30 31 34 34 37 38 39 41 45 49 52 56 59 63 68 71 76 86 94 98 98 98 98 98
28 28 28 28 29 28 27 28 28 28 28 27 26 25 25 26 27 28 30 29 31 33 35 37 39 41 41 45 47 51 52 56 61 65 72 78 81 84 91 97 98 98 98

GFSMW_prec_cthk_132.txt.gz
RH
28 28 26 26 25 25 23 23 23 23 27 29 33 35 36 43 68 70 77 79 81 83 81 82 76 84 67 60 52 48 41 38 40 40 38 39 40 41 43 45 48 51 56
32 30 28 26 25 23 23 21 22 24 23 27 31 36 34 35 48 60 58 91 93 90 91 86 85 90 79 68 53 49 45 42 42 40 39 43 43 43 46 47 50 52 59
37 33 31 28 28 27 22 21 21 25 26 23 28 35 38 37 35 49 56 60 84 84 87 92 92 94 93 75 61 54 49 42 41 41 42 43 42 46 48 48 51 55 63
46 42 36 33 27 23 23 19 18 22 27 26 24 30 36 38 36 33 47 55 64 77 87 92 91 91 95 86 70 60 51 45 43 45 44 42 42 47 48 50 52 59 64
49 48 42 34 28 22 20 19 15 18 23 26 26 26 33 38 38 36 39 53 66 72 74 80 83 81 91 92 84 71 51 48 45 44 44 45 47 48 50 52 56 62 64
56 53 43 36 28 24 22 22 22 20 22 23 23 25 27 34 42 37 38 49 55 64 76 77 75 77 91 95 90 80 58 50 48 48 48 46 49 51 54 54 57 65 68
60 59 51 43 36 34 35 32 34 34 29 23 21 22 25 31 36 36 37 48 51 57 76 69 67 71 84 96 94 83 64 57 52 51 51 48 51 58 60 61 61 68 73
65 61 53 44 42 47 47 47 45 38 34 26 24 21 23 31 34 32 32 37 44 46 65 58 66 65 81 86 93 86 81 62 59 58 58 55 59 65 62 60 68 76 75
66 65 54 47 48 53 58 55 48 45 39 34 28 30 43 35 30 31 34 36 37 40 51 47 56 63 73 83 92 82 74 66 60 63 64 61 61 64 64 66 76 80 78
64 59 56 53 52 53 54 49 46 42 38 36 40 42 42 37 34 30 29 30 36 35 42 47 51 60 72 80 87 82 64 72 69 63 76 64 61 68 69 74 85 85 82
61 63 61 60 58 62 59 51 52 49 52 46 46 47 45 46 39 33 29 30 41 38 41 43 50 61 70 92 97 91 83 74 70 67 76 74 66 70 78 82 88 89 85
75 71 72 71 71 72 75 72 68 73 77 79 73 63 59 45 45 47 51 50 46 41 41 44 46 70 89 98 90 92 80 72 74 69 76 74 69 75 80 82 86 90 85
85 82 79 78 81 85 84 78 82 87 92 89 83 78 77 76 69 66 63 60 56 50 49 59 81 92 99 98 94 95 87 74 74 79 74 71 73 75 79 83 85 87 91
92 94 92 92 95 94 91 91 91 94 92 90 91 93 92 96 95 84 74 68 78 93 90 96 98 99 99 98 97 97 93 84 83 84 78 74 74 79 86 89 91 91 94
96 98 98 98 99 97 97 98 99 99 99 98 98 97 99 99 99 98 96 98 98 98 97 98 96 96 96 97 96 96 92 85 86 82 79 79 79 82 79 86 91 93 92
98 98 98 99 98 98 99 99 99 99 97 97 98 99 99 98 99 99 99 98 99 98 96 97 97 97 94 94 94 96 95 96 94 90 88 86 86 86 86 88 93 92 96
99 99 99 99 98 98 98 98 98 97 97 97 98 98 99 98 98 98 98 99 98 98 96 96 94 92 93 93 96 96 95 94 95 93 95 92 94 93 92 93 95 98 99
95 95 94 95 96 98 96 96 93 94 96 94 96 96 92 92 94 95 94 96 98 98 95 96 97 97 98 98 98 98 98 96 96 97 97 97 98 96 98 98 98 99 99
78 78 74 74 75 76 79 79 86 90 89 91 90 89 93 88 89 87 86 85 86 89 87 87 91 92 96 97 96 97 97 99 99 99 99 99 98 99 99 99 99 99 99
51 51 50 46 42 41 43 43 45 47 47 49 49 52 55 55 57 63 68 69 71 73 79 82 86 88 89 90 92 92 91 93 94 95 97 97 98 99 99 99 99 99 99
34 33 31 29 29 28 28 28 30 30 33 33 33 34 33 32 33 35 37 39 39 40 45 48 53 62 65 66 71 75 79 83 85 88 90 90 95 95 95 96 97 98 98
29 29 28 25 25 24 24 24 24 26 26 27 25 24 27 28 29 28 28 29 30 31 31 32 34 36 38 40 42 44 48 54 60 69 75 80 84 84 87 91 92 95 96
28 28 26 26 25 25 24 22 22 22 22 22 21 21 22 24 24 23 23 24 26 27 29 30 31 32 33 36 39 41 43 46 48 51 55 60 65 75 79 83 90 91 92
27 26 25 25 25 24 24 25 23 22 23 21 19 19 19 20 20 21 22 24 25 26 26 27 28 29 30 32 34 36 40 44 46 49 54 59 62 65 68 71 75 82 89
27 28 28 28 28 26 24 24 25 24 23 22 22 21 21 21 21 20 22 24 24 25 25 26 28 30 31 33 34 36 39 41 44 48 53 57 60 65 69 73 76 77 77
29 29 29 29 29 28 28 28 29 27 27 28 26 25 25 26 25 25 25 26 26 26 26 26 27 29 31 35 37 39 41 43 47 49 53 56 61 63 66 69 73 77 80